     2              OBSERVATION DATA    GPS                 RINEX VERSION / TYPE
ASHTORIN IGPP 01 - MAY - 98 11:45                           PGM / RUN BY / DATE
                                                            COMMENT
Original Marker Name: Boundary Lane GPS May 92              COMMENT
Campaign Name: Anza Transect 1998                           COMMENT
4-Character Station Name: BNDY                              COMMENT
6-Character Antenna Code: DMRCHT                            COMMENT
Vertical Measurement Point: BCR                             COMMENT
Vertical Offset to Rinex Ref. Point: 0.0349                 COMMENT
Radial Measurement Point: ECF                               COMMENT
Radial Offset to Rinex Ref. Point: 0.1896                   COMMENT
Antenna Height from Field Measurement: 1.1370 m             COMMENT
Additional Antenna Identification Info.:                    COMMENT
Turborogue and Ashtech Choke Ring                           COMMENT
Extremely windy at setup. Had to set up low and             COMMENT
place lots of rocks on tripod legs.                         COMMENT
Original XYZ: -2385627.2236 -4756973.6093 3506263.7031      COMMENT
New XYZ position is based on association with SCEC monument COMMENT
E1D0K5U1+0011. Position of that monument is believed to be  COMMENT
valid to within 1 m horizontally; vertical accuracy         COMMENT
should be no worse than 3-times this value.                 COMMENT
                                                            COMMENT
Revised Rinex header created by UCSD GPS archive for        COMMENT
GSAC on 12-Apr-1999 (1999:102) 11:18:07 GMT                 COMMENT
For assistance contact dagnew@ucsd.edu or hjohnson@ucsd.edu COMMENT
                                                            COMMENT
BOUNDARY LANE GPS MAY 92                                    MARKER NAME
BNDY                                                        MARKER NUMBER
Anderson SCRIPPS INSTITUTION OF OCEANOGRAPHY                OBSERVER / AGENCY
319 ASHTECH Z12-XII3 1F501D0                                REC # / TYPE / VERS
409 DORNE-MARGOL. TYPE T                                    ANT # / TYPE
 -2368220.0000 -4762832.0000  3510172.0000                  APPROX POSITION XYZ
        1.0862        0.0000        0.0000                  ANTENNA: DELTA H/E/N
     1     1     0                                          WAVELENGTH FACT L1/2
     7    L1    L2    C1    P1    P2    D1    D2            # / TYPES OF OBSERV
    30                                                      INTERVAL
  1998     5     3     1    48    0.000000                  TIME OF FIRST OBS
  1998     5     3    16    47   30.000000                  TIME OF LAST OBS
     0                                                      # OF SATELLITES
                                                            END OF HEADER
 98  5  3  1 48  0.0000000  0  8  1 17  3 26 23  6 22 21             0.000000000
   -247530.55019   -172458.69644         0.000           0.0005   24597896.0054
        -0.000          -0.000
     29245.273 9     21000.85649  20784569.882    20784569.5124   20784575.0604
        -0.000          -0.000
   -208412.066 9   -141092.69846  23229547.992    23229548.4484   23229554.6034
        -0.000          -0.000
    138509.747 9     91301.90947  22712045.127    22712044.7294   22712050.0364
        -0.000          -0.000
     11212.162 9      7918.30549  20726773.508    20726773.0544   20726778.3474
        -0.000          -0.000
    228294.394 9    162421.15247  22353037.996    22353038.1144   22353044.7404
        -0.000          -0.000
    114186.77019     80003.56945         0.000           0.0005   24219092.8234
        -0.000          -0.000
   -110952.375 9    -76038.46247  22234677.073    22234676.1944   22234682.2674
        -0.000          -0.000
 98  5  3  1 48 30.0000000  0  8  1 17  3 26 23  6 22 21             0.000000000
   -354065.264 9   -255472.42045  24577616.068    24577615.5414   24577623.3834
        -0.000          -0.000
     43938.289 9     32449.95049  20787366.322    20787365.5264   20787371.0924
        -0.000          -0.000
   -295148.894 9   -208679.80846  23213043.668    23213043.1044   23213049.1454
        -0.000          -0.000
    209057.108 9    146273.87747  22725470.079    22725469.6644   22725474.7634
        -0.000          -0.000
     17099.286 9     12505.67249  20727894.326    20727893.3684   20727898.6574
        -0.000          -0.000
    329040.173 9    240924.24947  22372209.386    22372209.4824   22372216.0914
        -0.000          -0.000
    169312.052 9    122958.27746  24229577.575    24229575.4744   24229582.4634
        -0.000          -0.000
   -162571.101 9   -116260.81548  22224854.234    22224853.4944   22224859.5684
        -0.000          -0.000
 98  5  3  1 49  0.0000000  0  8  1 17  3 26 23  6 22 21             0.000000022
   -590141.794 8   -439427.90445  24532691.110    24532689.4224   24532699.9544
        -0.000          -0.000
    -70647.746 9    -56837.87249  20765561.339    20765560.5024   20765566.1184
        -0.000          -0.000
   -511141.661 9   -376985.81646  23171941.344    23171941.1294   23171947.1544
        -0.000          -0.000
    150567.361 9    100697.44147  22714338.546    22714339.3704   22714344.5184
        -0.000          -0.000
   -106207.149 9    -83577.26149  20704429.284    20704428.9424   20704434.2294
        -0.000          -0.000
    300573.235 9    218742.16047  22366792.655    22366792.5024   22366799.1104
        -0.000          -0.000
     95216.553 9     65221.44446  24215477.588    24215476.2544   24215482.8034
        -0.000          -0.000
   -343415.110 9   -257178.18548  22190440.868    22190439.9684   22190446.1004
        -0.000          -0.000
 98  5  3  1 49 30.0000000  0  8  1 17  3 26 23  6 22 21             0.000000002
   -700459.348 8   -525389.35345  24511698.122    24511697.2764   24511707.1914
        -0.000          -0.000
    -59215.446 9    -47929.59249  20767736.830    20767736.0354   20767741.6594
        -0.000          -0.000
   -601087.932 9   -447073.79246  23154825.262    23154824.9784   23154830.9664
        -0.000          -0.000
    218333.664 9    153502.34047  22727234.573    22727234.8534   22727240.0974
        -0.000          -0.000
   -103423.057 9    -81407.83849  20704959.271    20704958.7654   20704964.0614
        -0.000          -0.000
    398193.515 9    294809.84647  22385369.290    22385369.0714   22385375.6624
        -0.000          -0.000
    147185.438 9    105716.61446  24225366.660    24225365.2594   24225372.0904
        -0.000          -0.000
   -398202.517 9   -299869.65148  22180014.906    22180014.2964   22180020.4134
        -0.000          -0.000
 98  5  3  1 50  0.0000000  0  8  1 17  3 26 23  6 22 21            -0.000000010
   -810764.439 8   -611341.11645  24490707.586    24490706.6674   24490716.5884
        -0.000          -0.000
    -47518.171 9    -38814.83849  20769962.784    20769961.9554   20769967.5904
        -0.000          -0.000
   -690747.248 9   -516938.17447  23137763.622    23137763.3404   23137769.3174
        -0.000          -0.000
    286586.720 9    206686.52847  22740222.713    22740222.9224   22740228.2034
        -0.000          -0.000
   -100323.203 9    -78992.37149  20705549.245    20705548.6874   20705553.9584
        -0.000          -0.000
    496126.373 9    371121.06347  22404005.333    22404005.0904   22404011.7334
        -0.000          -0.000
    199441.472 9    146435.50146  24235310.649    24235309.1944   24235316.1924
        -0.000          -0.000
   -452712.586 9   -342345.01348  22169642.002    22169641.3774   22169647.4944
        -0.000          -0.000
 98  5  3  1 50 30.0000000  0  8  1 17  3 26 23  6 22 21            -0.000000026
   -921075.620 8   -697297.64045  24469715.838    24469714.9894   24469724.9244
        -0.000          -0.000
    -35567.274 9    -29502.45449  20772236.943    20772236.1304   20772241.7744
        -0.000          -0.000
   -780134.189 9   -586590.30747  23120753.775    23120753.5454   23120759.5424
        -0.000          -0.000
    355303.121 9    260231.77047  22753299.107    22753299.2784   22753304.5244
        -0.000          -0.000
    -96931.125 9    -76349.19049  20706194.782    20706194.2004   20706199.4564
        -0.000          -0.000
    594352.268 9    447660.65447  22422697.169    22422696.8604   22422703.5504
        -0.000          -0.000
    251948.886 9    187350.30446  24245302.382    24245300.9884   24245308.1794
        -0.000          -0.000
   -506976.217 9   -384628.33348  22159315.954    22159315.3554   22159321.4634
        -0.000          -0.000
 98  5  3  1 51  0.0000000  0  8  1 17  3 26 23  6 22 21            -0.000000042
  -1031357.824 8   -783231.60045  24448729.610    24448728.8584   24448738.6214
        -0.000          -0.000
    -23355.698 9    -19986.94249  20774560.757    20774559.9414   20774565.5674
        -0.000          -0.000
   -869228.007 9   -656014.03947  23103799.790    23103799.5534   23103805.5104
        -0.000          -0.000
    424489.241 9    314143.03247  22766464.915    22766464.9944   22766470.2544
        -0.000          -0.000
    -93203.622 9    -73444.64449  20706904.122    20706903.5194   20706908.7884
        -0.000          -0.000
    692877.656 9    524433.58147  22441445.954    22441445.7004   22441452.3844
        -0.000          -0.000
    304703.299 9    228457.56246  24255340.980    24255339.7484   24255347.0374
        -0.000          -0.000
   -560992.924 9   -426719.25348  22149036.870    22149036.3014   22149042.4094
        -0.000          -0.000
 98  5  3  1 51 30.0000000  0  8  1 17  3 26 23  6 22 21            -0.000000047
  -1141560.283 8   -869103.41045  24427758.441    24427757.9754   24427767.7824
        -0.000          -0.000
    -10871.255 9    -10258.80349  20776936.465    20776935.6474   20776941.2494
        -0.000          -0.000
   -958006.970 9   -725192.42247  23086905.750    23086905.4584   23086911.4354
        -0.000          -0.000
    494160.305 9    368432.16947  22779722.891    22779722.9364   22779728.2214
        -0.000          -0.000
    -89102.425 9    -70248.90249  20707684.561    20707683.9694   20707689.2174
        -0.000          -0.000
    791712.169 9    601447.39547  22460253.574    22460253.3004   22460260.0144
        -0.000          -0.000
    357718.785 9    269768.25646  24265429.589    24265428.4334   24265435.6564
        -0.000          -0.000
   -614744.827 9   -468603.82148  22138808.199    22138807.6524   22138813.7614
        -0.000          -0.000
 98  5  3  1 52  0.0000000  0  8  1 17  3 26 23  6 22 21            -0.000000042
  -1251689.804 8   -954918.41345  24406801.426    24406800.8844   24406810.6034
        -0.000          -0.000
      1871.805 9      -329.14449  20779361.435    20779360.5884   20779366.1884
        -0.000          -0.000
  -1046468.540 9   -794123.49147  23070072.083    23070071.7824   23070077.7344
        -0.000          -0.000
    564313.201 9    423096.76347  22793072.567    22793072.6544   22793077.9514
        -0.000          -0.000
    -84630.397 9    -66764.20749  20708535.602    20708534.9994   20708540.2374
        -0.000          -0.000
    890847.716 9    678695.78247  22479118.522    22479118.2204   22479124.9864
        -0.000          -0.000
    411002.345 9    311287.85646  24275569.167    24275568.0544   24275575.3684
        -0.000          -0.000
   -668217.650 9   -510270.93148  22128632.648    22128632.0874   22128638.2044
        -0.000          -0.000
 98  5  3  1 52 30.0000000  0  8  1 17  3 26 23  6 22 21            -0.000000028
  -1361769.748 8  -1040694.78745  24385853.881    24385853.3154   24385862.9064
        -0.000          -0.000
     14850.380 9      9784.02949  20781831.180    20781830.3584   20781835.9364
        -0.000          -0.000
  -1134614.788 9   -862808.85847  23053298.456    23053298.1544   23053303.9924
        -0.000          -0.000
    634935.947 9    478127.47047  22806511.660    22806511.6604   22806516.9674
        -0.000          -0.000
    -79818.576 9    -63014.73449  20709451.307    20709450.6864   20709455.9194
        -0.000          -0.000
    990279.926 9    756175.36747  22498039.915    22498039.5524   22498046.3804
        -0.000          -0.000
    464548.671 9    353012.21746  24285758.763    24285757.6704   24285764.7904
        -0.000          -0.000
   -721420.747 9   -551727.85348  22118508.456    22118507.8964   22118513.9794
        -0.000          -0.000
 98  5  3  1 53  0.0000000  0  8  1 17  3 26 23  6 22 21            -0.000000013
  -1471828.796 8  -1126454.83645  24364910.197    24364909.5744   24364919.4394
        -0.000          -0.000
     28045.406 9     20065.87049  20784342.129    20784341.2904   20784346.8564
        -0.000          -0.000
  -1222458.127 9   -931258.17847  23036582.434    23036582.0764   23036587.9244
        -0.000          -0.000
    706018.907 9    533516.79047  22820038.175    22820038.2164   22820043.6274
        -0.000          -0.000
    -74698.724 9    -59025.24049  20710425.625    20710424.9614   20710430.1954
        -0.000          -0.000
   1089985.575 9    833868.02547  22517013.309    22517012.9464   22517019.8594
        -0.000          -0.000
    518354.570 9    394938.81646  24295997.583    24295996.5224   24296003.8204
        -0.000          -0.000
   -774359.975 9   -592979.18148  22108434.499    22108433.9304   22108439.9784
        -0.000          -0.000
 98  5  3  1 53 30.0000000  0  8  1 17  3 26 23  6 22 21             0.000000017
  -1581888.259 9  -1212215.24845  24343966.483    24343965.7744   24343975.6374
        -0.000          -0.000
     41482.002 9     30535.94549  20786899.046    20786898.2004   20786903.7824
        -0.000          -0.000
  -1309982.910 9   -999459.28647  23019927.032    23019926.6274   23019932.4724
        -0.000          -0.000
    777566.855 9    589268.43447  22833653.240    22833653.2514   22833658.6684
        -0.000          -0.000
    -69295.090 9    -54814.61549  20711453.929    20711453.2594   20711458.5114
        -0.000          -0.000
   1189975.622 9    911782.25747  22536040.794    22536040.4544   22536047.4024
        -0.000          -0.000
    572431.016 9    437076.24046  24306287.883    24306287.0074   24306294.1854
        -0.000          -0.000
   -827038.088 9   -634027.04048  22098410.218    22098409.6094   22098415.6574
        -0.000          -0.000
 98  5  3  1 54  0.0000000  0  8  1 17  3 26 23  6 22 21             0.000000042
  -1691993.817 8  -1298011.59345  24323014.105    24323013.2794   24323022.9494
        -0.000          -0.000
     55144.969 9     41182.41349  20789499.016    20789498.2104   20789503.7924
        -0.000          -0.000
  -1397202.991 9  -1067422.95447  23003329.655    23003329.2364   23003335.0014
        -0.000          -0.000
    849544.694 9    645355.07147  22847350.199    22847350.1694   22847355.6384
        -0.000          -0.000
    -63654.488 9    -50419.33849  20712527.309    20712526.6264   20712531.8894
        -0.000          -0.000
   1290227.739 9    989900.67447  22555118.234    22555117.8264   22555124.8154
        -0.000          -0.000
    626742.174 9    479396.54246  24316622.942    24316622.1224   24316629.4744
        -0.000          -0.000
   -879486.637 9   -674896.00948  22088429.591    22088428.9894   22088435.0074
        -0.000          -0.000
 98  5  3  1 54 30.0000000  0  8  1 17  3 26 23  6 22 21             0.000000056
  -1802136.655 8  -1383837.01245  24302054.693    24302053.8184   24302063.2564
        -0.000          -0.000
     69040.363 9     52009.99849  20792143.236    20792142.4194   20792148.0194
        -0.000          -0.000
  -1484121.109 9  -1135151.33347  22986789.747    22986789.2674   22986795.0414
        -0.000          -0.000
    921934.078 9    701762.38447  22861125.429    22861125.4314   22861130.9234
        -0.000          -0.000
    -57777.194 9    -45839.62449  20713645.696    20713645.0424   20713650.2894
        -0.000          -0.000
   1390727.410 9   1068212.01247  22574242.656    22574242.3774   22574249.3644
        -0.000          -0.000
    681271.247 9    521886.64346  24326999.745    24326998.8094   24327006.0394
        -0.000          -0.000
   -931719.122 9   -715596.62048  22078490.110    22078489.5204   22078495.5024
        -0.000          -0.000
 98  5  3  1 55  0.0000000  0  8  1 17  3 26 23  6 22 21             0.000000061
  -1912289.938 9  -1469670.55045  24281093.110    24281092.1704   24281101.5314
        -0.000          -0.000
     83189.452 9     63035.26649  20794835.725    20794834.9354   20794840.5174
        -0.000          -0.000
  -1570720.124 9  -1202631.04247  22970310.424    22970310.0454   22970315.8234
        -0.000          -0.000
    994745.094 9    758498.24947  22874980.960    22874980.8314   22874986.3834
        -0.000          -0.000
    -51624.500 9    -41045.31449  20714816.517    20714815.8714   20714821.1074
        -0.000          -0.000
   1491480.085 9   1146720.49547  22593415.278    22593415.0444   22593422.0824
        -0.000          -0.000
    736026.446 9    564552.96846  24337419.464    24337418.6554   24337425.5884
        -0.000          -0.000
   -983731.627 9   -756125.83348  22068592.427    22068591.8124   22068597.8104
        -0.000          -0.000
 98  5  3  1 55 30.0000000  0  8  1 17  3 26 23  6 22 21             0.000000056
  -2022432.523 9  -1555495.75745  24260133.439    24260132.6604   24260141.8994
        -0.000          -0.000
     97600.723 9     74264.83549  20797578.141    20797577.3174   20797582.8974
        -0.000          -0.000
  -1657001.973 9  -1269863.61647  22953891.459    22953891.1124   22953896.8474
        -0.000          -0.000
   1067972.978 9    815558.95647  22888915.801    22888915.6734   22888921.2184
        -0.000          -0.000
    -45183.789 9    -36026.57549  20716042.162    20716041.5334   20716046.7804
        -0.000          -0.000
   1592487.540 9   1225427.51947  22612636.457    22612636.1874   22612643.2594
        -0.000          -0.000
    791000.172 9    607389.55446  24347880.633    24347879.8044   24347886.9044
        -0.000          -0.000
  -1035528.708 9   -796487.16648  22058735.726    22058735.1654   22058741.1614
        -0.000          -0.000
 98  5  3  1 56  0.0000000  0  8  1 17  3 26 23  6 22 21             0.000000053
  -2132520.231 9  -1641278.21145  24239184.313    24239183.5734   24239192.7994
        -0.000          -0.000
    112265.086 9     85691.62049  20800368.700    20800367.8754   20800373.4264
        -0.000          -0.000
  -1742954.472 9  -1336839.55347  22937535.189    22937534.8054   22937540.6314
        -0.000          -0.000
   1141628.838 9    872953.14547  22902932.065    22902931.9604   22902937.4564
        -0.000          -0.000
    -38437.563 9    -30769.77249  20717325.946    20717325.3144   20717330.5544
        -0.000          -0.000
   1693748.546 9   1304332.13547  22631905.862    22631905.6284   22631912.6664
        -0.000          -0.000
    846205.990 9    650406.99546  24358385.975    24358385.1314   24358392.3784
        -0.000          -0.000
  -1087090.446 9   -836665.12048  22048923.832    22048923.2584   22048929.2814
        -0.000          -0.000
 98  5  3  1 56 30.0000000  0  8  1 17  3 26 23  6 22 21             0.000000071
  -2242525.776 9  -1726996.65045  24218250.695    24218249.9154   24218259.2484
        -0.000          -0.000
    127208.263 9     97335.65849  20803212.282    20803211.4664   20803217.0114
        -0.000          -0.000
  -1828562.366 9  -1403546.98147  22921244.501    22921244.1234   22921249.9214
        -0.000          -0.000
   1215747.107 9    930707.63647  22917036.215    22917036.1464   22917041.6234
        -0.000          -0.000
    -31358.591 9    -25253.68649  20718673.052    20718672.4124   20718677.6404
        -0.000          -0.000
   1795282.496 9   1383449.42847  22651227.181    22651226.9924   22651234.0324
        -0.000          -0.000
    901683.360 9    693636.03546  24368943.093    24368942.2024   24368949.4244
        -0.000          -0.000
  -1138386.503 9   -876636.04148  22039162.512    22039161.9464   22039167.9424
        -0.000          -0.000
 98  5  3  1 57  0.0000000  0  8  1 17  3 26 23  6 22 21             0.000000077
  -2352503.562 9  -1812693.45845  24197322.499    24197321.6634   24197331.1134
        -0.000          -0.000
    142378.947 9    109156.97649  20806099.158    20806098.3484   20806103.8984
        -0.000          -0.000
  -1913887.192 9  -1470033.81647  22905007.662    22905007.3544   22905013.1144
        -0.000          -0.000
   1290280.638 9    988785.72347  22931219.600    22931219.5084   22931224.8524
        -0.000          -0.000
    -24006.939 9    -19525.12149  20720072.041    20720071.3734   20720076.6174
        -0.000          -0.000
   1897039.485 9   1462740.49247  22670590.998    22670590.8274   22670597.7664
        -0.000          -0.000
    957373.701 9    737031.02246  24379540.657    24379539.8054   24379546.8494
        -0.000          -0.000
  -1189467.067 9   -916439.02048  22029442.191    22029441.6354   22029447.6154
        -0.000          -0.000
 98  5  3  1 57 30.0000000  0  8  1 17  3 26 23  6 22 21             0.000000082
  -2462439.261 9  -1898357.47445  24176402.295    24176401.5764   24176410.8734
        -0.000          -0.000
    157802.593 9    121175.40849  20809034.208    20809033.3564   20809038.9114
        -0.000          -0.000
  -1998914.016 9  -1536288.45547  22888827.551    22888827.2954   22888833.0104
        -0.000          -0.000
   1365246.653 9   1047200.79847  22945485.290    22945485.2114   22945490.4534
        -0.000          -0.000
    -16376.655 9    -13579.44249  20721524.034    20721523.3984   20721528.6454
        -0.000          -0.000
   1999035.019 9   1542217.45247  22690000.277    22690000.0404   22690006.9614
        -0.000          -0.000
   1013298.277 9    780608.53046  24390182.986    24390181.9694   24390188.9424
        -0.000          -0.000
  -1240301.455 9   -956050.20848  22019768.744    22019768.1424   22019774.1614
        -0.000          -0.000
 98  5  3  1 58  0.0000000  0  8  1 17  3 26 23  6 22 21             0.000000091
  -2572333.613 9  -1983989.27945  24155489.855    24155489.3034   24155498.5984
        -0.000          -0.000
    173483.311 9    133394.15549  20812018.117    20812017.2904   20812022.8804
        -0.000          -0.000
  -2083629.736 9  -1602300.67847  22872706.817    22872706.4654   22872712.1594
        -0.000          -0.000
   1440651.221 9   1105957.61347  22959834.279    22959834.1974   22959839.3924
        -0.000          -0.000
     -8463.388 9     -7413.25249  20723029.893    20723029.2654   20723034.5194
        -0.000          -0.000
   2101279.233 9   1621888.19847  22709456.743    22709456.5204   22709463.4694
        -0.000          -0.000
   1069461.642 9    824372.10646  24400870.429    24400869.5604   24400876.6734
        -0.000          -0.000
  -1290880.964 9   -995462.78848  22010143.732    22010143.1654   22010149.1934
        -0.000          -0.000
 98  5  3  1 58 30.0000000  0  8  1 17  3 26 23  6 22 21             0.000000097
  -2682202.883 9  -2069601.56445  24134582.467    24134581.7974   24134590.9384
        -0.000          -0.000
    189442.332 9    145829.76149  20815054.998    20815054.1684   20815059.7894
        -0.000          -0.000
  -2168035.592 9  -1668071.44047  22856644.871    22856644.5344   22856650.2754
        -0.000          -0.000
   1516494.778 9   1165056.48747  22974266.822    22974266.7964   22974271.9854
        -0.000          -0.000
      -262.239 9     -1022.74049  20724590.538    20724589.8854   20724595.1384
        -0.000          -0.000
   2203786.883 9   1701764.23247  22728963.420    22728963.1664   22728970.1634
        -0.000          -0.000
   1125860.442 9    868319.15646  24411602.875    24411601.8304   24411609.0824
        -0.000          -0.000
  -1341200.867 9  -1034673.08848  22000568.156    22000567.5944   22000573.6214
        -0.000          -0.000
 98  5  3  1 59  0.0000000  0  8  1 17  3 26 23  6 22 21             0.000000097
  -2792033.133 9  -2155183.42545  24113682.468    24113681.6764   24113690.8394
        -0.000          -0.000
    205682.182 9    158484.19749  20818145.330    20818144.4894   20818150.1604
        -0.000          -0.000
  -2252114.487 9  -1733587.43447  22840645.193    22840644.8114   22840650.6034
        -0.000          -0.000
   1592761.803 9   1224485.34247  22988779.960    22988779.8994   22988785.1344
        -0.000          -0.000
      8234.479 9      5598.09049  20726207.403    20726206.7464   20726212.0244
        -0.000          -0.000
   2306571.468 9   1781856.05347  22748522.775    22748522.5454   22748529.4824
        -0.000          -0.000
   1182478.163 9    912436.78645  24422377.017    24422375.9814   24422383.2454
        -0.000          -0.000
  -1391260.312 9  -1073680.42248  21991042.075    21991041.5294   21991047.6114
        -0.000          -0.000
 98  5  3  1 59 30.0000000  0  8  1 17  3 26 23  6 22 21             0.000000092
  -2901832.965 9  -2240741.59245  24092788.082    24092787.3204   24092796.5804
        -0.000          -0.000
    222190.674 9    171347.96549  20821286.801    20821285.9844   20821291.6364
        -0.000          -0.000
  -2335848.419 9  -1798834.61547  22824711.079    22824710.6724   22824716.5064
        -0.000          -0.000
   1669443.270 9   1284237.14347  23003372.007    23003371.9174   23003377.1634
        -0.000          -0.000
     17021.139 9     12444.84149  20727879.415    20727878.7784   20727884.0814
        -0.000          -0.000
   2409634.069 9   1862164.50647  22768135.124    22768134.7984   22768141.7114
        -0.000          -0.000
   1239318.256 9    956727.68645  24433193.253    24433192.2234   24433199.6384
        -0.000          -0.000
  -1441061.781 9  -1112486.74248  21981565.140    21981564.5804   21981570.6774
        -0.000          -0.000
 98  5  3  2  0  0.0000000  0  8  1 17  3 26 23  6 22 21             0.000000080
  -3011593.592 9  -2326269.20445  24071901.177    24071900.4604   24071909.7364
        -0.000          -0.000
    238954.245 9    184410.50049  20824476.788    20824475.9854   20824481.6444
        -0.000          -0.000
  -2419227.427 9  -1863805.23447  22808844.609    22808844.1464   22808849.9774
        -0.000          -0.000
   1746528.410 9   1344303.48847  23018040.819    23018040.7824   23018045.9784
        -0.000          -0.000
     26100.344 9     19519.55549  20729607.111    20729606.4924   20729611.7934
        -0.000          -0.000
   2512971.430 9   1942687.05947  22787799.592    22787799.2854   22787806.2004
        -0.000          -0.000
   1296370.277 9   1001183.72545  24444049.744    24444048.8474   24444056.3854
        -0.000          -0.000
  -1490602.640 9  -1151089.97748  21972137.879    21972137.2964   21972143.3594
        -0.000          -0.000
 98  5  3  2  0 30.0000000  0  8  1 17  3 26 23  6 22 21             0.000000072
  -3121293.791 8  -2411749.73245  24051025.735    24051025.0714   24051034.3224
        -0.000          -0.000
    255993.853 9    197688.12049  20827719.335    20827718.5314   20827724.1824
        -0.000          -0.000
  -2502228.036 9  -1928480.99947  22793050.115    22793049.6304   22793055.4514
        -0.000          -0.000
   1824023.426 9   1404689.21947  23032787.605    23032787.5334   23032792.7034
        -0.000          -0.000
     35483.058 9     26830.76749  20731392.582    20731391.9764   20731397.2764
        -0.000          -0.000
   2616583.134 9   2023423.34647  22807516.305    22807516.0354   22807522.9224
        -0.000          -0.000
   1353647.336 9   1045815.10145  24454949.277    24454948.3914   24454955.9794
        -0.000          -0.000
  -1539872.188 9  -1189481.80548  21962762.200    21962761.5964   21962767.6664
        -0.000          -0.000
 98  5  3  2  1  0.0000000  0  8  1 17  3 26 23  6 22 21             0.000000065
  -3230933.095 9  -2497182.81645  24030161.916    24030161.2864   24030170.4644
        -0.000          -0.000
    273287.640 9    211163.80749  20831010.211    20831009.4024   20831015.0384
        -0.000          -0.000
  -2584846.788 9  -1992859.21447  22777328.341    22777327.8444   22777333.6544
        -0.000          -0.000
   1901923.352 9   1465390.43546  23047611.393    23047611.3904   23047616.5624
        -0.000          -0.000
     45157.837 9     34369.56249  20733233.684    20733233.0324   20733238.3544
        -0.000          -0.000
   2720434.842 9   2104346.66947  22827278.682    22827278.4344   22827285.3064
        -0.000          -0.000
   1411129.012 9   1090605.95245  24465887.882    24465886.9294   24465894.3324
        -0.000          -0.000
  -1588891.915 9  -1227678.96548  21953434.025    21953433.4444   21953439.4954
        -0.000          -0.000
 98  5  3  2  1 30.0000000  0  8  1 17  3 26 23  6 22 21             0.000000056
  -3340524.126 9  -2582578.30845  24009307.368    24009306.7834   24009315.7754
        -0.000          -0.000
    290820.086 9    224825.45949  20834346.485    20834345.6934   20834351.3394
        -0.000          -0.000
  -2667101.812 9  -2056953.98647  22761675.678    22761675.2304   22761681.0154
        -0.000          -0.000
   1980224.173 9   1526404.07646  23062511.599    23062511.6154   23062516.5434
        -0.000          -0.000
     55111.842 9     42125.93749  20735127.874    20735127.2404   20735132.5524
        -0.000          -0.000
   2824496.703 9   2185433.74647  22847081.113    22847080.8554   22847087.7004
        -0.000          -0.000
   1468806.954 9   1135549.71145  24476863.753    24476862.8204   24476870.1634
        -0.000          -0.000
  -1637679.680 9  -1265695.37548  21944150.052    21944149.4624   21944155.4864
        -0.000          -0.000
 98  5  3  2  2  0.0000000  0  8  1 17  3 26 23  6 22 21             0.000000052
  -3450035.734 9  -2667911.91345  23988467.867    23988467.2694   23988476.2064
        -0.000          -0.000
    308627.129 9    238701.08249  20837735.048    20837734.2574   20837739.9054
        -0.000          -0.000
  -2748977.943 9  -2120753.54847  22746095.063    22746094.7064   22746100.5174
        -0.000          -0.000
   2058948.750 9   1587747.89146  23077492.436    23077492.3844   23077497.4084
        -0.000          -0.000
     65373.601 9     50122.11849  20737080.676    20737080.0284   20737085.3304
        -0.000          -0.000
   2928790.661 9   2266701.69247  22866927.677    22866927.3754   22866934.2374
        -0.000          -0.000
   1526692.538 9   1180655.28245  24487879.073    24487878.2344   24487885.3424
        -0.000          -0.000
  -1686206.960 9  -1303508.81648  21934915.591    21934915.0044   21934920.9864
        -0.000          -0.000
 98  5  3  2  2 30.0000000  0  8  1 17  3 26 23  6 22 21             0.000000043
  -3559485.093 9  -2753197.01645  23967640.215    23967639.6484   23967648.5614
        -0.000          -0.000
    326702.631 9    252785.89649  20841174.706    20841173.9254   20841179.5704
        -0.000          -0.000
  -2830495.568 9  -2184273.73847  22730582.791    22730582.3954   22730588.1984
        -0.000          -0.000
   2138081.010 9   1649409.39346  23092550.782    23092550.7204   23092555.7424
        -0.000          -0.000
     75923.312 9     58342.67849  20739088.234    20739087.5784   20739092.8604
        -0.000          -0.000
   3033296.984 9   2348135.11746  22886814.640    22886814.3274   22886821.2194
        -0.000          -0.000
   1584764.318 9   1225905.90145  24498929.716    24498928.8244   24498936.2764
        -0.000          -0.000
  -1734491.694 9  -1341133.26148  21925727.269    21925726.7054   21925732.6544
        -0.000          -0.000
 98  5  3  2  3  0.0000000  0  8  1 17  3 26 23  6 22 21             0.000000023
  -3668868.316 9  -2838430.58946  23946825.187    23946824.5384   23946833.5344
        -0.000          -0.000
    345044.787 9    267078.49349  20844665.159    20844664.3294   20844669.9514
        -0.000          -0.000
  -2911662.951 9  -2247521.02247  22715137.111    22715136.6884   22715142.5074
        -0.000          -0.000
   2217624.177 9   1711391.07046  23107687.273    23107687.2214   23107692.3774
        -0.000          -0.000
     86769.864 9     66794.54449  20741152.250    20741151.6104   20741156.8694
        -0.000          -0.000
   3138027.688 9   2429743.37646  22906744.320    22906744.0214   22906750.8694
        -0.000          -0.000
   1643021.299 9   1271300.87745  24510015.809    24510014.8794   24510022.3574
        -0.000          -0.000
  -1782513.995 9  -1378553.20448  21916589.018    21916588.4114   21916594.3144
        -0.000          -0.000
 98  5  3  2  3 30.0000000  0  8  1 17  3 26 23  6 22 21             0.000000006
  -3778148.774 9  -2923584.09646  23926029.769    23926029.0044   23926037.9524
        -0.000          -0.000
    363681.031 9    281600.25249  20848211.517    20848210.6944   20848216.3274
        -0.000          -0.000
  -2992461.839 9  -2310481.14347  22699761.529    22699761.1434   22699766.9954
        -0.000          -0.000
   2297592.096 9   1773703.73646  23122904.689    23122904.6364   23122909.7874
        -0.000          -0.000
     97935.112 9     75494.74949  20743276.962    20743276.3194   20743281.5634
        -0.000          -0.000
   3243019.121 9   2511554.75746  22926723.533    22926723.2504   22926730.0924
        -0.000          -0.000
   1701493.194 9   1316863.31645  24521142.967    24521141.8964   24521149.3134
        -0.000          -0.000
  -1830234.299 9  -1415737.82648  21907508.067    21907507.4684   21907513.3804
        -0.000          -0.000
 98  5  3  2  4  0.0000000  0  8  1 17  3 26 23  6 22 21            -0.000000016
  -3887329.729 9  -3008660.06746  23905253.200    23905252.4994   23905261.4644
        -0.000          -0.000
    382589.873 9    296334.42649  20851809.766    20851808.9434   20851814.5734
        -0.000          -0.000
  -3072906.871 9  -2373165.55347  22684453.331    22684452.9204   22684458.7474
        -0.000          -0.000
   2377967.217 9   1836333.69746  23138199.447    23138199.4684   23138204.7444
        -0.000          -0.000
    109394.580 9     84424.21549  20745457.636    20745456.9794   20745462.2154
        -0.000          -0.000
   3348242.940 9   2593547.22546  22946746.997    22946746.7084   22946753.6614
        -0.000          -0.000
   1760158.917 9   1362576.77245  24532306.645    24532305.7174   24532313.0734
        -0.000          -0.000
  -1877667.170 9  -1452698.48048  21898481.842    21898481.2674   21898487.1934
        -0.000          -0.000
 98  5  3  2  4 30.0000000  0  8  1 17  3 26 23  6 22 21            -0.000000037
  -3996420.021 9  -3093665.39046  23884493.841    23884493.2304   23884502.1544
        -0.000          -0.000
    401745.078 9    311260.56849  20855454.878    20855454.0604   20855459.6894
        -0.000          -0.000
  -3153007.866 9  -2435581.86547  22669210.523    22669210.1624   22669216.0544
        -0.000          -0.000
   2458750.902 9   1899282.01346  23153572.171    23153572.1864   23153577.3954
        -0.000          -0.000
    121128.557 9     93567.58349  20747690.515    20747689.8434   20747695.0624
        -0.000          -0.000
   3453676.200 9   2675702.90946  22966810.441    22966810.0684   22966817.0294
        -0.000          -0.000
   1819018.369 9   1408441.19645  24543507.519    24543506.4444   24543513.5544
        -0.000          -0.000
  -1924832.876 9  -1489450.94148  21889506.471    21889505.9014   21889511.8284
        -0.000          -0.000
 98  5  3  2  5  0.0000000  0  8  1 17  3 26 23  6 22 21            -0.000000035
  -4105400.243 9  -3178584.95446  23863755.466    23863754.8664   23863763.7654
        -0.000          -0.000
    421160.604 9    326389.55349  20859149.522    20859148.7024   20859154.3644
        -0.000          -0.000
  -3232738.311 9  -2497709.45647  22654038.326    22654037.9364   22654043.8314
        -0.000          -0.000
   2539962.472 9   1962563.75246  23169026.254    23169026.2874   23169031.4754
        -0.000          -0.000
    133146.962 9    102932.58349  20749977.535    20749976.8904   20749982.1104
        -0.000          -0.000
   3559343.468 9   2758040.89946  22986918.128    22986917.9184   22986924.9274
        -0.000          -0.000
   1878095.813 9   1454475.48245  24554749.633    24554748.4514   24554755.7094
        -0.000          -0.000
  -1971725.933 9  -1525990.96048  21880583.006    21880582.4284   21880588.3854
        -0.000          -0.000
 98  5  3  2  5 30.0000000  0  8  1 17  3 26 23  6 22 21            -0.000000022
  -4214297.532 9  -3263439.89846  23843032.975    23843032.3634   23843041.2264
        -0.000          -0.000
    440814.433 9    341704.23349  20862889.511    20862888.7134   20862894.3814
        -0.000          -0.000
  -3312116.635 9  -2559562.64947  22638933.087    22638932.6934   22638938.5934
        -0.000          -0.000
   2621566.493 9   2026151.29646  23184554.937    23184554.9174   23184560.1774
        -0.000          -0.000
    145406.101 9    112485.16549  20752310.353    20752309.6954   20752314.9074
        -0.000          -0.000
   3665211.436 9   2840535.33446  23007064.248    23007063.9914   23007071.0614
        -0.000          -0.000
   1937363.587 9   1500658.07345  24566027.972    24566026.8234   24566034.2424
        -0.000          -0.000
  -2018392.475 9  -1562354.47848  21871702.674    21871702.0764   21871708.0234
        -0.000          -0.000
 98  5  3  2  6  0.0000000  0  8  1 17  3 26 23  6 22 21            -0.000000000
  -4323126.766 9  -3348241.82446  23822323.291    23822322.7794   23822331.6644
        -0.000          -0.000
    460720.149 9    357215.18249  20866677.423    20866676.6204   20866682.3064
        -0.000          -0.000
  -3391137.680 9  -2621137.45347  22623895.807    22623895.4134   22623901.3324
        -0.000          -0.000
   2703561.995 9   2090043.90046  23200158.286    23200158.2654   23200163.5064
        -0.000          -0.000
    157906.755 9    122225.94249  20754689.133    20754688.4684   20754693.6694
        -0.000          -0.000
   3771280.660 9   2923186.55546  23027248.718    23027248.3284   23027255.4524
        -0.000          -0.000
   1996817.124 8   1546985.42145  24577341.657    24577340.4914   24577348.1274
        -0.000          -0.000
  -2064834.648 9  -1598543.15748  21862865.034    21862864.4044   21862870.3134
        -0.000          -0.000
 98  5  3  2  6 30.0000000  0  8  1 17  3 26 23  6 22 21             0.000000003
  -4431940.930 9  -3433031.98746  23801616.606    23801616.0844   23801624.8974
        -0.000          -0.000
    480863.258 9    372911.11149  20870510.555    20870509.7274   20870515.4444
        -0.000          -0.000
  -3469831.135 9  -2682457.01347  22608920.965    22608920.5504   22608926.4764
        -0.000          -0.000
   2785904.054 9   2154206.53746  23215827.434    23215827.3674   23215832.6634
        -0.000          -0.000
    170619.125 9    132131.69049  20757108.176    20757107.5334   20757112.7374
        -0.000          -0.000
   3877536.599 9   3005983.29046  23047468.568    23047468.3294   23047475.3704
        -0.000          -0.000
   2056419.517 9   1593428.73545  24588683.606    24588682.5194   24588690.1694
        -0.000          -0.000
  -2111097.593 9  -1634592.18648  21854061.458    21854060.8684   21854066.7714
        -0.000          -0.000
 98  5  3  2  7  0.0000000  0  8  1 17  3 26 23  6 22 21             0.000000007
  -4540678.001 9  -3517762.08946  23780924.444    23780924.0384   23780932.8484
        -0.000          -0.000
    501319.923 9    388851.37449  20874403.293    20874402.4924   20874408.2074
        -0.000          -0.000
  -3548137.808 9  -2743475.16847  22594019.673    22594019.2264   22594025.1244
        -0.000          -0.000
   2868626.890 9   2218665.87746  23231568.863    23231568.8494   23231574.3044
        -0.000          -0.000
    183606.271 9    142251.55249  20759579.554    20759578.8834   20759584.0854
        -0.000          -0.000
   3984038.913 9   3088971.96446  23067735.359    23067735.1794   23067742.1984
        -0.000          -0.000
   2116205.971 9   1640015.50445  24600060.649    24600059.5334   24600067.1974
        -0.000          -0.000
  -2157123.343 9  -1670456.37348  21845303.042    21845302.4724   21845308.3424
        -0.000          -0.000
 98  5  3  2  7 30.0000000  0  8  1 17  3 26 23  6 22 21            -0.000000006
  -4649344.333 9  -3602437.06446  23760245.752    23760245.4744   23760254.2954
        -0.000          -0.000
    522066.230 9    405017.32949  20878351.173    20878350.3594   20878356.0814
        -0.000          -0.000
  -3626081.484 9  -2804210.46847  22579187.492    22579187.0444   22579192.8954
        -0.000          -0.000
   2951715.697 9   2283410.40746  23247380.247    23247380.1734   23247385.5884
        -0.000          -0.000
    196865.956 9    152583.78249  20762102.825    20762102.1664   20762107.3604
        -0.000          -0.000
   4090754.428 9   3172126.80046  23088042.712    23088042.4914   23088049.5644
        -0.000          -0.000
   2176151.274 8   1686726.04645  24611467.682    24611466.6274   24611474.5304
        -0.000          -0.000
  -2202914.246 9  -1706137.55848  21836589.303    21836588.7244   21836594.5844
        -0.000          -0.000
 98  5  3  2  8  0.0000000  0  8  1 17  3 26 23  6 22 21            -0.000000025
  -4757902.810 9  -3687028.00246  23739587.654    23739587.3764   23739596.2864
        -0.000          -0.000
    543120.429 9    421423.20249  20882357.676    20882356.8354   20882362.5304
        -0.000          -0.000
  -3703637.186 9  -2864643.44947  22564429.215    22564428.7114   22564434.5094
        -0.000          -0.000
   3035191.692 9   2348456.63646  23263265.353    23263265.2174   23263270.6514
        -0.000          -0.000
    210441.348 9    163162.01349  20764686.110    20764685.4674   20764690.6684
        -0.000          -0.000
   4197709.350 9   3255468.18346  23108395.620    23108395.4114   23108402.5034
        -0.000          -0.000
   2236276.094 8   1733576.45845  24622908.894    24622907.9754   24622916.0554
        -0.000          -0.000
  -2248443.170 9  -1741614.61648  21827925.411    21827924.8424   21827930.6954
        -0.000          -0.000
 98  5  3  2  8 30.0000000  0  8  1 17  3 26 23  6 22 21            -0.000000039
  -4866329.866 9  -3771516.51546  23718954.627    23718954.3504   23718963.1884
        -0.000          -0.000
    564472.616 9    438061.27549  20886420.856    20886420.0324   20886425.7004
        -0.000          -0.000
  -3780798.584 9  -2924769.18447  22549745.759    22549745.3164   22549751.1214
        -0.000          -0.000
   3119049.939 9   2413800.71246  23279222.991    23279222.9394   23279228.3644
        -0.000          -0.000
    224329.151 9    173983.68749  20767328.900    20767328.2384   20767333.4614
        -0.000          -0.000
   4304900.331 9   3338993.52046  23128793.473    23128793.2604   23128800.3994
        -0.000          -0.000
   2296589.454 9   1780573.78545  24634386.388    24634385.4004   24634393.2474
        -0.000          -0.000
  -2293715.149 9  -1776891.45448  21819310.431    21819309.8264   21819315.6534
        -0.000          -0.000
 98  5  3  2  9  0.0000000  0  8  1 17  3 26 23  6 22 21            -0.000000033
  -4974584.198 9  -3855870.43446  23698354.536    23698354.1614   23698363.0854
        -0.000          -0.000
    586125.142 9    454933.37949  20890541.190    20890540.3504   20890546.0144
        -0.000          -0.000
  -3857541.967 9  -2984569.17947  22535141.910    22535141.5164   22535147.3244
        -0.000          -0.000
   3203313.663 9   2479460.74346  23295257.874    23295257.7284   23295263.2094
        -0.000          -0.000
    238544.451 9    185060.54749  20770033.944    20770033.2954   20770038.5134
        -0.000          -0.000
   4412324.179 9   3422700.33646  23149235.605    23149235.4384   23149242.7704
        -0.000          -0.000
   2357110.841 8   1827733.20045  24645903.438    24645902.4264   24645910.1184
        -0.000          -0.000
  -2338699.248 9  -1811943.98048  21810750.212    21810749.6324   21810755.4114
        -0.000          -0.000
 98  5  3  2  9 30.0000000  0  8  1 17  3 26 23  6 22 21            -0.000000036
  -5082722.885 9  -3940134.23746  23677776.295    23677775.9074   23677784.8264
        -0.000          -0.000
    608014.338 9    471989.90649  20894706.543    20894705.7264   20894711.3734
        -0.000          -0.000
  -3933917.485 9  -3044082.53847  22520608.054    22520607.7384   22520613.4994
        -0.000          -0.000
   3287923.342 9   2545390.36646  23311358.596    23311358.5124   23311363.8474
        -0.000          -0.000
    253018.352 9    196338.91849  20772788.256    20772787.5984   20772792.8234
        -0.000          -0.000
   4519919.488 9   3506540.75646  23169710.315    23169710.2634   23169717.5064
        -0.000          -0.000
   2417797.371 8   1875021.30945  24657451.657    24657450.7624   24657458.5064
        -0.000          -0.000
  -2383453.665 9  -1846817.51748  21802233.739    21802233.1684   21802238.9204
        -0.000          -0.000
 98  5  3  2 10  0.0000000  0  8  1 17  3 26 23  6 22 21            -0.000000013
  -5190725.199 9  -4024291.75646  23657224.119    23657223.5954   23657232.5004
        -0.000          -0.000
    630189.164 9    489268.99649  20898926.259    20898925.4654   20898931.0904
        -0.000          -0.000
  -4009872.567 9  -3103268.28147  22506154.167    22506153.9044   22506159.6304
        -0.000          -0.000
   3372912.038 9   2611615.31346  23327531.465    23327531.3764   23327536.7294
        -0.000          -0.000
    267759.177 9    207825.27749  20775593.352    20775592.6864   20775597.8974
        -0.000          -0.000
   4627729.889 9   3590548.77946  23190226.087    23190225.9314   23190233.2514
        -0.000          -0.000
   2478682.315 9   1922464.02145  24669037.689    24669036.7814   24669044.7014
        -0.000          -0.000
  -2427964.184 9  -1881501.00448  21793763.660    21793763.0624   21793768.7684
        -0.000          -0.000
 98  5  3  2 10 30.0000000  0  8  1 17  3 26 23  6 22 21             0.000000019
  -5298623.026 9  -4108367.88246  23636691.747    23636691.2104   23636700.0464
        -0.000          -0.000
    652626.184 9    506752.38949  20903195.918    20903195.1194   20903200.6944
        -0.000          -0.000
  -4085425.767 9  -3162140.88347  22491776.877    22491776.5974   22491782.3074
        -0.000          -0.000
   3458262.189 9   2678121.92646  23343773.057    23343773.0014   23343778.2284
        -0.000          -0.000
    282730.018 9    219490.87249  20778442.217    20778441.5644   20778446.7634
        -0.000          -0.000
   4735709.963 9   3674688.98846  23210773.991    23210773.8954   23210781.3094
        -0.000          -0.000
   2539730.271 9   1970033.77145  24680654.846    24680653.9384   24680661.7074
        -0.000          -0.000
  -2472251.390 9  -1916010.47148  21785336.060    21785335.4664   21785341.1284
        -0.000          -0.000
 98  5  3  2 11  0.0000000  0  8  1 17  3 26 23  6 22 21             0.000000039
  -5406460.866 9  -4192397.27546  23616170.888    23616170.2764   23616179.0114
        -0.000          -0.000
    675297.657 9    524418.48049  20907510.194    20907509.3724   20907514.9264
        -0.000          -0.000
  -4160606.510 9  -3220723.24847  22477470.505    22477470.1914   22477475.9024
        -0.000          -0.000
   3543948.177 9   2744890.22946  23360078.562    23360078.5344   23360083.7214
        -0.000          -0.000
    297903.514 9    231314.38349  20781329.641    20781328.9854   20781334.1774
        -0.000          -0.000
   4843832.418 9   3758940.17746  23231349.113    23231348.9624   23231356.3714
        -0.000          -0.000
   2600893.529 8   2017693.35045  24692293.990    24692293.1714   24692300.7574
        -0.000          -0.000
  -2516343.959 9  -1950368.28948  21776945.491    21776944.9154   21776950.5724
        -0.000          -0.000
 98  5  3  2 11 30.0000000  0  8  1 17  3 26 23  6 22 21             0.000000056
  -5514225.377 9  -4276369.52046  23595663.976    23595663.2924   23595671.9534
        -0.000          -0.000
    698232.172 9    542289.53449  20911874.505    20911873.7014   20911879.2084
        -0.000          -0.000
  -4235389.809 9  -3278995.91747  22463239.678    22463239.3434   22463245.0824
        -0.000          -0.000
   3629986.089 9   2811932.74246  23376451.140    23376451.1194   23376456.1934
        -0.000          -0.000
    313301.093 9    243312.49849  20784259.676    20784259.0174   20784264.2244
        -0.000          -0.000
   4952131.221 9   3843328.77446  23251957.806    23251957.5954   23251965.0894
        -0.000          -0.000
   2662186.530 8   2065454.03045  24703957.693    24703956.8474   24703964.5624
        -0.000          -0.000
  -2560226.615 9  -1984562.54648  21768594.877    21768594.2864   21768599.9234
        -0.000          -0.000
 98  5  3  2 12  0.0000000  0  8  1 17  3 26 23  6 22 21             0.000000065
  -5621910.892 9  -4360280.20746  23575171.945    23575171.3694   23575180.0664
        -0.000          -0.000
    721429.627 9    560365.48049  20916288.833    20916288.0154   20916293.5494
        -0.000          -0.000
  -4309776.901 9  -3336959.85047  22449084.227    22449083.9224   22449089.6784
        -0.000          -0.000
   3716381.086 9   2879253.50446  23392891.590    23392891.5184   23392896.5594
        -0.000          -0.000
    328940.323 9    255498.92149  20787235.703    20787235.0474   20787240.2504
        -0.000          -0.000
   5060601.414 9   3927850.91146  23272599.119    23272598.9354   23272606.4034
        -0.000          -0.000
   2723594.562 8   2113304.36845  24715643.170    24715642.4484   24715650.0214
        -0.000          -0.000
  -2603894.790 9  -2018589.66848  21760285.036    21760284.4894   21760290.1344
        -0.000          -0.000
 98  5  3  2 12 30.0000000  0  8  1 17  3 26 23  6 22 21             0.000000068
  -5729484.216 9  -4444103.47146  23554701.329    23554700.8104   23554709.4514
        -0.000          -0.000
    744908.174 9    578660.45748  20920756.632    20920755.8124   20920761.3394
        -0.000          -0.000
  -4383762.883 9  -3394611.23147  22435005.163    22435004.8294   22435010.5944
        -0.000          -0.000
   3803143.293 9   2946860.39146  23409401.768    23409401.7694   23409406.9004
        -0.000          -0.000
    344855.481 9    267900.34949  20790264.214    20790263.5804   20790268.8234
        -0.000          -0.000
   5169260.750 9   4012520.41746  23293276.319    23293276.1204   23293283.7734
        -0.000          -0.000
   2785136.678 8   2161259.15845  24727354.240    24727353.4704   24727361.3534
        -0.000          -0.000
  -2647312.144 9  -2052421.34448  21752022.951    21752022.3784   21752028.0914
        -0.000          -0.000
 98  5  3  2 13  0.0000000  0  8  1 17  3 26 23  6 22 21             0.000000067
  -5836957.927 9  -4527849.12246  23534249.788    23534249.2284   23534257.7304
        -0.000          -0.000
    768663.880 9    597171.40448  20925277.191    20925276.4024   20925281.9244
        -0.000          -0.000
  -4457351.015 9  -3451952.61047  22421001.791    22421001.4944   22421007.2214
        -0.000          -0.000
   3890261.362 9   3014744.58246  23425979.819    23425979.8314   23425984.8714
        -0.000          -0.000
    361032.838 9    280506.08449  20793342.629    20793342.0194   20793347.2674
        -0.000          -0.000
   5278116.019 9   4097342.61046  23313990.995    23313990.6604   23313998.2664
        -0.000          -0.000
   2846810.224 8   2209316.36545  24739090.459    24739089.6754   24739097.5184
        -0.000          -0.000
  -2690487.294 9  -2086064.28548  21743806.992    21743806.4264   21743812.1494
        -0.000          -0.000
 98  5  3  2 13 30.0000000  0  8  1 17  3 26 23  6 22 21             0.000000060
  -5944318.644 9  -4611506.72446  23513819.487    23513819.0324   23513827.5884
        -0.000          -0.000
    792713.268 9    615911.19648  20929853.600    20929852.8144   20929858.3834
        -0.000          -0.000
  -4530536.912 9  -3508980.55947  22407074.955    22407074.6854   22407080.4054
        -0.000          -0.000
   3977726.873 9   3082899.52446  23442624.011    23442623.9104   23442629.0214
        -0.000          -0.000
    377472.093 9    293315.90049  20796470.896    20796470.2634   20796475.5394
        -0.000          -0.000
   5387159.594 9   4182311.53946  23334741.333    23334740.9954   23334748.7694
        -0.000          -0.000
   2908628.723 8   2257486.51645  24750854.123    24750853.2514   24750861.1764
        -0.000          -0.000
  -2733404.671 9  -2119506.35748  21735640.006    21735639.4504   21735645.1794
        -0.000          -0.000
 98  5  3  2 14  0.0000000  0  8  1 17  3 26 23  6 22 21             0.000000061
  -6051542.604 9  -4695057.76146  23493415.461    23493414.9274   23493423.4364
        -0.000          -0.000
    817080.014 9    634898.27648  20934490.457    20934489.6344   20934495.2244
        -0.000          -0.000
  -4603300.565 9  -3565679.48247  22393228.535    22393228.2214   22393233.9384
        -0.000          -0.000
   4065556.320 9   3151338.03546  23459337.279    23459337.2294   23459342.4024
        -0.000          -0.000
    394183.350 9    306337.66549  20799650.933    20799650.3224   20799655.5874
        -0.000          -0.000
   5496402.291 9   4267435.63246  23355529.568    23355529.2834   23355536.9804
        -0.000          -0.000
   2970614.638 8   2305787.14345  24762649.894    24762649.0254   24762656.7904
        -0.000          -0.000
  -2776039.209 9  -2152728.05048  21727526.877    21727526.3174   21727532.0694
        -0.000          -0.000
 98  5  3  2 14 30.0000000  0  8  1 17  3 26 23  6 22 21             0.000000063
  -6158651.639 9  -4778519.22546  23473033.137    23473032.6584   23473041.2374
        -0.000          -0.000
    841736.177 9    654110.87548  20939182.366    20939181.5664   20939187.1504
        -0.000          -0.000
  -4675654.332 9  -3622059.00947  22379460.072    22379459.7434   22379465.4584
        -0.000          -0.000
   4153719.975 9   3220036.98546  23476114.378    23476114.2154   23476119.4074
        -0.000          -0.000
    411128.603 9    319541.77049  20802875.503    20802874.8994   20802880.1634
        -0.000          -0.000
   5605825.514 9   4352700.38246  23376352.185    23376351.8874   23376359.6114
        -0.000          -0.000
   3032750.413 8   2354204.49145  24774474.035    24774473.1194   24774481.3144
        -0.000          -0.000
  -2818417.187 9  -2185749.81748  21719462.548    21719462.0004   21719467.7674
        -0.000          -0.000
 98  5  3  2 15  0.0000000  0  8  1 17  3 26 23  6 22 21             0.000000062
  -6265646.767 9  -4861891.94646  23452672.746    23452672.1644   23452680.6334
        -0.000          -0.000
    866682.618 9    673549.65548  20943929.529    20943928.7204   20943934.2434
        -0.000          -0.000
  -4747581.002 9  -3678105.74147  22365772.843    22365772.5184   22365778.2104
        -0.000          -0.000
   4242209.819 9   3288990.05946  23492953.277    23492953.2174   23492958.5024
        -0.000          -0.000
    428313.735 9    332932.78949  20806145.697    20806145.0864   20806150.3614
        -0.000          -0.000
   5715417.821 9   4438096.89246  23397206.962    23397206.7604   23397214.5174
        -0.000          -0.000
   3095032.407 8   2402735.84745  24786326.054    24786325.1944   24786333.1154
        -0.000          -0.000
  -2860542.378 9  -2218574.61148  21711446.396    21711445.8294   21711451.5974
        -0.000          -0.000
 98  5  3  2 15 30.0000000  0  8  1 17  3 26 23  6 22 21             0.000000063
  -6372504.355 9  -4945157.47346  23432338.294    23432337.7804   23432346.2244
        -0.000          -0.000
    891917.092 9    693212.89048  20948731.480    20948730.6564   20948736.1934
        -0.000          -0.000
  -4819073.807 9  -3733814.39647  22352168.182    22352167.8264   22352173.5354
        -0.000          -0.000
   4331031.121 9   3358201.46246  23509855.405    23509855.3464   23509860.5264
        -0.000          -0.000
    445750.325 9    346519.75349  20809463.747    20809463.1584   20809468.4384
        -0.000          -0.000
   5825168.798 9   4523617.04746  23418091.927    23418091.7924   23418099.4624
        -0.000          -0.000
   3157458.399 8   2451379.33245  24798205.376    24798204.3304   24798212.6144
        -0.000          -0.000
  -2902418.748 9  -2251205.52548  21703477.515    21703476.9764   21703482.7594
        -0.000          -0.000
 98  5  3  2 16  0.0000000  0  8  1 17  3 26 23  6 22 21             0.000000076
  -6479218.624 9  -5028311.32446  23412031.131    23412030.6394   23412039.0644
        -0.000          -0.000
    917427.005 9    713090.74848  20953585.844    20953585.0254   20953590.5664
        -0.000          -0.000
  -4890117.827 9  -3789173.34047  22338648.947    22338648.5754   22338654.2834
        -0.000          -0.000
   4420199.334 9   3427683.14146  23526823.637    23526823.5694   23526828.8474
        -0.000          -0.000
    463444.604 9    360307.51049  20812830.851    20812830.2474   20812835.5074
        -0.000          -0.000
   5935083.391 9   4609264.69046  23439008.161    23439007.9624   23439015.6684
        -0.000          -0.000
   3220024.182 8   2500131.79445  24810111.454    24810110.5184   24810118.6194
        -0.000          -0.000
  -2944064.919 9  -2283657.06148  21695552.493    21695551.9224   21695557.7584
        -0.000          -0.000
 98  5  3  2 16 30.0000000  0  8  1 17  3 26 23  6 22 21             0.000000084
  -6585805.371 9  -5111365.81146  23391748.292    23391747.7614   23391756.1714
        -0.000          -0.000
    943190.190 9    733165.96348  20958488.396    20958487.5914   20958493.1564
        -0.000          -0.000
  -4960726.650 9  -3844193.17447  22325212.529    22325212.1374   22325217.8274
        -0.000          -0.000
   4509688.497 9   3497414.92146  23543852.776    23543852.6704   23543858.0664
        -0.000          -0.000
    481384.876 9    374286.95549  20816244.788    20816244.1844   20816249.4154
        -0.000          -0.000
   6045139.974 9   4695022.95246  23459951.367    23459951.1444   23459958.8134
        -0.000          -0.000
   3282699.777 8   2548969.79345  24822038.046    24822037.1604   24822045.4034
        -0.000          -0.000
  -2985499.842 9  -2315943.98548  21687667.717    21687667.1204   21687672.9434
        -0.000          -0.000
 98  5  3  2 17  0.0000000  0  8  1 17  3 26 23  6 22 21             0.000000079
  -6692262.692 9  -5194319.45446  23371490.200    23371489.5444   23371497.9714
        -0.000          -0.000
    969218.108 9    753447.46148  20963441.309    20963440.5424   20963446.1134
        -0.000          -0.000
  -5030909.780 9  -3898881.30047  22311857.202    22311856.7434   22311862.3894
        -0.000          -0.000
   4599490.677 9   3567390.61246  23560941.559    23560941.4204   23560946.8404
        -0.000          -0.000
    499560.777 9    388450.00349  20819703.611    20819702.9904   20819708.1934
        -0.000          -0.000
   6155324.763 9   4780881.13446  23480918.950    23480918.6684   23480926.4194
        -0.000          -0.000
   3345467.561 9   2597879.66445  24833982.565    24833981.6524   24833989.9284
        -0.000          -0.000
  -3026725.921 9  -2348068.16148  21679822.599    21679822.0124   21679827.8304
        -0.000          -0.000
 98  5  3  2 17 30.0000000  0  8  1 17  3 26 23  6 22 21             0.000000084
  -6798542.468 9  -5277134.74946  23351265.801    23351265.1854   23351273.4684
        -0.000          -0.000
    995548.716 9    773964.82648  20968451.887    20968451.0834   20968456.6704
        -0.000          -0.000
  -5100639.893 9  -3953216.42147  22298587.963    22298587.5394   22298593.1434
        -0.000          -0.000
   4689640.323 9   3637637.06246  23578096.468    23578096.3344   23578101.7794
        -0.000          -0.000
    517989.421 9    402810.00349  20823210.457    20823209.8224   20823215.0174
        -0.000          -0.000
   6265673.856 9   4866867.36946  23501917.837    23501917.4714   23501925.2524
        -0.000          -0.000
   3408359.227 8   2646886.05045  24845950.372    24845949.5574   24845957.8204
        -0.000          -0.000
  -3067700.356 9  -2379996.25448  21672025.441    21672024.8604   21672030.6374
        -0.000          -0.000
 98  5  3  2 18  0.0000000  0  8  1 17  3 26 23  6 22 21             0.000000079
  -6904663.806 9  -5359826.57446  23331071.482    23331070.9064   23331079.1484
        -0.000          -0.000
   1022173.622 9    794711.50948  20973518.439    20973517.6564   20973523.2514
        -0.000          -0.000
  -5169937.696 9  -4007214.68447  22285401.013    22285400.6284   22285406.1474
        -0.000          -0.000
   4780097.855 9   3708123.44146  23595309.878    23595309.8074   23595315.3584
        -0.000          -0.000
    536645.252 9    417347.02049  20826760.536    20826759.9244   20826765.1044
        -0.000          -0.000
   6376171.475 9   4952969.31846  23522944.789    23522944.5344   23522952.2794
        -0.000          -0.000
   3471354.783 8   2695973.38845  24857938.090    24857937.3384   24857945.8344
        -0.000          -0.000
  -3108424.695 9  -2411729.47548  21664275.823    21664275.2644   21664281.0064
        -0.000          -0.000
 98  5  3  2 18 30.0000000  0  8  1 17  3 26 23  6 22 21             0.000000047
  -7010618.162 9  -5442388.28246  23310908.963    23310908.4044   23310916.5624
        -0.000          -0.000
   1049089.550 9    815684.96648  20978640.370    20978639.5804   20978645.1734
        -0.000          -0.000
  -5238824.588 9  -4060892.74547  22272292.212    22272291.8534   22272297.3824
        -0.000          -0.000
   4870841.559 9   3778832.80046  23612577.968    23612577.8824   23612583.3894
        -0.000          -0.000
    555524.958 9    432058.49049  20830353.218    20830352.5974   20830357.7774
        -0.000          -0.000
   6486809.270 9   5039180.49746  23543998.510    23543998.2494   23544006.1664
        -0.000          -0.000
   3534446.623 8   2745135.74345  24869944.303    24869943.5164   24869951.8984
        -0.000          -0.000
  -3148877.610 9  -2443251.19748  21656577.933    21656577.3444   21656583.0354
        -0.000          -0.000
 98  5  3  2 19  0.0000000  0  8  1 17  3 26 23  6 22 21             0.000000020
  -7116366.125 9  -5524789.17746  23290785.666    23290785.1254   23290793.2774
        -0.000          -0.000
   1076337.245 9    836916.93848  20983825.413    20983824.6414   20983830.2374
        -0.000          -0.000
  -5307266.847 9  -4114224.34847  22259268.133    22259267.7104   22259273.2354
        -0.000          -0.000
   4961916.167 9   3849800.03246  23629909.058    23629908.9744   23629914.3834
        -0.000          -0.000
    574671.146 9    446977.60649  20833996.603    20833995.9854   20834001.1694
        -0.000          -0.000
   6597625.031 9   5125530.35446  23565086.089    23565085.7714   23565093.7484
        -0.000          -0.000
   3597679.717 8   2794408.19045  24881977.360    24881976.6754   24881984.9184
        -0.000          -0.000
  -3189029.775 9  -2474538.56948  21648937.272    21648936.6434   21648942.3064
        -0.000          -0.000
 98  5  3  2 19 30.0000000  0  8  1 17  3 26 23  6 22 21            -0.000000002
  -7221914.295 9  -5607034.39246  23270700.435    23270699.9004   23270708.0364
        -0.000          -0.000
   1103899.904 9    858394.33448  20989070.415    20989069.6294   20989075.2314
        -0.000          -0.000
  -5375261.563 9  -4167207.22047  22246329.202    22246328.7174   22246334.2214
        -0.000          -0.000
   5053316.579 9   3921021.12146  23647301.973    23647301.9644   23647307.2934
        -0.000          -0.000
    594093.618 9    462112.00849  20837692.562    20837691.9564   20837697.1354
        -0.000          -0.000
   6708626.064 9   5212024.56246  23586208.899    23586208.7174   23586216.5934
        -0.000          -0.000
   3661055.681 8   2843791.96245  24894037.337    24894036.6274   24894044.9764
        -0.000          -0.000
  -3228887.413 9  -2505596.44248  21641352.585    21641351.9844   21641357.5974
        -0.000          -0.000
 98  5  3  2 20  0.0000000  0  9  1 17  3 26 23  6 22 21  9          0.000000020
  -7327293.275 9  -5689147.76046  23250647.388    23250646.8924   23250655.0124
        -0.000          -0.000
   1131745.290 9    880092.04448  20994369.219    20994368.4014   20994374.0254
        -0.000          -0.000
  -5442828.843 9  -4219857.02447  22233471.540    22233471.0884   22233476.5854
        -0.000          -0.000
   5145022.925 9   3992480.58446  23664753.048    23664753.0424   23664758.5644
        -0.000          -0.000
    613778.081 9    477450.56249  20841438.401    20841437.7834   20841442.9864
        -0.000          -0.000
   6819791.950 9   5298647.24246  23607363.127    23607362.9734   23607370.8824
        -0.000          -0.000
   3724542.158 8   2893261.81645  24906118.525    24906117.8734   24906126.2044
        -0.000          -0.000
  -3268496.449 9  -2536460.59848  21633815.225    21633814.6524   21633820.2184
        -0.000          -0.000
  -3018494.786 9  -2199552.35745  24515187.637    24515187.3394   24515194.3794
        -0.000          -0.000
 98  5  3  2 20 30.0000000  0  9  1 17  3 26 23  6 22 21  9         -0.000000005
  -7432518.438 9  -5771141.26546  23230623.629    23230623.1444   23230631.2094
        -0.000          -0.000
   1159871.929 9    902008.91448  20999721.517    20999720.7264   20999726.3404
        -0.000          -0.000
  -5509971.719 9  -4272176.13447  22220694.610    22220694.1844   22220699.7094
        -0.000          -0.000
   5237043.688 9   4064185.02846  23682263.925    23682263.9604   23682269.5004
        -0.000          -0.000
    633715.071 9    492985.88349  20845232.252    20845231.6464   20845236.8714
        -0.000          -0.000
   6931117.464 9   5385394.30446  23628547.640    23628547.5474   23628555.5244
        -0.000          -0.000
   3788119.336 8   2942802.37845  24918216.974    24918216.2774   24918224.4144
        -0.000          -0.000
  -3307893.018 9  -2567159.20048  21626318.310    21626317.7224   21626323.2894
        -0.000          -0.000
  -3076860.191 8  -2245031.85145  24504080.988    24504080.7184   24504087.4174
        -0.000          -0.000
 98  5  3  2 21  0.0000000  0  9  1 17  3 26 23  6 22 21  9         -0.000000012
  -7537568.577 9  -5852998.39546  23210633.146    23210632.6544   23210640.7324
        -0.000          -0.000
   1188322.421 9    924178.13048  21005135.476    21005134.6684   21005140.2624
        -0.000          -0.000
  -5576631.645 9  -4324118.91647  22208009.576    22208009.1854   22208014.7194
        -0.000          -0.000
   5329418.376 9   4136165.28546  23699842.262    23699842.3804   23699847.8364
        -0.000          -0.000
    653930.155 9    508737.90449  20849079.075    20849078.4634   20849083.6804
        -0.000          -0.000
   7042634.684 9   5472290.74646  23649768.742    23649768.5864   23649776.6324
        -0.000          -0.000
   3851812.907 8   2992433.62945  24930337.610    24930336.7874   24930345.0974
        -0.000          -0.000
  -3347061.595 9  -2597680.13848  21618864.758    21618864.1624   21618869.6794
        -0.000          -0.000
  -3134996.686 8  -2290332.92945  24493017.985    24493017.7274   24493024.5404
        -0.000          -0.000
 98  5  3  2 21 30.0000000  0  9  1 17  3 26 23  6 22 21  9         -0.000000018
  -7642462.681 9  -5934733.93846  23190672.464    23190671.9124   23190679.9224
        -0.000          -0.000
   1217070.388 9    946579.15248  21010605.961    21010605.1814   21010610.7684
        -0.000          -0.000
  -5642830.189 9  -4375702.17347  22195412.412    22195411.9874   22195417.5404
        -0.000          -0.000
   5422118.698 9   4208399.27646  23717482.587    23717482.6984   23717488.0804
        -0.000          -0.000
    674384.279 9    524676.19349  20852971.350    20852970.7394   20852975.9504
        -0.000          -0.000
   7154302.717 9   5559304.70646  23671018.525    23671018.4254   23671026.4774
        -0.000          -0.000
   3915584.782 8   3042125.89145  24942473.203    24942472.2964   24942480.4324
        -0.000          -0.000
  -3386024.496 9  -2628040.80548  21611450.345    21611449.7254   21611455.2744
        -0.000          -0.000
  -3192923.632 8  -2335470.70045  24481994.733    24481994.3584   24482001.3244
        -0.000          -0.000
 98  5  3  2 22  0.0000000  0  9  1 17  3 26 23  6 22 21  9         -0.000000016
  -7747198.621 9  -6016346.22046  23170741.752    23170741.2104   23170749.2154
        -0.000          -0.000
   1246124.663 9    969218.85548  21016134.852    21016134.0334   21016139.6094
        -0.000          -0.000
  -5708568.531 9  -4426926.83647  22182902.823    22182902.3864   22182907.9644
        -0.000          -0.000
   5515157.953 9   4280897.37946  23735187.429    23735187.5624   23735192.8144
        -0.000          -0.000
    695068.064 9    540793.43349  20856907.361    20856906.7544   20856911.9454
        -0.000          -0.000
   7266096.908 9   5646416.95646  23692292.423    23692292.1874   23692300.2424
        -0.000          -0.000
   3979441.467 8   3091884.23145  24954624.754    24954623.9434   24954631.9374
        -0.000          -0.000
  -3424770.279 9  -2658232.29048  21604077.252    21604076.6494   21604082.1984
        -0.000          -0.000
  -3250628.891 9  -2380435.76045  24471013.662    24471013.4404   24471020.3124
        -0.000          -0.000
 98  5  3  2 22 30.0000000  0  9  1 17  3 26 23  6 22 21  9         -0.000000021
  -7851809.048 9  -6097860.71346  23150834.904    23150834.4114   23150842.4124
        -0.000          -0.000
   1275461.972 9    992079.10048  21021717.573    21021716.7484   21021722.2964
        -0.000          -0.000
  -5773873.050 9  -4477813.44747  22170475.835    22170475.3694   22170480.9184
        -0.000          -0.000
   5608499.081 9   4353630.71446  23752949.733    23752949.8154   23752955.0634
        -0.000          -0.000
    715942.400 9    557059.15949  20860879.635    20860879.0144   20860884.1854
        -0.000          -0.000
   7377977.112 9   5733596.25146  23713582.603    23713582.3784   23713590.3524
        -0.000          -0.000
   4043358.038 8   3141689.25845  24966787.643    24966786.9034   24966795.0664
        -0.000          -0.000
  -3463311.093 9  -2688264.05948  21596743.116    21596742.5564   21596748.1134
        -0.000          -0.000
  -3308124.229 9  -2425237.20345  24460072.640    24460072.3044   24460079.2144
        -0.000          -0.000
 98  5  3  2 23  0.0000000  0  9  1 17  3 26 23  6 22 21  9         -0.000000016
  -7956272.667 9  -6179260.80346  23130956.080    23130955.5334   23130963.5054
        -0.000          -0.000
   1305086.979 9   1015163.52748  21027354.999    21027354.1764   21027359.7414
        -0.000          -0.000
  -5838722.617 9  -4528345.54747  22158135.411    22158134.9324   22158140.4384
        -0.000          -0.000
   5702145.344 9   4426601.81446  23770770.041    23770770.0394   23770775.4994
        -0.000          -0.000
    737021.181 9    573484.18749  20864890.800    20864890.1774   20864895.3324
        -0.000          -0.000
   7489955.912 9   5820852.37946  23734891.649    23734891.3674   23734899.2964
        -0.000          -0.000
   4107368.840 8   3191567.68845  24978968.742    24978967.8904   24978976.0104
        -0.000          -0.000
  -3501611.189 9  -2718108.25748  21589454.823    21589454.2424   21589459.8304
        -0.000          -0.000
  -3365380.689 8  -2469852.54245  24449177.073    24449176.7384   24449183.3274
        -0.000          -0.000
 98  5  3  2 23 30.0000000  0  8  1 17  3 26 23  6 21  9             0.000000018
  -8060607.690 9  -6260560.68346  23111101.678    23111101.1274   23111109.1144
        -0.000          -0.000
   1334971.779 9   1038450.39248  21033041.890    21033041.0994   21033046.6494
        -0.000          -0.000
  -5903152.462 9  -4578550.59947  22145874.770    22145874.3304   22145879.7944
        -0.000          -0.000
   5796071.990 9   4499791.42046  23788643.768    23788643.7344   23788649.1424
        -0.000          -0.000
    758273.422 9    590044.38049  20868934.967    20868934.3374   20868939.4964
        -0.000          -0.000
   7602013.205 9   5908169.63246  23756215.377    23756215.0744   23756223.2054
        -0.000          -0.000
  -3539691.876 9  -2747781.48848  21582208.278    21582207.6894   21582213.2754
        -0.000          -0.000
  -3422422.879 8  -2514300.92445  24438322.101    24438321.6134   24438328.2994
        -0.000          -0.000
 98  5  3  2 24  0.0000000  0  8  1 17  3 26 23  6 21  9             0.000000014
  -8164812.389 9  -6341759.02547  23091272.071    23091271.5154   23091279.4344
        -0.000          -0.000
   1365107.323 9   1061932.63748  21038776.543    21038775.7394   21038781.2574
        -0.000          -0.000
  -5967159.954 9  -4628426.55147  22133694.500    22133694.1124   22133699.5204
        -0.000          -0.000
   5890267.610 9   4573190.60746  23806568.717    23806568.5664   23806573.9824
        -0.000          -0.000
    779701.095 9    606741.27549  20873012.515    20873011.8754   20873017.0444
        -0.000          -0.000
   7714161.236 9   5995557.60746  23777556.553    23777556.2594   23777564.2654
        -0.000          -0.000
  -3577552.513 9  -2777283.25548  21575003.603    21575003.0164   21575008.6154
        -0.000          -0.000
  -3479246.070 9  -2558578.70645  24427509.046    24427508.6474   24427515.1524
        -0.000          -0.000
 98  5  3  2 24 30.0000000  0  8  1 17  3 26 23  6 21  9             0.000000021
  -8268833.660 9  -6422814.41947  23071477.386    23071476.8494   23071484.7154
        -0.000          -0.000
   1395527.873 9   1085636.96448  21044565.419    21044564.6214   21044570.0834
        -0.000          -0.000
  -6030699.376 9  -4677937.77047  22121603.382    22121602.9934   22121608.3494
        -0.000          -0.000
   5984741.084 9   4646806.26846  23824546.337    23824546.3494   23824551.7034
        -0.000          -0.000
    801345.810 9    623607.29549  20877131.385    20877130.7234   20877135.8834
        -0.000          -0.000
   7826454.981 9   6083059.14046  23798925.475    23798925.1974   23798933.1524
        -0.000          -0.000
  -3615168.119 9  -2806594.09148  21567845.561    21567844.9924   21567850.6004
        -0.000          -0.000
  -3535813.291 9  -2602656.97145  24416744.712    24416744.3104   24416750.6524
        -0.000          -0.000
 98  5  3  2 25  0.0000000  0  8  1 17  3 26 23  6 21  9             0.000000020
  -8372680.686 9  -6503734.03747  23051715.816    23051715.2604   23051723.1854
        -0.000          -0.000
   1426207.451 9   1109543.12848  21050403.566    21050402.7594   21050408.1694
        -0.000          -0.000
  -6093802.030 9  -4727108.64247  22109595.378    22109594.9664   22109600.3444
        -0.000          -0.000
   6079463.382 9   4720615.87446  23842571.456    23842571.3914   23842576.7164
        -0.000          -0.000
    823182.823 9    640623.15049  20881286.810    20881286.1664   20881291.2944
        -0.000          -0.000
   7938871.098 9   6170656.00546  23820317.557    23820317.2574   23820325.3244
        -0.000          -0.000
  -3652569.949 9  -2835738.35048  21560728.246    21560727.6694   21560733.2804
        -0.000          -0.000
  -3592162.916 8  -2646565.68945  24406021.556    24406021.0434   24406027.6394
        -0.000          -0.000
 98  5  3  2 25 30.0000000  0  8  1 17  3 26 23  6 21  9             0.000000024
  -8476318.474 9  -6584490.61347  23031994.041    23031993.5434   23032001.4234
        -0.000          -0.000
   1457173.294 9   1133672.35648  21056296.164    21056295.3804   21056300.7604
        -0.000          -0.000
  -6156443.280 9  -4775919.98447  22097675.128    22097674.7084   22097680.0824
        -0.000          -0.000
   6174462.918 9   4794641.45246  23860649.258    23860649.1074   23860654.5644
        -0.000          -0.000
    845249.380 9    657817.87649  20885485.945    20885485.3294   20885490.4414
        -0.000          -0.000
   8051426.002 9   6258361.03346  23841736.139    23841735.8794   23841743.9414
        -0.000          -0.000
  -3689728.760 9  -2864693.24248  21553657.123    21553656.5644   21553662.1994
        -0.000          -0.000
  -3648269.008 9  -2690284.65545  24395344.821    24395344.4444   24395350.8644
        -0.000          -0.000
 98  5  3  2 26  0.0000000  0  8  1 17  3 26 23  6 21  9             0.000000021
  -8579743.297 9  -6665081.24847  23012312.822    23012312.3384   23012320.1964
        -0.000          -0.000
   1488428.496 9   1158027.06448  21062243.864    21062243.0724   21062248.4704
        -0.000          -0.000
  -6218626.174 9  -4824374.16747  22085842.023    22085841.6404   22085847.0404
        -0.000          -0.000
   6269724.353 9   4868871.20946  23878776.933    23878776.9774   23878782.1814
        -0.000          -0.000
    867554.020 9    675198.12349  20889730.367    20889729.7514   20889734.8694
        -0.000          -0.000
   8164108.627 9   6346165.57246  23863179.011    23863178.7354   23863186.7184
        -0.000          -0.000
  -3726647.154 9  -2893460.78948  21546631.738    21546631.1984   21546636.8294
        -0.000          -0.000
  -3704135.749 9  -2733817.13345  24384713.760    24384713.4044   24384719.8424
        -0.000          -0.000
 98  5  3  2 26 30.0000000  0  8  1 17  3 26 23  6 21  9             0.000000025
  -8682933.690 9  -6745489.21547  22992676.204    22992675.7624   22992683.5204
        -0.000          -0.000
   1520017.807 9   1182642.11948  21068255.110    21068254.3114   21068259.7304
        -0.000          -0.000
  -6280317.504 9  -4872445.32147  22074102.543    22074102.1474   22074107.5274
        -0.000          -0.000
   6365279.436 9   4943329.68246  23896960.422    23896960.4084   23896965.8684
        -0.000          -0.000
    890126.004 9    692786.68449  20894025.647    20894025.0384   20894030.1894
        -0.000          -0.000
   8276950.346 9   6434094.06045  23884652.079    23884651.9294   23884659.9304
        -0.000          -0.000
  -3763297.760 9  -2922019.68148  21539657.418    21539656.8364   21539662.4494
        -0.000          -0.000
  -3759730.558 8  -2777137.66245  24374134.372    24374134.0294   24374140.3814
        -0.000          -0.000
 98  5  3  2 27  0.0000000  0  8  1 17  3 26 23  6 21  9             0.000000019
  -8785937.109 9  -6825751.48547  22973075.129    22973074.7114   22973082.4124
        -0.000          -0.000
   1551910.638 9   1207493.68448  21074324.086    21074323.2804   21074328.7534
        -0.000          -0.000
  -6341556.844 9  -4920164.26447  22062449.056    22062448.6454   22062454.0204
        -0.000          -0.000
   6461112.192 9   5018004.57846  23915196.962    23915196.9134   23915202.2214
        -0.000          -0.000
    912931.598 9    710557.28449  20898365.424    20898364.7934   20898369.9694
        -0.000          -0.000
   8389913.573 9   6522117.25746  23906148.379    23906148.2284   23906156.2104
        -0.000          -0.000
  -3799710.288 9  -2950393.05348  21532728.339    21532727.7534   21532733.3514
        -0.000          -0.000
  -3815081.236 9  -2820267.93545  24363601.416    24363601.1204   24363607.6494
        -0.000          -0.000
 98  5  3  2 27 30.0000000  0  8  1 17  3 26 23  6 21  9             0.000000025
  -8888724.735 9  -6905845.60647  22953515.163    22953514.7834   22953522.4454
        -0.000          -0.000
   1584139.187 9   1232606.84248  21080456.972    21080456.1644   21080461.6604
        -0.000          -0.000
  -6402299.391 9  -4967496.09947  22050890.121    22050889.7064   22050895.0624
        -0.000          -0.000
   6557255.951 9   5092921.78046  23933492.345    23933492.2884   23933497.7424
        -0.000          -0.000
    936005.095 9    728536.64249  20902756.133    20902755.5134   20902760.7184
        -0.000          -0.000
   8503018.280 9   6610250.67546  23927671.570    23927671.4574   23927679.4404
        -0.000          -0.000
  -3835856.084 9  -2978558.59048  21525850.022    21525849.4454   21525854.9914
        -0.000          -0.000
  -3870142.650 8  -2863172.88745  24353123.510    24353123.3034   24353129.7554
        -0.000          -0.000
 98  5  3  2 28  0.0000000  0  8  1 17  3 26 23  6 21  9             0.000000034
  -8991315.395 9  -6985786.24347  22933992.781    22933992.3284   22934000.0024
        -0.000          -0.000
   1616687.688 9   1257969.31648  21086650.762    21086649.9364   21086655.4534
        -0.000          -0.000
  -6462557.251 9  -5014450.25147  22039423.428    22039423.0254   22039428.3624
        -0.000          -0.000
   6653676.499 9   5168054.69246  23951840.633    23951840.5964   23951845.9724
        -0.000          -0.000
    959314.480 9    746699.81149  20907191.747    20907191.1234   20907196.3464
        -0.000          -0.000
   8616246.184 9   6698480.15146  23949218.374    23949218.0814   23949226.1104
        -0.000          -0.000
  -3871771.569 9  -3006544.66148  21519015.463    21519014.9164   21519020.4464
        -0.000          -0.000
  -3924928.363 8  -2905862.98745  24342698.017    24342697.7824   24342704.2924
        -0.000          -0.000
 98  5  3  2 28 30.0000000  0  8  1 17  3 26 23  6 21  9             0.000000042
  -9093726.558 9  -7065587.03047  22914504.535    22914504.0304   22914511.7024
        -0.000          -0.000
   1649534.575 9   1283564.29848  21092901.339    21092900.5394   21092906.0194
        -0.000          -0.000
  -6522329.690 9  -5061026.15448  22028049.081    22028048.6794   22028054.0274
        -0.000          -0.000
   6750358.488 9   5243391.30046  23970238.670    23970238.5794   23970243.8754
        -0.000          -0.000
    982837.615 9    765029.53349  20911668.065    20911667.4244   20911672.6474
        -0.000          -0.000
   8729571.521 9   6786785.48046  23970783.573    23970783.3024   23970791.3374
        -0.000          -0.000
  -3907478.542 9  -3034368.24948  21512220.614    21512220.0904   21512225.5854
        -0.000          -0.000
  -3979450.464 8  -2948347.60145  24332322.404    24332322.1144   24332328.8434
        -0.000          -0.000
 98  5  3  2 29  0.0000000  0  8  1 17  3 26 23  6 21  9             0.000000046
  -9195945.080 9  -7145237.69047  22895052.992    22895052.4154   22895060.0314
        -0.000          -0.000
   1682677.327 9   1309389.82848  21099208.189    21099207.3734   21099212.8694
        -0.000          -0.000
  -6581609.553 9  -5107218.22648  22016768.456    22016768.0794   22016773.4454
        -0.000          -0.000
   6847293.859 9   5318925.33946  23988684.773    23988684.7994   23988690.1864
        -0.000          -0.000
   1006569.537 9    783521.94249  20916184.104    20916183.4774   20916188.6894
        -0.000          -0.000
   8842970.593 9   6875148.29846  23992362.901    23992362.4444   23992370.6254
        -0.000          -0.000
  -3942989.354 9  -3062038.99048  21505463.090    21505462.5584   21505468.0604
        -0.000          -0.000
  -4033714.161 8  -2990630.92545  24321996.483    24321996.2024   24322002.8994
        -0.000          -0.000
 98  5  3  2 29 30.0000000  0  8  1 17  3 26 23  6 21  9             0.000000055
  -9297950.091 9  -7224721.98147  22875642.029    22875641.4034   22875648.9954
        -0.000          -0.000
   1716124.927 9   1335452.89748  21105573.006    21105572.2064   21105577.7254
        -0.000          -0.000
  -6640368.810 9  -5153004.64048  22005586.946    22005586.5794   22005591.9444
        -0.000          -0.000
   6944479.384 9   5394654.35346  24007178.698    24007178.6774   24007183.8734
        -0.000          -0.000
   1030517.331 9    802182.56449  20920741.173    20920740.5434   20920745.7554
        -0.000          -0.000
   8956440.988 9   6963566.66246  24013955.752    24013955.2554   24013963.4684
        -0.000          -0.000
  -3978294.617 9  -3089549.55948  21498744.712    21498744.1694   21498749.6604
        -0.000          -0.000
  -4087712.245 8  -3032707.31145  24311720.927    24311720.7464   24311727.1454
        -0.000          -0.000
 98  5  3  2 30  0.0000000  0  8  1 17  3 26 23  6 21  9             0.000000066
  -9399744.460 9  -7304042.14647  22856271.100    22856270.4844   22856278.0174
        -0.000          -0.000
   1749883.910 9   1361758.59948  21111997.085    21111996.3194   21112001.8424
        -0.000          -0.000
  -6698604.612 9  -5198383.16948  21994505.022    21994504.6324   21994510.0334
        -0.000          -0.000
   7041908.963 9   5470573.46946  24025718.864    24025718.9004   24025724.1874
        -0.000          -0.000
   1054676.797 9    821008.12749  20925338.559    20925337.9004   20925343.1104
        -0.000          -0.000
   9069996.773 9   7052051.57846  24035564.789    24035564.2654   24035572.4074
        -0.000          -0.000
  -4013385.773 9  -3116893.29948  21492067.065    21492066.5324   21492072.0294
        -0.000          -0.000
  -4141440.623 8  -3074573.47645  24301496.563    24301496.3254   24301503.0374
        -0.000          -0.000
 98  5  3  2 30 30.0000000  0  8  1 17  3 26 23  6 21  9             0.000000074
  -9501339.286 9  -7383206.81647  22836938.102    22836937.5674   22836945.0344
        -0.000          -0.000
   1783942.143 9   1388297.48548  21118478.154    21118477.3724   21118482.8994
        -0.000          -0.000
  -6756335.656 9  -5243368.38048  21983519.099    21983518.7674   21983524.1534
        -0.000          -0.000
   7139579.967 9   5546680.73246  24044305.193    24044305.0154   24044310.4174
        -0.000          -0.000
   1079022.704 9    839978.97149  20929971.399    20929970.7534   20929975.9594
        -0.000          -0.000
   9183615.567 9   7140585.60146  24057185.831    24057185.2674   24057193.3644
        -0.000          -0.000
  -4048267.490 9  -3144073.83548  21485429.275    21485428.7274   21485434.2124
        -0.000          -0.000
  -4194922.929 8  -3116247.92345  24291319.249    24291318.9904   24291325.6474
        -0.000          -0.000
 98  5  3  2 31  0.0000000  0  8  1 17  3 26 23  6 21  9             0.000000065
  -9602747.015 9  -7462225.70947  22817640.761    22817640.1974   22817647.6174
        -0.000          -0.000
   1818282.492 9   1415056.20148  21125012.916    21125012.0994   21125017.6434
        -0.000          -0.000
  -6813585.552 9  -5287978.67548  21972624.838    21972624.4994   21972629.8844
        -0.000          -0.000
   7237476.200 9   5622963.52946  24062934.182    24062933.9874   24062939.4384
        -0.000          -0.000
   1103535.831 9    859080.11149  20934636.096    20934635.4534   20934640.6604
        -0.000          -0.000
   9297278.860 9   7229154.28046  24078815.311    24078814.8444   24078822.9814
        -0.000          -0.000
  -4082939.205 9  -3171090.74048  21478831.471    21478830.9254   21478836.3844
        -0.000          -0.000
  -4248176.781 8  -3157744.31845  24281185.259    24281184.9664   24281191.5534
        -0.000          -0.000
 98  5  3  2 31 30.0000000  0  8  1 17  3 26 23  6 21  9             0.000000057
  -9703949.849 9  -7541084.93247  22798382.517    22798381.8594   22798389.2844
        -0.000          -0.000
   1852920.674 9   1442046.99248  21131604.321    21131603.4854   21131609.0324
        -0.000          -0.000
  -6870340.717 9  -5332203.46548  21961824.655    21961824.3054   21961829.7384
        -0.000          -0.000
   7335622.189 9   5699440.92246  24081610.699    24081610.6074   24081616.0094
        -0.000          -0.000
   1128234.256 9    878325.64049  20939336.046    20939335.4004   20939340.6094
        -0.000          -0.000
   9411011.526 9   7317776.99845  24100457.958    24100457.5004   24100465.7424
        -0.000          -0.000
  -4117358.030 9  -3197910.58048  21472281.755    21472281.2294   21472286.6864
        -0.000          -0.000
  -4301176.569 9  -3199042.80045  24271099.650    24271099.3774   24271105.9764
        -0.000          -0.000
 98  5  3  2 32  0.0000000  0  8  1 17  3 26 23  6 21  9             0.000000048
  -9804941.437 9  -7619779.56047  22779164.265    22779163.7334   22779171.1124
        -0.000          -0.000
   1887868.911 9   1469279.39448  21138254.724    21138253.8914   21138259.4254
        -0.000          -0.000
  -6926609.303 9  -5376049.09848  21951117.089    21951116.7384   21951122.1964
        -0.000          -0.000
   7434024.130 9   5776117.71846  24100335.958    24100335.8554   24100341.3224
        -0.000          -0.000
   1153114.095 9    897712.52949  20944070.519    20944069.8724   20944075.0734
        -0.000          -0.000
   9524809.153 9   7406450.37445  24122113.037    24122112.6294   24122120.8754
        -0.000          -0.000
  -4151522.388 9  -3224532.13248  21465780.467    21465779.9604   21465785.4184
        -0.000          -0.000
  -4353913.969 8  -3240136.79145  24261064.097    24261063.7854   24261070.4314
        -0.000          -0.000
 98  5  3  2 32 30.0000000  0  8  1 17  3 26 23  6 21  9             0.000000033
  -9905717.477 9  -7698306.22647  22759987.190    22759986.6394   22759993.9754
        -0.000          -0.000
   1923110.050 9   1496740.02948  21144960.895    21144960.0794   21144965.6014
        -0.000          -0.000
  -6982407.001 9  -5419527.80148  21940499.105    21940498.7694   21940504.2284
        -0.000          -0.000
   7532683.464 9   5852995.11746  24119110.349    24119110.1384   24119115.6054
        -0.000          -0.000
   1178169.731 9    917236.40949  20948838.441    20948837.8024   20948843.0284
        -0.000          -0.000
   9638648.240 8   7495156.03345  24143775.874    24143775.5714   24143783.9084
        -0.000          -0.000
  -4185446.984 9  -3250966.85748  21459324.837    21459324.3194   21459329.7534
        -0.000          -0.000
  -4406399.780 9  -3281034.74445  24251076.364    24251076.0594   24251082.5824
        -0.000          -0.000
 98  5  3  2 33  0.0000000  0  8  1 17  3 26 23  6 21  9             0.000000033
 -10006253.985 9  -7776646.25347  22740855.645    22740855.1044   22740862.3564
        -0.000          -0.000
   1958671.681 9   1524450.39448  21151728.041    21151727.2444   21151732.7024
        -0.000          -0.000
  -7037700.448 9  -5462613.59048  21929977.138    21929976.7734   21929982.2404
        -0.000          -0.000
   7631624.677 9   5930092.16845  24137938.203    24137938.0234   24137943.3134
        -0.000          -0.000
   1203449.352 9    936934.81449  20953648.930    20953648.3114   20953653.5384
        -0.000          -0.000
   9752580.914 9   7583934.61645  24165456.635    24165456.3924   24165464.6044
        -0.000          -0.000
  -4219108.117 9  -3277196.30348  21452919.376    21452918.8234   21452924.2474
        -0.000          -0.000
  -4458582.384 9  -3321696.45945  24241146.302    24241146.0544   24241152.4744
        -0.000          -0.000
 98  5  3  2 33 30.0000000  0  8  1 17  3 26 23  6 21  9             0.000000023
 -10106582.546 9  -7854824.24147  22721763.696    22721763.1214   22721770.3314
        -0.000          -0.000
   1994525.056 9   1552388.09348  21158550.752    21158549.9414   21158555.3824
        -0.000          -0.000
  -7092530.298 9  -5505338.13248  21919543.292    21919542.9264   21919548.3994
        -0.000          -0.000
   7730798.183 9   6007370.20746  24156810.221    24156810.0984   24156815.5104
        -0.000          -0.000
   1228920.346 9    956782.35249  20958495.888    20958495.2564   20958500.5064
        -0.000          -0.000
   9866591.314 8   7672773.75245  24187152.130    24187151.9334   24187160.3644
        -0.000          -0.000
  -4252569.706 9  -3303270.25148  21446551.865    21446551.2924   21446556.7214
        -0.000          -0.000
  -4510485.213 9  -3362140.13445  24231269.434    24231269.1314   24231275.6034
        -0.000          -0.000
 98  5  3  2 34  0.0000000  0  8  1 17  3 26 23  6 21  9             0.000000015
 -10206669.589 9  -7932814.03547  22702717.704    22702717.1164   22702724.3054
        -0.000          -0.000
   2030698.839 9   1580575.45848  21165434.343    21165433.5654   21165438.9994
        -0.000          -0.000
  -7146870.806 9  -5547681.36348  21909202.622    21909202.2154   21909207.7014
        -0.000          -0.000
   7830218.811 9   6084840.83945  24175729.283    24175729.2024   24175734.5114
        -0.000          -0.000
   1254615.807 9    976804.79749  20963385.576    20963384.9514   20963390.2254
        -0.000          -0.000
   9980716.793 8   7761702.55345  24208869.527    24208869.3884   24208877.8144
        -0.000          -0.000
  -4285822.821 9  -3329181.74848  21440223.988    21440223.4524   21440228.8314
        -0.000          -0.000
  -4562078.012 9  -3402342.24045  24221451.664    24221451.3884   24221457.7364
        -0.000          -0.000
 98  5  3  2 34 30.0000000  0  8  1 17  3 26 23  6 21  9             0.000000010
 -10306521.781 9  -8010620.82247  22683716.384    22683715.8004   22683722.9134
        -0.000          -0.000
   2067177.836 9   1609000.64948  21172376.047    21172375.2604   21172380.7084
        -0.000          -0.000
  -7200725.332 9  -5589645.91148  21898954.403    21898954.0104   21898959.4834
        -0.000          -0.000
   7929869.900 9   6162491.07945  24194692.281    24194692.2534   24194697.4134
        -0.000          -0.000
   1280532.706 9    996999.79349  20968317.355    20968316.7464   20968322.0174
        -0.000          -0.000
  10094971.926 8   7850732.39345  24230611.718    24230611.4464   24230619.8194
        -0.000          -0.000
  -4318874.117 9  -3354936.00248  21433934.519    21433933.9664   21433939.3204
        -0.000          -0.000
  -4613368.804 9  -3442309.01645  24211691.391    24211691.1954   24211697.3144
        -0.000          -0.000
 98  5  3  2 35  0.0000000  0  8  1 17  3 26 23  6 21  9             0.000000017
 -10406112.578 9  -8088223.91947  22664764.764    22664764.1604   22664771.2704
        -0.000          -0.000
   2103999.880 9   1637693.15048  21179383.056    21179382.2694   21179387.7364
        -0.000          -0.000
  -7254057.491 9  -5631203.42048  21888805.566    21888805.2254   21888810.6814
        -0.000          -0.000
   8029756.138 9   6240324.46145  24213699.854    24213699.8644   24213705.2014
        -0.000          -0.000
   1306703.596 9   1017392.69649  20973297.513    20973296.8894   20973302.1894
        -0.000          -0.000
  10209388.933 8   7939888.34945  24252384.619    24252384.3634   24252392.7424
        -0.000          -0.000
  -4351693.395 9  -3380509.44048  21427689.208    21427688.6504   21427693.9984
        -0.000          -0.000
  -4664321.007 9  -3482011.95645  24201995.444    24201995.2774   24202001.2824
        -0.000          -0.000
 98  5  3  2 35 30.0000000  0  8  1 17  3 26 23  6 21  9             0.000000018
 -10505441.838 9  -8165623.22647  22645862.899    22645862.3164   22645869.4374
        -0.000          -0.000
   2141151.381 9   1666642.37448  21186452.761    21186451.9644   21186457.4254
        -0.000          -0.000
  -7306881.887 9  -5672365.26848  21878753.436    21878753.0744   21878758.5154
        -0.000          -0.000
   8129850.391 9   6318320.03045  24232747.201    24232747.2384   24232752.2284
        -0.000          -0.000
   1333098.516 9   1037960.17049  20978320.274    20978319.6524   20978324.9584
        -0.000          -0.000
  10323910.547 8   8029125.81645  24274177.482    24274177.1574   24274185.6054
        -0.000          -0.000
  -4384293.603 9  -3405912.16648  21421485.584    21421485.0154   21421490.3914
        -0.000          -0.000
  -4714957.603 9  -3521468.97345  24192359.519    24192359.4084   24192365.3974
        -0.000          -0.000
 98  5  3  2 36  0.0000000  0  8  1 17  3 26 23  6 21  9             0.000000024
 -10604497.216 9  -8242809.12147  22627013.155    22627012.5564   22627019.6934
        -0.000          -0.000
   2178635.979 9   1695851.15348  21193585.811    21193585.0464   21193590.4824
        -0.000          -0.000
  -7359182.031 9  -5713118.61348  21868801.059    21868800.6744   21868806.0874
        -0.000          -0.000
   8230170.435 9   6396491.47545  24251837.325    24251837.4724   24251842.5054
        -0.000          -0.000
   1359716.758 9   1058701.66849  20983385.549    20983384.9154   20983390.2294
        -0.000          -0.000
  10438517.577 8   8118429.86745  24295986.673    24295986.2784   24295994.7134
        -0.000          -0.000
  -4416638.824 9  -3431116.22048  21415330.506    21415329.9264   21415335.2944
        -0.000          -0.000
  -4765268.810 9  -3560672.44145  24182785.660    24182785.4754   24182791.5074
        -0.000          -0.000
 98  5  3  2 36 30.0000000  0  8  1 17  3 26 23  6 21  9             0.000000030
 -10703297.762 9  -8319796.44847  22608211.910    22608211.3414   22608218.5314
        -0.000          -0.000
   2216433.907 9   1725304.08348  21200778.557    21200777.7774   21200783.1804
        -0.000          -0.000
  -7410962.617 9  -5753467.10248  21858947.520    21858947.1564   21858952.5514
        -0.000          -0.000
   8330699.798 8   6474826.05045  24270967.618    24270967.6294   24270972.7654
        -0.000          -0.000
   1386529.979 9   1079595.08649  20988487.931    20988487.2934   20988492.5954
        -0.000          -0.000
  10553181.095 8   8207777.90645  24317806.500    24317806.1534   24317814.6034
        -0.000          -0.000
  -4448741.139 9  -3456130.99448  21409221.596    21409221.0154   21409226.4164
        -0.000          -0.000
  -4815259.638 9  -3599626.26345  24173272.684    24173272.5024   24173278.4724
        -0.000          -0.000
 98  5  3  2 37  0.0000000  0  8  1 17  3 26 23  6 21  9             0.000000033
 -10801836.151 9  -8396579.49147  22589460.528    22589460.0134   22589467.1944
        -0.000          -0.000
   2254542.768 9   1754999.29848  21208030.410    21208029.6274   21208035.0334
        -0.000          -0.000
  -7462217.452 9  -5793405.93448  21849194.053    21849193.6984   21849199.0634
        -0.000          -0.000
   8431433.188 9   6553319.62745  24290136.453    24290136.4484   24290141.5334
        -0.000          -0.000
   1413533.329 9   1100636.66949  20993626.468    20993625.8654   20993631.1534
        -0.000          -0.000
  10667876.693 8   8297150.94545  24339632.412    24339632.0234   24339640.7544
        -0.000          -0.000
  -4480597.926 9  -3480954.45048  21403159.405    21403158.8314   21403164.2694
        -0.000          -0.000
  -4864929.546 9  -3638330.04445  24163820.762    24163820.5554   24163826.4244
        -0.000          -0.000
 98  5  3  2 37 30.0000000  0  8  1 17  3 26 23  6 21  9             0.000000033
 -10900126.565 9  -8473169.31547  22570756.386    22570755.8914   22570763.0284
        -0.000          -0.000
   2292947.566 9   1784925.11548  21215338.559    21215337.7974   21215343.1984
        -0.000          -0.000
  -7512953.240 9  -5832940.29348  21839539.323    21839538.9924   21839544.3194
        -0.000          -0.000
   8532368.749 9   6631970.71245  24309343.965    24309343.9714   24309349.0554
        -0.000          -0.000
   1440697.636 9   1121803.66549  20998795.649    20998795.0574   20998800.3674
        -0.000          -0.000
  10782584.128 8   8386533.18645  24361460.596    24361460.0924   24361469.0984
        -0.000          -0.000
  -4512223.401 9  -3505597.65948  21397141.268    21397140.6984   21397146.1224
        -0.000          -0.000
  -4914294.560 8  -3676796.19545  24154426.749    24154426.4794   24154432.5154
        -0.000          -0.000
 98  5  3  2 38  0.0000000  0  8  1 17  3 26 23  6 21  9             0.000000046
 -10998172.106 9  -8549568.33147  22552098.862    22552098.3474   22552105.4584
        -0.000          -0.000
   2331651.807 9   1815084.26448  21222703.691    21222702.9084   21222708.3664
        -0.000          -0.000
  -7563156.754 9  -5872059.88948  21829985.959    21829985.6154   21829990.8944
        -0.000          -0.000
   8633526.610 9   6710795.02645  24328593.658    24328593.6254   24328598.6374
        -0.000          -0.000
   1468034.728 9   1143105.30749  21003997.738    21003997.1254   21004002.4224
        -0.000          -0.000
  10897329.874 8   8475945.32045  24383296.096    24383295.4654   24383304.4454
        -0.000          -0.000
  -4543622.812 9  -3530064.71248  21391166.101    21391165.5344   21391170.9564
        -0.000          -0.000
  -4963341.948 9  -3715014.89245  24145093.202    24145092.9404   24145098.9364
        -0.000          -0.000
 98  5  3  2 38 30.0000000  0  8  1 17  3 26 23  6 21  9             0.000000056
 -11095998.424 9  -8625796.51247  22533483.066    22533482.5654   22533489.6454
        -0.000          -0.000
   2370628.803 9   1845455.95448  21230120.752    21230120.0044   21230125.4734
        -0.000          -0.000
  -7612851.297 9  -5910782.89748  21820529.419    21820529.0524   21820534.3024
        -0.000          -0.000
   8734883.957 9   6789774.83245  24347881.332    24347881.4124   24347886.2394
        -0.000          -0.000
   1495524.248 9   1164525.72149  21009228.834    21009228.2144   21009233.4954
        -0.000          -0.000
  11012091.477 8   8565369.80445  24405134.641    24405134.0074   24405142.8994
        -0.000          -0.000
  -4574839.916 9  -3554389.70848  21385225.679    21385225.0974   21385230.5254
        -0.000          -0.000
  -5012106.385 9  -3753013.10645  24135813.762    24135813.5144   24135819.4404
        -0.000          -0.000
 98  5  3  2 39  0.0000000  0  8  1 17  3 26 23  6 21  9             0.000000062
 -11193603.091 9  -8701851.98647  22514909.412    22514908.9434   22514915.9804
        -0.000          -0.000
   2409890.857 9   1876049.76648  21237592.053    21237591.2924   21237596.7894
        -0.000          -0.000
  -7662038.175 9  -5949110.32548  21811169.501    21811169.1424   21811174.3384
        -0.000          -0.000
   8836454.402 9   6868920.62645  24367209.506    24367209.4824   24367214.4814
        -0.000          -0.000
   1523176.194 9   1186072.69249  21014490.820    21014490.2214   21014495.5064
        -0.000          -0.000
  11126866.508 8   8654804.73045  24426975.683    24426975.0774   24426984.0204
        -0.000          -0.000
  -4605873.821 9  -3578571.95648  21379320.064    21379319.5054   21379324.9224
        -0.000          -0.000
  -5060586.324 9  -3790789.60645  24126588.315    24126588.0214   24126593.9114
        -0.000          -0.000
 98  5  3  2 39 30.0000000  0  8  1 17  3 26 23  6 21  9             0.000000071
 -11290981.087 9  -8777730.83947  22496378.943    22496378.4414   22496385.4294
        -0.000          -0.000
   2449455.235 9   1906879.15248  21245120.948    21245120.1894   21245125.6724
        -0.000          -0.000
  -7710719.705 9  -5987043.96848  21801905.687    21801905.3354   21801910.5004
        -0.000          -0.000
   8938259.146 9   6948249.04845  24386582.379    24386582.3314   24386587.1394
        -0.000          -0.000
   1551005.122 9   1207757.58249  21019786.524    21019785.9154   21019791.1914
        -0.000          -0.000
  11241670.768 8   8744262.41545  24448822.342    24448821.8434   24448830.5524
        -0.000          -0.000
  -4636716.724 9  -3602605.36748  21373450.874    21373450.3084   21373455.7034
        -0.000          -0.000
  -5108757.351 9  -3828325.40945  24117421.711    24117421.2874   24117427.2134
        -0.000          -0.000
 98  5  3  2 40  0.0000000  0  8  1 17  3 26 23  6 21  9             0.000000080
 -11388122.795 9  -8853425.58047  22477893.467    22477892.9394   22477899.9024
        -0.000          -0.000
   2489320.862 9   1937943.28248  21252707.211    21252706.3974   21252711.8584
        -0.000          -0.000
  -7758898.099 9  -6024585.56048  21792737.630    21792737.3024   21792742.4694
        -0.000          -0.000
   9040295.258 9   7027757.68445  24405999.092    24405999.0184   24406004.0424
        -0.000          -0.000
   1579019.580 9   1229587.03249  21025117.477    21025116.8654   21025122.1414
        -0.000          -0.000
  11356497.982 8   8833738.03645  24470673.403    24470672.8564   24470681.5744
        -0.000          -0.000
  -4667356.175 9  -3626480.23948  21367620.359    21367619.7754   21367625.2054
        -0.000          -0.000
  -5156611.012 9  -3865613.91645  24108315.379    24108314.9914   24108320.8564
        -0.000          -0.000
 98  5  3  2 40 30.0000000  0  8  1 17  3 26 23  6 21  9             0.000000086
 -11485021.044 9  -8928930.61347  22459454.278    22459453.7444   22459460.7114
        -0.000          -0.000
   2529497.065 9   1969249.41548  21260352.491    21260351.6554   21260357.1464
        -0.000          -0.000
  -7806573.593 9  -6061735.28348  21783665.302    21783664.9034   21783670.1094
        -0.000          -0.000
   9142546.050 9   7107433.65745  24425456.765    24425456.6294   24425461.8414
        -0.000          -0.000
   1607215.086 9   1251557.55749  21030482.858    21030482.2504   21030487.5474
        -0.000          -0.000
  11471350.044 8   8923232.95145  24492529.036    24492528.5764   24492537.1654
        -0.000          -0.000
  -4697769.108 9  -3650178.60948  21361832.954    21361832.3814   21361837.8064
        -0.000          -0.000
  -5204139.768 8  -3902649.24345  24099270.800    24099270.3034   24099276.4204
        -0.000          -0.000
 98  5  3  2 41  0.0000000  0  9  1 17  3 26 23  6 21  9  8          0.000000091
 -11581655.136 9  -9004229.80447  22441065.421    22441064.8344   22441071.7534
        -0.000          -0.000
   2569996.218 9   2000807.20048  21268059.206    21268058.4204   21268063.8794
        -0.000          -0.000
  -7853735.429 9  -6098484.76248  21774690.646    21774690.2564   21774695.4964
        -0.000          -0.000
   9245004.378 8   7187271.31245  24444953.671    24444953.6214   24444959.1484
        -0.000          -0.000
   1635593.966 9   1273670.97849  21035883.180    21035882.5814   21035887.8704
        -0.000          -0.000
  11586240.089 8   9012757.49345  24514392.150    24514391.5604   24514400.1924
        -0.000          -0.000
  -4727935.503 9  -3673684.87648  21356092.492    21356091.9254   21356097.3514
        -0.000          -0.000
  -5251319.207 8  -3939412.36745  24090292.567    24090292.1284   24090298.2904
        -0.000          -0.000
   -643325.069 8   -482266.21342         0.000           0.0004          0.0004
        -0.000          -0.000
 98  5  3  2 41 30.0000000  0  8  1 17  3 26 23 21  9  8             0.000000038
 -11677933.092 9  -9079251.48447  22422744.201    22422743.6784   22422750.5574
        -0.000          -0.000
   2610896.172 9   2032677.29248  21275842.195    21275841.4214   21275846.9124
        -0.000          -0.000
  -7900293.922 9  -6134764.08748  21765830.833    21765830.4394   21765835.7284
        -0.000          -0.000
   9347734.854 8   7267321.09245  24464502.776    24464502.7174   24464508.0354
        -0.000          -0.000
   1664233.475 9   1295987.48149  21041333.101    21041332.4994   21041337.8034
        -0.000          -0.000
  -4757781.077 9  -3696941.15248  21350413.045    21350412.4974   21350417.9124
        -0.000          -0.000
  -5298070.013 8  -3975841.49645  24081396.054    24081395.6374   24081401.9644
        -0.000          -0.000
   -723559.217 8   -544786.99352         0.000           0.0004          0.0005
        -0.000          -0.000
 98  5  3  2 42  0.0000000  0  8  1 17  3 26 23 21  9  8             0.000000069
 -11773980.477 9  -9154093.50347  22404466.958    22404466.4214   22404473.2174
        -0.000          -0.000
   2652064.256 9   2064756.31748  21283676.189    21283675.4484   21283680.9614
        -0.000          -0.000
  -7946368.308 9  -6170666.18548  21757063.106    21757062.7394   21757068.0394
        -0.000          -0.000
   9450587.352 8   7347465.89945  24484074.813    24484074.7884   24484080.2174
        -0.000          -0.000
   1692990.171 9   1318395.29949  21046805.340    21046804.7204   21046810.0464
        -0.000          -0.000
  -4787445.615 9  -3720056.36248  21344768.107    21344767.5154   21344772.9184
        -0.000          -0.000
  -5344532.424 9  -4012045.91745  24072554.625    24072554.2174   24072560.5214
        -0.000          -0.000
   -803881.689 8   -607377.17052         0.000           0.0004          0.0005
        -0.000          -0.000
 98  5  3  2 42 30.0000000  0  8  1 17  3 26 23 21  9  8             0.000000073
 -11869776.571 9  -9228739.70547  22386237.477    22386236.9514   22386243.7134
        -0.000          -0.000
   2693518.241 9   2097058.12248  21291564.639    21291563.8774   21291569.3704
        -0.000          -0.000
  -7991941.190 9  -6206177.49348  21748390.852    21748390.4734   21748395.7774
        -0.000          -0.000
   9553572.286 8   7427713.91845  24503672.015    24503672.0514   24503677.5284
        -0.000          -0.000
   1721875.202 9   1340903.12949  21052301.965    21052301.3554   21052306.6754
        -0.000          -0.000
  -4816931.039 9  -3743032.00548  21339157.198    21339156.5994   21339161.9974
        -0.000          -0.000
  -5390696.235 9  -4048017.65746  24063769.987    24063769.5794   24063775.7674
        -0.000          -0.000
   -884258.578 8   -488420.72142         0.000           0.0004          0.0004
        -0.000          -0.000
 98  5  3  2 43  0.0000000  0  8  1 17  3 26 23 21  9  8             0.000000058
 -11965288.759 9  -9303164.70147  22368061.971    22368061.5134   22368068.1984
        -0.000          -0.000
   2735285.811 9   2129604.28248  21299512.778    21299511.9854   21299517.4744
        -0.000          -0.000
  -8036978.933 9  -6241271.81748  21739820.440    21739820.0864   21739825.3534
        -0.000          -0.000
   9656719.705 9   7508088.60345  24523300.343    24523300.4734   24523305.6874
        -0.000          -0.000
   1750930.228 9   1363543.42149  21057830.994    21057830.3774   21057835.7054
        -0.000          -0.000
  -4846229.347 9  -3765861.83948  21333581.873    21333581.3094   21333586.6754
        -0.000          -0.000
  -5436540.003 9  -4083740.03146  24055046.073    24055045.7794   24055051.9904
        -0.000          -0.000
   -964646.416 8   -551060.98752         0.000           0.0004          0.0005
        -0.000          -0.000
 98  5  3  2 43 30.0000000  0  8  1 17  3 26 23 21  9  8             0.000000045
 -12060510.761 9  -9377363.56347  22349941.739    22349941.3184   22349947.9184
        -0.000          -0.000
   2777386.129 9   2162409.72348  21307524.181    21307523.3894   21307528.8544
        -0.000          -0.000
  -8081467.298 9  -6275938.06448  21731354.599    21731354.2074   21731359.4804
        -0.000          -0.000
   9760048.529 8   7588604.56445  24542963.284    24542963.2204   24542968.7354
        -0.000          -0.000
   1780174.908 9   1386331.49249  21063396.060    21063395.4554   21063400.7714
        -0.000          -0.000
  -4875331.918 9  -3788539.15048  21328043.768    21328043.2134   21328048.5894
        -0.000          -0.000
  -5482042.132 9  -4119196.19546  24046387.249    24046386.9634   24046393.1584
        -0.000          -0.000
  -1045006.40518   -613678.91145         0.000           0.0005   24557786.0434
        -0.000          -0.000
 98  5  3  2 44  0.0000000  0  8  1 17  3 26 23 21  9  8             0.000000039
 -12155439.909 9  -9451334.24547  22331877.304    22331876.8734   22331883.4404
        -0.000          -0.000
   2819826.658 9   2195480.26548  21315600.389    21315599.6074   21315605.0204
        -0.000          -0.000
  -8125400.806 9  -6310171.95248  21722994.307    21722993.9344   21722999.1934
        -0.000          -0.000
   9863568.374 8   7669269.39945  24562662.415    24562662.3834   24562667.7414
        -0.000          -0.000
   1809611.465 9   1409269.07649  21068997.646    21068997.0174   21069002.3284
        -0.000          -0.000
  -4904214.486 9  -3811045.03748  21322547.603    21322547.0084   21322552.3744
        -0.000          -0.000
  -5527187.913 9  -4154374.66946  24037796.299    24037796.0704   24037802.1014
        -0.000          -0.000
  -1125339.458 8   -676275.89245  24542492.532    24542490.5374   24542499.9074
        -0.000          -0.000
 98  5  3  2 44 30.0000000  0  8  1 17  3 26 23 21  9  8             0.000000029
 -12250091.091 9  -9525088.34047  22313865.745    22313865.2934   22313871.8024
        -0.000          -0.000
   2862596.782 9   2228807.62648  21323739.338    21323738.5134   21323743.9094
        -0.000          -0.000
  -8168790.115 9  -6343981.79848  21714737.638    21714737.2404   21714742.4644
        -0.000          -0.000
   9967265.432 8   7750072.35445  24582395.166    24582395.2224   24582400.5554
        -0.000          -0.000
   1839241.955 9   1432357.77449  21074636.138    21074635.5134   21074640.7944
        -0.000          -0.000
  -4932881.409 9  -3833382.88248  21317092.425    21317091.8654   21317097.2144
        -0.000          -0.000
  -5571981.004 9  -4189278.33546  24029272.407    24029272.1114   24029278.2424
        -0.000          -0.000
  -1205654.864 8   -738859.22545  24527208.963    24527207.8274   24527216.3464
        -0.000          -0.000
 98  5  3  2 45  0.0000000  0  8  1 17  3 26 23 21  9  8             0.000000018
 -12344458.114 9  -9598621.00247  22295908.265    22295907.7554   22295914.2324
        -0.000          -0.000
   2905705.004 9   2262398.45048  21331942.591    21331941.7644   21331947.1244
        -0.000          -0.000
  -8211624.582 9  -6377359.28648  21706586.557    21706586.1834   21706591.3674
        -0.000          -0.000
  10071149.786 8   7831021.25845  24602163.726    24602163.7274   24602169.0964
        -0.000          -0.000
   1869075.465 9   1455604.67649  21080313.249    21080312.6334   21080317.9084
        -0.000          -0.000
  -4961316.913 9  -3855540.40248  21311681.306    21311680.7604   21311686.1384
        -0.000          -0.000
  -5616406.050 9  -4223895.19146  24020818.558    24020818.2844   24020824.4984
        -0.000          -0.000
  -1285952.543 8   -801428.72545  24511928.832    24511928.6254   24511935.5324
        -0.000          -0.000
 98  5  3  2 45 30.0000000  0  8  1 17  3 26 23 21  9  8             0.000000012
 -12438545.764 9  -9671935.98447  22278003.914    22278003.3904   22278009.8594
        -0.000          -0.000
   2949147.877 9   2296250.03848  21340209.462    21340208.6414   21340214.0124
        -0.000          -0.000
  -8253904.920 9  -6410304.99348  21698540.861    21698540.5034   21698545.6774
        -0.000          -0.000
  10175218.282 8   7912113.60945  24621967.368    24621967.4474   24621972.9494
        -0.000          -0.000
   1899089.116 9   1478991.94449  21086024.666    21086024.0394   21086029.2954
        -0.000          -0.000
  -4989514.241 9  -3877512.33348  21306315.519    21306314.9554   21306320.3434
        -0.000          -0.000
  -5660460.809 9  -4258223.54346  24012435.263    24012434.9374   24012441.1274
        -0.000          -0.000
  -1366233.008 8   -863984.79945  24496651.906    24496651.5324   24496658.7564
        -0.000          -0.000
 98  5  3  2 46  0.0000000  0  8  1 17  3 26 23 21  9  8             0.000000002
 -12532355.322 9  -9745034.26447  22260152.448    22260151.9284   22260158.4164
        -0.000          -0.000
   2992913.436 9   2330353.06648  21348537.762    21348536.9554   21348542.3234
        -0.000          -0.000
  -8295631.968 9  -6442819.56348  21690600.509    21690600.1404   21690605.3244
        -0.000          -0.000
  10279451.311 8   7993334.24545  24641802.402    24641802.3154   24641807.7584
        -0.000          -0.000
   1929273.099 9   1502511.93749  21091768.487    21091767.8834   21091773.0824
        -0.000          -0.000
  -5017485.145 9  -3899307.82948  21300992.854    21300992.2904   21300997.6774
        -0.000          -0.000
  -5704172.447 9  -4292284.51546  24004117.298    24004116.9764   24004123.0774
        -0.000          -0.000
  -1446506.737 8   -926535.65545  24481376.288    24481375.5474   24481383.0794
        -0.000          -0.000
 98  5  3  2 46 30.0000000  0  8  1 17  3 26 23 21  9  8             0.000000006
 -12625838.807 9  -9817878.44447  22242362.961    22242362.4834   22242369.0004
        -0.000          -0.000
   3037023.277 9   2364724.35648  21356931.510    21356930.7354   21356936.1464
        -0.000          -0.000
  -8336779.082 9  -6474882.23048  21682770.465    21682770.0914   21682775.2744
        -0.000          -0.000
  10383871.701 8   8074700.81945  24661672.747    24661672.7794   24661678.2294
        -0.000          -0.000
   1959660.848 9   1526190.71249  21097551.061    21097550.4604   21097555.6304
        -0.000          -0.000
  -5045224.072 9  -3920922.56748  21295714.280    21295713.7244   21295719.0974
        -0.000          -0.000
  -5747516.622 9  -4326059.15946  23995869.071    23995868.8264   23995874.8334
        -0.000          -0.000
  -1526736.151 8   -989051.97045  24466109.199    24466108.4464   24466116.1034
        -0.000          -0.000
 98  5  3  2 47  0.0000000  0  8  1 17  3 26 23 21  9  8             0.000000008
 -12719032.501 9  -9890496.80347  22224628.730    22224628.2114   22224634.7334
        -0.000          -0.000
   3081424.257 9   2399322.51848  21365380.670    21365379.9454   21365385.4014
        -0.000          -0.000
  -8377395.064 9  -6506531.04048  21675041.515    21675041.1014   21675046.2914
        -0.000          -0.000
  10488441.251 8   8156183.58445  24681571.573    24681571.5644   24681577.0764
        -0.000          -0.000
   1990180.962 9   1549972.63449  21103358.863    21103358.2794   21103363.4214
        -0.000          -0.000
  -5072792.192 9  -3942404.19948  21290468.281    21290467.7164   21290473.0944
        -0.000          -0.000
  -5790534.888 9  -4359579.79446  23987682.826    23987682.5234   23987688.6694
        -0.000          -0.000
  -1606967.286 8  -1051569.63245  24450841.572    24450840.9054   24450848.7574
        -0.000          -0.000
 98  5  3  2 47 30.0000000  0  8  1 17  3 26 23 21  9  8             0.000000009
 -12811925.659 9  -9962880.99547  22206951.671    22206951.1184   22206957.6544
        -0.000          -0.000
   3126113.823 9   2434145.55048  21373884.810    21373884.0884   21373889.5684
        -0.000          -0.000
  -8417478.348 9  -6537764.75748  21667413.939    21667413.5324   21667418.7074
        -0.000          -0.000
  10593151.462 8   8237776.01145  24701497.276    24701497.1404   24701502.5534
        -0.000          -0.000
   2020836.570 9   1573860.12949  21109192.456    21109191.8614   21109197.0144
        -0.000          -0.000
  -5100183.858 9  -3963748.34048  21285255.769    21285255.2144   21285260.6264
        -0.000          -0.000
  -5833222.075 9  -4392842.47845  23979559.705    23979559.4374   23979565.4224
        -0.000          -0.000
  -1687192.481 8  -1114082.66145  24435575.262    24435574.6544   24435582.2684
        -0.000          -0.000
 98  5  3  2 48  0.0000000  0  8  1 17  3 26 23 21  9  8             0.000000015
 -12904486.909 9 -10035006.54247  22189337.825    22189337.2914   22189343.7734
        -0.000          -0.000
   3171102.319 9   2469201.50648  21382445.872    21382445.1314   21382450.6144
        -0.000          -0.000
  -8457018.143 9  -6568574.96848  21659889.662    21659889.3014   21659894.4984
        -0.000          -0.000
  10698013.467 8   8319486.66145  24721451.794    24721451.7944   24721457.1704
        -0.000          -0.000
   2051648.670 9   1597869.56549  21115055.816    21115055.2214   21115060.3574
        -0.000          -0.000
  -5127391.997 9  -3984949.47348  21280078.237    21280077.6894   21280083.0914
        -0.000          -0.000
  -5875562.639 9  -4425835.05946  23971502.482    23971502.2754   23971508.2014
        -0.000          -0.000
  -1767403.489 8  -1176584.64745  24420311.306    24420310.5114   24420318.3804
        -0.000          -0.000
 98  5  3  2 48 30.0000000  0  8  1 17  3 26 23 21  9  8             0.000000021
 -12996733.358 9 -10106886.79447  22171783.840    22171783.2944   22171789.7814
        -0.000          -0.000
   3216382.952 9   2504485.10348  21391062.452    21391061.7164   21391067.2484
        -0.000          -0.000
  -8496029.898 9  -6598973.72548  21652465.990    21652465.6204   21652470.8464
        -0.000          -0.000
  10803023.205 8   8401312.53845  24741434.486    24741434.5214   24741439.6354
        -0.000          -0.000
   2082600.167 9   1621987.62649  21120945.672    21120945.1044   21120950.2184
        -0.000          -0.000
  -5154429.554 9  -4006017.68948  21274933.099    21274932.5914   21274938.0304
        -0.000          -0.000
  -5917546.542 9  -4458549.72146  23963513.139    23963512.9654   23963518.8874
        -0.000          -0.000
  -1847618.350 8  -1239089.60945  24405046.878    24405046.0984   24405053.8904
        -0.000          -0.000
 98  5  3  2 49  0.0000000  0  8  1 17  3 26 23 21  9  8             0.000000031
 -13088680.712 9 -10178533.97647  22154286.755    22154286.2174   22154292.6684
        -0.000          -0.000
   3261978.220 9   2540013.87648  21399738.945    21399738.1894   21399743.7164
        -0.000          -0.000
  -8534495.816 9  -6628947.15148  21645146.087    21645145.7474   21645150.9794
        -0.000          -0.000
  10908197.665 8   8483266.65145  24761448.558    24761448.4974   24761453.8034
        -0.000          -0.000
   2113703.122 9   1646223.70749  21126864.379    21126863.7864   21126868.9214
        -0.000          -0.000
  -5181268.480 9  -4026931.12348  21269825.806    21269825.2664   21269830.7354
        -0.000          -0.000
  -5959147.309 9  -4490965.83146  23955596.906    23955596.5964   23955602.4394
        -0.000          -0.000
  -1927822.653 8  -1301586.36345  24389784.376    24389783.7944   24389791.4434
        -0.000          -0.000
 98  5  3  2 49 30.0000000  0  8  1 17  3 26 23 21  9  8             0.000000032
 -13180335.850 9 -10249953.46647  22136845.344    22136844.7814   22136851.1884
        -0.000          -0.000
   3307902.845 9   2575799.29448  21408478.158    21408477.3604   21408482.8604
        -0.000          -0.000
  -8572412.095 9  -6658492.28348  21637930.823    21637930.4734   21637935.7334
        -0.000          -0.000
  11013532.999 8   8565346.21945  24781493.183    24781493.0794   24781498.1044
        -0.000          -0.000
   2144984.405 9   1670598.73749  21132817.023    21132816.3964   21132821.5674
        -0.000          -0.000
  -5207898.753 9  -4047681.97248  21264758.224    21264757.6754   21264763.1744
        -0.000          -0.000
  -6000371.493 9  -4523088.50346  23947752.186    23947751.8674   23947757.5174
        -0.000          -0.000
  -2008008.975 8  -1364069.12645  24374525.358    24374524.8784   24374532.2904
        -0.000          -0.000
 98  5  3  2 50  0.0000000  0  7  1 17  3 23 21  9  8               -0.000000058
 -13271675.178 9 -10321126.88447  22119463.936    22119463.3944   22119469.7604
        -0.000          -0.000
   3354198.240 9   2611873.62448  21417287.897    21417287.0914   21417292.5984
        -0.000          -0.000
  -8609741.915 9  -6687580.43848  21630827.148    21630826.8204   21630832.1224
        -0.000          -0.000
   2176484.055 9   1695143.93349  21138811.199    21138810.5864   21138815.7394
        -0.000          -0.000
  -5234301.477 9  -4068255.50748  21259733.920    21259733.3934   21259738.8774
        -0.000          -0.000
  -6041168.400 9  -4554878.20946  23939988.644    23939988.3324   23939994.0844
        -0.000          -0.000
  -2088139.471 8  -1426508.38645  24359276.985    24359276.4844   24359283.9354
        -0.000          -0.000
 98  5  3  2 50 30.0000000  0  7  1 17  3 23 21  9  8               -0.000000054
 -13362720.601 9 -10392071.29347  22102138.495    22102137.9584   22102144.3084
        -0.000          -0.000
   3400858.198 9   2648232.02148  21426166.919    21426166.1744   21426171.6634
        -0.000          -0.000
  -8646481.162 9  -6716208.40748  21623835.913    21623835.5804   21623840.8724
        -0.000          -0.000
   2208206.416 9   1719862.66149  21144847.784    21144847.1774   21144852.3264
        -0.000          -0.000
  -5260465.655 9  -4088643.16248  21254755.051    21254754.4904   21254759.9994
        -0.000          -0.000
  -6081523.424 9  -4586323.62146  23932309.268    23932308.8384   23932314.7194
        -0.000          -0.000
  -2168204.495 8  -1488896.63745  24344041.093    24344040.5514   24344048.0494
        -0.000          -0.000
 98  5  3  2 51  0.0000000  0  8  1 17  3 23 21  9  8 31             0.000000084
 -13453602.166 9 -10462888.02647  22084844.185    22084843.6814   22084850.0344
        -0.000          -0.000
   3447730.645 9   2684755.99948  21435086.503    21435085.7494   21435091.1994
        -0.000          -0.000
  -8682765.579 9  -6744481.96948  21616931.250    21616930.9004   21616936.1284
        -0.000          -0.000
   2240016.918 9   1744650.07049  21150901.084    21150900.4864   21150905.6594
        -0.000          -0.000
  -5286510.978 9  -4108938.20248  21249798.787    21249798.2214   21249803.7214
        -0.000          -0.000
  -6121582.823 9  -4617538.67545  23924686.106    23924685.7254   23924691.5534
        -0.000          -0.000
  -2248324.371 8  -1551327.64045  24328794.757    24328794.1774   24328801.7234
        -0.000          -0.000
  -4033622.664 9  -2672517.03645  24541226.120    24541225.5334   24541231.9344
        -0.000          -0.000
 98  5  3  2 51 30.0000000  0  8  1 17  3 23 21  9  8 31             0.000000023
 -13544170.591 9 -10533460.74547  22067609.502    22067609.0124   22067615.3714
        -0.000          -0.000
   3494924.169 9   2721530.16948  21444067.241    21444066.4614   21444071.8434
        -0.000          -0.000
  -8718467.265 9  -6772301.45648  21610137.444    21610137.1134   21610142.2804
        -0.000          -0.000
   2272030.663 9   1769595.85449  21156993.100    21156992.4894   21156997.6674
        -0.000          -0.000
  -5312308.059 9  -4129039.80848  21244889.777    21244889.1894   21244894.6694
        -0.000          -0.000
  -6161234.522 9  -4648436.03946  23917140.599    23917140.2784   23917146.0624
        -0.000          -0.000
  -2328373.441 8  -1613703.45945  24313561.861    24313561.2724   24313568.7934
        -0.000          -0.000
  -4123736.095 8  -2742735.21545  24524078.084    24524077.5454   24524083.8734
        -0.000          -0.000
 98  5  3  2 52  0.0000000  0  8  1 17  3 23 21  9  8 31            -0.000000008
 -13634392.588 9 -10603763.52347  22050440.734    22050440.2284   22050446.6064
        -0.000          -0.000
   3542451.290 9   2758564.28348  21453111.402    21453110.5814   21453115.9614
        -0.000          -0.000
  -8753564.061 9  -6799649.59348  21603458.759    21603458.4574   21603463.5574
        -0.000          -0.000
   2304245.870 9   1794698.62349  21163123.398    21163122.8154   21163127.9744
        -0.000          -0.000
  -5337821.689 9  -4148920.54248  21240034.667    21240034.0804   21240039.5484
        -0.000          -0.000
  -6200447.991 9  -4678991.93546  23909678.536    23909678.2044   23909683.8894
        -0.000          -0.000
  -2408331.697 8  -1676008.51245  24298346.277    24298345.5264   24298353.0054
        -0.000          -0.000
  -4213500.923 8  -2812681.74045  24506996.300    24506995.8604   24507002.0524
        -0.000          -0.000
 98  5  3  2 52 30.0000000  0  8  1 17  3 23 21  9  8 31            -0.000000021
 -13724268.652 9 -10673796.75047  22033337.811    22033337.3184   22033343.6914
        -0.000          -0.000
   3590307.251 9   2795854.63348  21462218.052    21462217.2464   21462222.6584
        -0.000          -0.000
  -8788068.480 9  -6826536.13648  21596892.791    21596892.4824   21596897.5804
        -0.000          -0.000
   2336632.475 9   1819934.94549  21169286.310    21169285.7394   21169290.9044
        -0.000          -0.000
  -5363044.640 9  -4168574.78048  21235234.884    21235234.3134   21235239.7564
        -0.000          -0.000
  -6239256.381 9  -4709232.18946  23902293.562    23902293.2474   23902298.7684
        -0.000          -0.000
  -2488210.408 8  -1738251.57945  24283145.889    24283145.2184   24283152.4784
        -0.000          -0.000
  -4302934.897 9  -2882370.48145  24489977.430    24489976.9724   24489983.1314
        -0.000          -0.000
 98  5  3  2 53  0.0000000  0  8  1 17  3 23 21  9  8 31            -0.000000022
 -13813793.138 9 -10743556.02248  22016301.819    22016301.2824   22016307.6614
        -0.000          -0.000
   3638502.927 9   2833409.70348  21471389.338    21471388.5374   21471394.0144
        -0.000          -0.000
  -8822001.431 9  -6852977.37948  21590435.598    21590435.2734   21590440.3534
        -0.000          -0.000
   2369161.003 9   1845281.85649  21175476.287    21175475.7134   21175480.8704
        -0.000          -0.000
  -5388007.383 9  -4188026.25248  21230484.650    21230484.0924   21230489.4884
        -0.000          -0.000
  -6277685.698 9  -4739177.04746  23894980.705    23894980.4394   23894985.9174
        -0.000          -0.000
  -2568025.187 9  -1800444.84845  24267957.551    24267956.9534   24267964.2844
        -0.000          -0.000
  -4392036.206 9  -2951799.97045  24473021.973    24473021.5194   24473027.7694
        -0.000          -0.000
 98  5  3  2 53 30.0000000  0  8  1 17  3 23 21  9  8 31            -0.000000024
 -13902986.523 9 -10813057.26648  21999328.887    21999328.3124   21999334.7184
        -0.000          -0.000
   3687032.803 9   2871225.17048  21480624.214    21480623.4644   21480628.9914
        -0.000          -0.000
  -8855389.110 9  -6878993.74348  21584082.119    21584081.7914   21584086.8744
        -0.000          -0.000
   2401803.525 9   1870717.59649  21181688.007    21181687.3934   21181692.5664
        -0.000          -0.000
  -5412767.454 9  -4207319.79848  21225772.961    21225772.3944   21225777.7824
        -0.000          -0.000
  -6315751.662 9  -4768838.78246  23887737.100    23887736.7844   23887742.1814
        -0.000          -0.000
  -2647807.501 9  -1862612.84445  24252775.394    24252774.7344   24252782.0264
        -0.000          -0.000
  -4480819.026 8  -3020981.29145  24456127.194    24456126.6554   24456132.9034
        -0.000          -0.000
 98  5  3  2 54  0.0000000  0  8  1 17  3 23 21  9  8 31            -0.000000023
 -13991832.951 9 -10882288.15248  21982421.915    21982421.3364   21982427.7384
        -0.000          -0.000
   3735936.739 9   2909332.11148  21489930.303    21489929.5614   21489935.0944
        -0.000          -0.000
  -8888214.425 9  -6904571.90848  21577835.675    21577835.3254   21577840.3854
        -0.000          -0.000
   2434580.522 9   1896258.11449  21187925.236    21187924.6254   21187929.8004
        -0.000          -0.000
  -5437334.321 9  -4226462.80648  21221098.013    21221097.4804   21221102.8584
        -0.000          -0.000
  -6353426.545 9  -4798195.78546  23880567.731    23880567.3984   23880572.9254
        -0.000          -0.000
  -2727522.773 9  -1924728.56245  24237606.065    24237605.3554   24237612.6504
        -0.000          -0.000
  -4569287.286 9  -3089917.50445  24439292.003    24439291.6714   24439297.8164
        -0.000          -0.000
 98  5  3  2 54 30.0000000  0  8  1 17  3 23 21  9  8 31            -0.000000008
 -14080328.136 9 -10951245.33048  21965581.840    21965581.2154   21965587.5974
        -0.000          -0.000
   3785216.100 9   2947731.59048  21499307.916    21499307.1594   21499312.6764
        -0.000          -0.000
  -8920458.545 9  -6929697.17948  21571699.798    21571699.4334   21571704.5074
        -0.000          -0.000
   2467517.311 9   1921923.15049  21194192.928    21194192.3064   21194197.4844
        -0.000          -0.000
  -5461722.609 9  -4245466.64948  21216457.046    21216456.5234   21216461.8974
        -0.000          -0.000
  -6390701.418 9  -4827241.06846  23873474.355    23873473.9694   23873479.7194
        -0.000          -0.000
  -2807145.144 9  -1986771.91245  24222454.351    24222453.6254   24222460.9404
        -0.000          -0.000
  -4657426.890 9  -3158597.63545  24422519.613    24422519.0424   24422525.2904
        -0.000          -0.000
 98  5  3  2 55  0.0000000  0  8  1 17  3 23 21  9  8 31             0.000000001
 -14168510.034 9 -11019958.39148  21948801.328    21948800.7514   21948807.0814
        -0.000          -0.000
   3834794.942 9   2986364.44148  21508742.484    21508741.7084   21508747.2224
        -0.000          -0.000
  -8952163.410 9  -6954402.25748  21565666.546    21565666.1704   21565671.2844
        -0.000          -0.000
   2500582.610 9   1947688.32048  21200485.023    21200484.4104   21200489.5884
        -0.000          -0.000
  -5485987.270 9  -4264374.16048  21211839.656    21211839.1294   21211844.5224
        -0.000          -0.000
  -6427601.438 9  -4855994.26246  23866452.308    23866451.9294   23866457.7674
        -0.000          -0.000
  -2886709.725 9  -2048770.21545  24207313.641    24207312.8864   24207320.1724
        -0.000          -0.000
  -4745272.410 8  -3227048.64645  24405803.133    24405802.5454   24405808.5234
        -0.000          -0.000
 98  5  3  2 55 30.0000000  0  8  1 17  3 23 21  9  8 31             0.000000010
 -14256367.175 9 -11088418.42248  21932082.600    21932082.0064   21932088.2984
        -0.000          -0.000
   3884656.421 9   3025217.51048  21518230.787    21518230.0194   21518235.5334
        -0.000          -0.000
  -8983302.587 9  -6978666.53848  21559740.956    21559740.5424   21559745.6594
        -0.000          -0.000
   2533788.711 9   1973563.20948  21206803.913    21206803.3164   21206808.4964
        -0.000          -0.000
  -5510112.569 9  -4283173.08548  21207248.733    21207248.2274   21207253.6064
        -0.000          -0.000
  -6464112.092 9  -4884444.10546  23859504.646    23859504.2394   23859510.0164
        -0.000          -0.000
  -2966196.854 8  -2110708.16645  24192187.718    24192187.0574   24192194.0794
        -0.000          -0.000
  -4832829.423 8  -3295274.82545  24389141.426    24389141.0304   24389146.9834
        -0.000          -0.000
 98  5  3  2 56  0.0000000  0  8  1 17  3 23 21  9  8 31             0.000000022
 -14343891.869 9 -11156619.41648  21915427.109    21915426.5064   21915432.8034
        -0.000          -0.000
   3934794.221 9   3064285.92748  21527771.673    21527770.9244   21527776.4404
        -0.000          -0.000
  -9013869.466 9  -7002484.87848  21553924.248    21553923.8494   21553928.9694
        -0.000          -0.000
   2567143.839 9   1999554.22248  21213151.178    21213150.5914   21213155.7654
        -0.000          -0.000
  -5534066.706 9  -4301838.63048  21202690.450    21202689.9234   21202695.2994
        -0.000          -0.000
  -6500220.389 9  -4912580.37746  23852633.425    23852633.0064   23852638.8304
        -0.000          -0.000
  -3045596.584 8  -2172578.00845  24177078.430    24177077.8474   24177084.8384
        -0.000          -0.000
  -4920087.056 8  -3363267.70345  24372536.802    24372536.3854   24372542.2994
        -0.000          -0.000
 98  5  3  2 56 30.0000000  0  8  1 17  3 23 21  9  8 31             0.000000033
 -14431092.448 9 -11224567.84548  21898833.301    21898832.7344   21898838.9964
        -0.000          -0.000
   3985197.265 9   3103561.00048  21537363.124    21537362.3644   21537367.8614
        -0.000          -0.000
  -9043878.168 9  -7025868.27048  21548213.741    21548213.3724   21548218.4944
        -0.000          -0.000
   2600637.251 9   2025652.98748  21219524.756    21219524.1594   21219529.3504
        -0.000          -0.000
  -5557842.109 9  -4320364.90448  21198166.139    21198165.5954   21198170.9794
        -0.000          -0.000
  -6535929.312 9  -4940405.44846  23845838.231    23845837.8104   23845843.5754
        -0.000          -0.000
  -3124936.227 8  -2234401.06145  24161980.489    24161979.9394   24161987.0314
        -0.000          -0.000
  -5007030.022 9  -3431015.41645  24355992.092    24355991.6294   24355997.6514
        -0.000          -0.000
 98  5  3  2 57  0.0000000  0  8  1 17  3 23 21  9  8 31             0.000000036
 -14517956.799 9 -11292254.28348  21882303.504    21882302.9374   21882309.1474
        -0.000          -0.000
   4035893.041 9   3143064.17348  21547010.295    21547009.5264   21547014.9694
        -0.000          -0.000
  -9073322.667 9  -7048812.01948  21542610.607    21542610.2614   21542615.3694
        -0.000          -0.000
   2634256.102 9   2051849.49648  21225922.201    21225921.6004   21225926.7904
        -0.000          -0.000
  -5581426.729 9  -4338742.51648  21193678.139    21193677.5924   21193682.9984
        -0.000          -0.000
  -6571230.936 9  -4967913.14546  23839120.625    23839120.2804   23839126.0084
        -0.000          -0.000
  -3204223.525 8  -2296183.28945  24146892.518    24146891.9554   24146899.0604
        -0.000          -0.000
  -5093672.821 8  -3498529.23845  24339504.556    24339503.9634   24339509.8284
        -0.000          -0.000
 98  5  3  2 57 30.0000000  0  8  1 17  3 23 21  9  8 31             0.000000028
 -14604472.628 9 -11359669.15048  21865840.014    21865839.4854   21865845.6314
        -0.000          -0.000
   4086931.632 9   3182834.46748  21556722.604    21556721.8524   21556727.2994
        -0.000          -0.000
  -9102190.865 9  -7071306.70848  21537117.200    21537116.8144   21537121.9684
        -0.000          -0.000
   2668003.124 9   2078145.87948  21232344.078    21232343.4454   21232348.6294
        -0.000          -0.000
  -5604797.298 9  -4356953.34148  21189230.878    21189230.3114   21189235.6914
        -0.000          -0.000
  -6606119.736 9  -4995099.19546  23832481.586    23832481.2374   23832486.6584
        -0.000          -0.000
  -3283455.110 8  -2357922.12445  24131815.236    24131814.5434   24131821.8144
        -0.000          -0.000
  -5180002.952 9  -3565799.40045  24323076.558    24323075.8454   24323081.6264
        -0.000          -0.000
 98  5  3  2 58  0.0000000  0  8  1 17  3 23 21  9  8 31             0.000000016
 -14690639.697 9 -11426812.24248  21849442.889    21849442.3864   21849448.4904
        -0.000          -0.000
   4138336.945 9   3222890.54848  21566504.689    21566503.9704   21566509.4194
        -0.000          -0.000
  -9130483.800 9  -7093353.13448  21531733.151    21531732.8024   21531737.9934
        -0.000          -0.000
   2701896.513 9   2104556.31248  21238793.757    21238793.1304   21238798.3264
        -0.000          -0.000
  -5627942.028 9  -4374988.17548  21184826.572    21184826.0204   21184831.3994
        -0.000          -0.000
  -6640584.407 9  -5021954.74446  23825923.158    23825922.8474   23825928.1284
        -0.000          -0.000
  -3362627.578 8  -2419614.89345  24116749.121    24116748.3824   24116755.7744
        -0.000          -0.000
  -5265984.690 8  -3632798.08445  24306714.599    24306714.0924   24306719.8764
        -0.000          -0.000
 98  5  3  2 58 30.0000000  0  8  1 17  3 23 21  9  8 31            -0.000000013
 -14776472.901 9 -11493695.18148  21833109.369    21833108.8434   21833114.9284
        -0.000          -0.000
   4190108.249 9   3263231.79448  21576356.493    21576355.7504   21576361.1774
        -0.000          -0.000
  -9158201.223 9  -7114951.11448  21526458.652    21526458.3134   21526463.5314
        -0.000          -0.000
   2735918.962 9   2131067.30548  21245268.032    21245267.4074   21245272.5944
        -0.000          -0.000
  -5650869.745 9  -4392853.91948  21180463.554    21180462.9814   21180468.3764
        -0.000          -0.000
  -6674642.093 9  -5048493.15046  23819442.095    23819441.7544   23819446.9984
        -0.000          -0.000
  -3441747.938 8  -2481267.05245  24101693.026    24101692.2564   24101699.6044
        -0.000          -0.000
  -5351636.936 9  -3699540.01945  24290415.328    24290414.9464   24290420.6414
        -0.000          -0.000
 98  5  3  2 59  0.0000000  0  8  1 17  3 23 21  9  8 31            -0.000000033
 -14861922.168 9 -11560278.94448  21816848.854    21816848.3404   21816854.3894
        -0.000          -0.000
   4242264.154 9   3303872.72548  21586281.436    21586280.6894   21586286.1494
        -0.000          -0.000
  -9185302.581 9  -7136069.04648  21521301.402    21521301.0634   21521306.3154
        -0.000          -0.000
   2770111.572 9   2157710.89648  21251774.667    21251774.0334   21251779.2084
        -0.000          -0.000
  -5673536.250 9  -4410516.11748  21176150.249    21176149.6674   21176155.0714
        -0.000          -0.000
  -6708259.255 9  -5074688.26746  23813044.746    23813044.4434   23813049.8254
        -0.000          -0.000
  -3520762.357 8  -2542836.66645  24086657.008    24086656.3154   24086663.5714
        -0.000          -0.000
  -5436927.628 8  -3766000.23245  24274185.172    24274184.6414   24274190.2964
        -0.000          -0.000
 98  5  3  2 59 30.0000000  0  8  1 17  3 23 21  9  8 31            -0.000000054
 -14947018.041 9 -11626587.34048  21800655.577    21800655.0814   21800661.1174
        -0.000          -0.000
   4294763.099 9   3344780.97348  21596271.652    21596270.9134   21596276.4044
        -0.000          -0.000
  -9211828.722 9  -7156738.75548  21516253.644    21516253.3084   21516258.5614
        -0.000          -0.000
   2804462.913 9   2184478.17548  21258311.449    21258310.8484   21258316.0334
        -0.000          -0.000
  -5695974.079 9  -4428000.13248  21171880.432    21171879.8734   21171885.2544
        -0.000          -0.000
  -6741457.597 9  -5100557.03146  23806727.225    23806726.9364   23806732.5354
        -0.000          -0.000
  -3599683.403 9  -2604333.51145  24071638.790    24071638.0924   24071645.2614
        -0.000          -0.000
  -5521861.496 9  -3832182.37745  24258022.670    24258022.1504   24258027.8494
        -0.000          -0.000
 98  5  3  3  0  0.0000000  0  8  1 17  3 23 21  9  8 31            -0.000000061
 -15031757.856 9 -11692618.29148  21784530.081    21784529.5844   21784535.5884
        -0.000          -0.000
   4347598.302 9   3385951.23948  21606325.889    21606325.1424   21606330.6584
        -0.000          -0.000
  -9237768.317 9  -7176951.42148  21511317.475    21511317.1654   21511322.3984
        -0.000          -0.000
   2838989.871 9   2211382.30248  21264881.686    21264881.0694   21264886.2914
        -0.000          -0.000
  -5718192.277 9  -4445313.00348  21167652.419    21167651.8704   21167657.2404
        -0.000          -0.000
  -6774215.187 9  -5126082.37246  23800493.641    23800493.3914   23800499.0744
        -0.000          -0.000
  -3678473.960 9  -2665728.69345  24056645.348    24056644.6314   24056651.7424
        -0.000          -0.000
  -5606430.642 9  -3898080.34645  24241929.619    24241929.0114   24241934.8764
        -0.000          -0.000
 98  5  3  3  0 30.0000000  0  8  1 17  3 23 21  9  8 31            -0.000000055
 -15116126.630 9 -11758360.11848  21768475.227    21768474.7094   21768480.6804
        -0.000          -0.000
   4400756.839 9   3427373.44748  21616441.621    21616440.8694   21616446.4494
        -0.000          -0.000
  -9263122.180 9  -7196707.67048  21506492.813    21506492.4854   21506497.7244
        -0.000          -0.000
   2873670.206 9   2238405.93848  21271481.117    21271480.5114   21271485.7234
        -0.000          -0.000
  -5740211.097 9  -4462470.51948  21163462.371    21163461.8304   21163467.1644
        -0.000          -0.000
  -6806527.197 9  -5151260.47646  23794345.002    23794344.7484   23794350.3144
        -0.000          -0.000
  -3757124.401 9  -2727014.70045  24041678.687    24041677.9434   24041684.9984
        -0.000          -0.000
  -5690660.611 9  -3963714.01345  24225900.890    24225900.4874   24225906.4054
        -0.000          -0.000
 98  5  3  3  1  0.0000000  0  8  1 17  3 23 21  9  8 31            -0.000000037
 -15200132.859 9 -11823819.44648  21752489.347    21752488.8154   21752494.7404
        -0.000          -0.000
   4454218.383 9   3469031.74948  21626614.980    21626614.2864   21626619.8714
        -0.000          -0.000
  -9287915.560 9  -7216027.17548  21501774.784    21501774.4314   21501779.6784
        -0.000          -0.000
   2908490.650 9   2265538.75548  21278107.185    21278106.6034   21278111.8164
        -0.000          -0.000
  -5762068.538 9  -4479502.28448  21159303.062    21159302.5104   21159307.8324
        -0.000          -0.000
  -6838404.008 9  -5176099.48846  23788278.952    23788278.6574   23788284.1424
        -0.000          -0.000
  -3835642.572 9  -2788197.61246  24026737.193    24026736.4774   24026743.3694
        -0.000          -0.000
  -5774551.861 9  -4029083.77145  24209936.947    24209936.5094   24209942.3034
        -0.000          -0.000
 98  5  3  3  1 30.0000000  0  8  1 17  3 23 21  9  8 31            -0.000000023
 -15283816.627 9 -11889027.52048  21736564.786    21736564.2304   21736570.1274
        -0.000          -0.000
   4507977.789 9   3510922.12348  21636845.138    21636844.3844   21636849.9624
        -0.000          -0.000
  -9312174.126 9  -7234929.95248  21497158.528    21497158.1574   21497163.4224
        -0.000          -0.000
   2943422.813 9   2292758.62648  21284754.583    21284754.0114   21284759.2134
        -0.000          -0.000
  -5783800.690 9  -4496436.42348  21155167.560    21155167.0034   21155172.2944
        -0.000          -0.000
  -6869860.352 9  -5200610.89146  23782292.764    23782292.4624   23782298.0724
        -0.000          -0.000
  -3914057.990 9  -2849300.46746  24011815.176    24011814.4674   24011821.3084
        -0.000          -0.000
  -5858119.869 9  -4094201.62145  24194034.294    24194034.0184   24194039.9364
        -0.000          -0.000
 98  5  3  3  2  0.0000000  0  9  1 17  3 23 21  9  8 31 29         -0.000000001
 -15367152.672 9 -11953964.65248  21720706.447    21720705.8784   21720711.7114
        -0.000          -0.000
   4562053.940 9   3553059.35948  21647135.508    21647134.7414   21647140.3454
        -0.000          -0.000
  -9335882.329 9  -7253403.87748  21492646.978    21492646.6204   21492651.8844
        -0.000          -0.000
   2978473.237 9   2320070.64648  21291424.487    21291423.8644   21291429.0764
        -0.000          -0.000
  -5805379.406 9  -4513250.99348  21151061.282    21151060.7254   21151065.9784
        -0.000          -0.000
  -6900886.712 9  -5224787.20746  23776388.291    23776388.0594   23776393.7744
        -0.000          -0.000
  -3992361.436 9  -2910316.07446  23996914.399    23996913.6534   23996920.5024
        -0.000          -0.000
  -5941353.355 9  -4159058.80845  24178195.673    24178195.2944   24178201.0454
        -0.000          -0.000
  -1837216.099 8  -1419809.05645  24531513.453    24531512.7974   24531522.5944
        -0.000          -0.000
 98  5  3  3  2 30.0000000  0  9  1 17  3 23 21  9  8 31 29          0.000000008
 -15450126.451 9 -12018619.49248  21704917.007    21704916.4494   21704922.2384
        -0.000          -0.000
   4616447.792 9   3595444.10248  21657486.271    21657485.5454   21657491.2104
        -0.000          -0.000
  -9359034.773 9  -7271444.73748  21488241.196    21488240.8514   21488246.1224
        -0.000          -0.000
   3013635.840 9   2347470.08348  21298115.716    21298115.0924   21298120.2994
        -0.000          -0.000
  -5826783.913 9  -4529929.82348  21146988.151    21146987.6054   21146992.8214
        -0.000          -0.000
  -6931489.660 9  -5248633.59646  23770564.811    23770564.6004   23770570.1744
        -0.000          -0.000
  -4070572.990 9  -2971260.07346  23982031.200    23982030.5254   23982037.3294
        -0.000          -0.000
  -6024235.165 9  -4223641.98045  24162423.825    24162423.3024   24162429.0514
        -0.000          -0.000
  -1944837.637 9  -1503669.70445  24511033.515    24511033.0254   24511042.7474
        -0.000          -0.000
 98  5  3  3  3  0.0000000  0  9  1 17  3 23 21  9  8 31 29          0.000000014
 -15532743.977 9 -12082996.73948  21689195.325    21689194.8134   21689200.5914
        -0.000          -0.000
   4671160.383 9   3638077.25548  21667897.800    21667897.0474   21667902.7144
        -0.000          -0.000
  -9381639.569 9  -7289058.86048  21483939.638    21483939.2784   21483944.5214
        -0.000          -0.000
   3048924.838 9   2374968.00448  21304830.989    21304830.3534   21304835.5594
        -0.000          -0.000
  -5847990.423 9  -4546454.37348  21142952.691    21142952.1494   21142957.3164
        -0.000          -0.000
  -6961669.603 9  -5272150.36246  23764821.947    23764821.7064   23764827.1844
        -0.000          -0.000
  -4148709.073 9  -3032145.27446  23967162.457    23967161.8094   23967168.6174
        -0.000          -0.000
  -6106746.340 8  -4287936.35145  24146722.424    24146721.9534   24146727.6154
        -0.000          -0.000
  -2052377.975 8  -1587467.08445  24490569.032    24490568.6834   24490578.3114
        -0.000          -0.000
 98  5  3  3  3 30.0000000  0  9  1 17  3 23 21  9  8 31 29          0.000000019
 -15614985.071 9 -12147080.66348  21673545.350    21673544.8074   21673550.6014
        -0.000          -0.000
   4726192.948 9   3680959.72048  21678370.116    21678369.3874   21678375.0484
        -0.000          -0.000
  -9403672.375 9  -7306227.27648  21479746.976    21479746.5814   21479751.8034
        -0.000          -0.000
   3084354.182 9   2402575.28648  21311572.895    21311572.2954   21311577.4944
        -0.000          -0.000
  -5868970.547 9  -4562802.51848  21138960.312    21138959.7434   21138964.9114
        -0.000          -0.000
  -6991417.918 9  -5295330.82746  23759161.015    23759160.7964   23759166.1764
        -0.000          -0.000
  -4226751.286 9  -3092957.32546  23952311.490    23952310.9004   23952317.6614
        -0.000          -0.000
  -6188875.712 9  -4351933.18246  24131093.725    24131093.2424   24131098.8814
        -0.000          -0.000
  -2159836.101 8  -1671200.41245  24470120.326    24470119.9394   24470129.5664
        -0.000          -0.000
 98  5  3  3  4  0.0000000  0  9  1 17  3 23 21  9  8 31 29          0.000000032
 -15696816.920 9 -12210845.69548  21657973.274    21657972.6984   21657978.4924
        -0.000          -0.000
   4781552.640 9   3724097.14148  21688904.805    21688904.0244   21688909.6764
        -0.000          -0.000
  -9425093.399 9  -7322918.98048  21475670.662    21475670.2934   21475675.5014
        -0.000          -0.000
   3119943.986 9   2430307.60248  21318345.423    21318344.8374   21318350.0544
        -0.000          -0.000
  -5889707.782 9  -4578961.39848  21135014.132    21135013.5854   21135018.7294
        -0.000          -0.000
  -7020709.723 9  -5318155.55046  23753586.977    23753586.7444   23753592.0694
        -0.000          -0.000
  -4304667.586 9  -3153671.26546  23937484.480    23937483.8454   23937490.4984
        -0.000          -0.000
  -6270615.018 9  -4415626.05846  24115539.145    24115538.7004   24115544.4984
        -0.000          -0.000
  -2267182.726 9  -1754846.85345  24449692.624    24449692.3104   24449701.8274
        -0.000          -0.000
 98  5  3  3  4 30.0000000  0  9  1 17  3 23 21  9  8 31 29          0.000000047
 -15778274.665 9 -12274319.22048  21642472.324    21642471.7594   21642477.5654
        -0.000          -0.000
   4837216.613 9   3767471.61548  21699497.382    21699496.6114   21699502.2134
        -0.000          -0.000
  -9445910.852 9  -7339140.36248  21471709.228    21471708.8654   21471714.0684
        -0.000          -0.000
   3155673.919 9   2458149.11548  21325144.631    21325144.0204   21325149.2324
        -0.000          -0.000
  -5910240.351 9  -4594960.79448  21131106.907    21131106.3704   21131111.5244
        -0.000          -0.000
  -7049554.901 9  -5340632.26946  23748097.963    23748097.7234   23748102.9494
        -0.000          -0.000
  -4382477.986 9  -3214302.68246  23922677.557    23922676.9264   23922683.5914
        -0.000          -0.000
  -6351985.021 9  -4479031.20446  24100054.721    24100054.4004   24100060.1404
        -0.000          -0.000
  -2374429.519 8  -1838415.49945  24429283.945    24429283.6894   24429293.2374
        -0.000          -0.000
 98  5  3  3  5  0.0000000  0  9  1 17  3 23 21  9  8 31 29          0.000000065
 -15859363.128 9 -12337505.01148  21627041.673    21627041.1114   21627046.9074
        -0.000          -0.000
   4893192.940 9   3811089.48948  21710149.422    21710148.6074   21710154.1944
        -0.000          -0.000
  -9466115.528 9  -7354884.26648  21467864.399    21467864.0474   21467869.2374
        -0.000          -0.000
   3191564.025 9   2486115.43348  21331974.288    21331973.6724   21331978.8814
        -0.000          -0.000
  -5930582.213 9  -4610811.59248  21127235.967    21127235.4394   21127240.5824
        -0.000          -0.000
  -7077946.809 9  -5362755.77146  23742695.152    23742694.8454   23742700.1084
        -0.000          -0.000
  -4460157.439 9  -3274832.06146  23907895.614    23907894.8994   23907901.8014
        -0.000          -0.000
  -6432992.071 9  -4542153.51546  24084639.453    24084639.2114   24084644.9884
        -0.000          -0.000
  -2481570.473 8  -1921901.71845  24408895.738    24408895.4444   24408904.7884
        -0.000          -0.000
 98  5  3  3  5 30.0000000  0  9  1 17  3 23 21  9  8 31 29          0.000000076
 -15940106.475 9 -12400421.85348  21611676.694    21611676.1784   21611681.9334
        -0.000          -0.000
   4949471.872 9   3854943.17248  21720858.960    21720858.1734   21720863.7434
        -0.000          -0.000
  -9485710.841 9  -7370153.33248  21464135.597    21464135.2684   21464140.4164
        -0.000          -0.000
   3227597.342 9   2514193.35248  21338831.207    21338830.6254   21338835.8064
        -0.000          -0.000
  -5950773.446 9  -4626545.01048  21123393.690    21123393.1694   21123398.3404
        -0.000          -0.000
  -7105903.824 9  -5384540.36746  23737374.919    23737374.5984   23737380.0684
        -0.000          -0.000
  -4537688.716 9  -3335245.98646  23893141.836    23893141.1134   23893148.0764
        -0.000          -0.000
  -6513665.667 9  -4605015.99846  24069287.758    24069287.5294   24069293.2974
        -0.000          -0.000
  -2588621.614 8  -2005317.92745  24388524.378    24388524.1664   24388533.4464
        -0.000          -0.000
 98  5  3  3  6  0.0000000  0  9  1 17  3 23 21  9  8 31 29          0.000000074
 -16020527.889 9 -12463087.84048  21596372.964    21596372.4424   21596378.2014
        -0.000          -0.000
   5006062.305 9   3899039.57048  21731627.778    21731627.0384   21731632.5694
        -0.000          -0.000
  -9504719.735 9  -7384965.46148  21460518.310    21460517.9834   21460523.1194
        -0.000          -0.000
   3263754.138 9   2542367.47948  21345711.597    21345711.0224   21345716.2024
        -0.000          -0.000
  -5970829.144 9  -4642172.82048  21119577.222    21119576.6814   21119581.8784
        -0.000          -0.000
  -7133431.722 9  -5405990.60346  23732136.362    23732136.0744   23732141.7504
        -0.000          -0.000
  -4615087.412 9  -3395556.59545  23878413.173    23878412.4894   23878419.4304
        -0.000          -0.000
  -6594017.818 9  -4667627.99346  24053997.354    24053996.9544   24054002.7984
        -0.000          -0.000
  -2695596.203 8  -2088674.49645  24368167.475    24368167.3104   24368176.4904
        -0.000          -0.000
 98  5  3  3  6 30.0000000  0  9  1 17  3 23 21  9  8 31 29          0.000000072
 -16100592.500 9 -12525475.76448  21581137.141    21581136.6204   21581142.3564
        -0.000          -0.000
   5062998.299 9   3943405.20848  21742462.338    21742461.5674   21742467.1804
        -0.000          -0.000
  -9523121.943 9  -7399304.83348  21457016.491    21457016.1474   21457021.2794
        -0.000          -0.000
   3300049.157 9   2570649.32348  21352618.286    21352617.7004   21352622.8964
        -0.000          -0.000
  -5990707.506 9  -4657662.44148  21115794.500    21115793.9304   21115799.1404
        -0.000          -0.000
  -7160514.060 9  -5427093.66146  23726982.693    23726982.4224   23726988.0354
        -0.000          -0.000
  -4692325.390 9  -3455741.96946  23863715.287    23863714.6144   23863721.4114
        -0.000          -0.000
  -6674010.655 9  -4729960.04546  24038775.265    24038774.8734   24038780.4704
        -0.000          -0.000
  -2802469.882 8  -2171952.43945  24347829.807    24347829.5704   24347838.7924
        -0.000          -0.000
 98  5  3  3  7  0.0000000  0  9  1 17  3 23 21  9  8 31 29          0.000000065
 -16180276.876 9 -12587567.42148  21565973.629    21565973.1774   21565978.8644
        -0.000          -0.000
   5120279.657 9   3988039.98148  21753362.629    21753361.8914   21753367.5154
        -0.000          -0.000
  -9540921.275 9  -7413174.44748  21453629.407    21453629.0524   21453634.1704
        -0.000          -0.000
   3336469.144 9   2599028.53648  21359548.834    21359548.2034   21359553.4014
        -0.000          -0.000
  -6010400.497 9  -4673007.62848  21112047.016    21112046.4744   21112051.6934
        -0.000          -0.000
  -7187150.646 9  -5447849.40146  23721913.863    23721913.6314   23721919.1344
        -0.000          -0.000
  -4769395.111 9  -3515796.24845  23849049.336    23849048.5984   23849055.4944
        -0.000          -0.000
  -6753648.213 9  -4792015.23346  24023620.714    24023620.3744   24023625.8324
        -0.000          -0.000
  -2909246.589 9  -2255154.81145  24327510.596    24327510.3654   24327519.6644
        -0.000          -0.000
 98  5  3  3  7 30.0000000  0  9  1 17  3 23 21  9  8 31 29          0.000000055
 -16259568.773 9 -12649353.21448  21550884.821    21550884.3634   21550890.0444
        -0.000          -0.000
   5177914.099 9   4032949.88248  21764330.143    21764329.4184   21764335.0714
        -0.000          -0.000
  -9558124.315 9  -7426579.41548  21450355.793    21450355.4284   21450360.5464
        -0.000          -0.000
   3372989.046 9   2627485.60748  21366498.287    21366497.6624   21366502.8484
        -0.000          -0.000
  -6029890.112 9  -4688194.33248  21108338.269    21108337.7024   21108342.9354
        -0.000          -0.000
  -7213332.855 9  -5468251.08146  23716931.574    23716931.3504   23716936.8434
        -0.000          -0.000
  -4846311.924 9  -3575731.36845  23834412.441    23834411.6704   23834418.5984
        -0.000          -0.000
  -6832917.310 9  -4853783.30446  24008536.368    24008535.8984   24008541.3274
        -0.000          -0.000
  -3015921.062 9  -2338277.53945  24307210.849    24307210.7384   24307219.9874
        -0.000          -0.000
 98  5  3  3  8  0.0000000  0  9  1 17  3 23 21  9  8 31 29          0.000000041
 -16338439.900 9 -12710811.16148  21535876.067    21535875.6144   21535881.2924
        -0.000          -0.000
   5235907.912 9   4078139.78048  21775366.039    21775365.3184   21775370.9714
        -0.000          -0.000
  -9574731.970 9  -7439520.44748  21447195.490    21447195.1364   21447200.1994
        -0.000          -0.000
   3409598.775 9   2656012.67548  21373464.849    21373464.2394   21373469.4234
        -0.000          -0.000
  -6049153.647 9  -4703204.87148  21104672.542    21104671.9704   21104677.2194
        -0.000          -0.000
  -7239049.019 9  -5488289.60746  23712037.915    23712037.6384   23712043.2074
        -0.000          -0.000
  -4923095.889 9  -3635562.98845  23819800.901    23819800.1554   23819807.0524
        -0.000          -0.000
  -6911800.029 9  -4915250.30346  23993525.368    23993524.8594   23993530.4654
        -0.000          -0.000
  -3122489.496 9  -2421317.63145  24286931.422    24286931.1874   24286940.4524
        -0.000          -0.000
 98  5  3  3  8 30.0000000  0  9  1 17  3 23 21  9  8 31 29          0.000000019
 -16416877.971 9 -12771931.70948  21520949.753    21520949.2574   21520954.9414
        -0.000          -0.000
   5294246.776 9   4123598.59548  21786467.595    21786466.8334   21786472.5474
        -0.000          -0.000
  -9590746.939 9  -7451999.64348  21444147.938    21444147.5564   21444152.6274
        -0.000          -0.000
   3446308.169 9   2684617.40548  21380450.392    21380449.7934   21380454.9854
        -0.000          -0.000
  -6068196.999 9  -4718043.84348  21101048.688    21101048.1284   21101053.3784
        -0.000          -0.000
  -7264302.204 9  -5507967.35946  23707232.346    23707232.0554   23707237.5594
        -0.000          -0.000
  -4999747.753 9  -3695291.65245  23805214.531    23805213.8044   23805220.6594
        -0.000          -0.000
  -6990299.522 9  -4976418.69646  23978587.405    23978586.8804   23978592.4984
        -0.000          -0.000
  -3228951.290 9  -2504274.64345  24266672.165    24266672.0444   24266681.0564
        -0.000          -0.000
 98  5  3  3  9  0.0000000  0  9  1 17  3 23 21  9  8 31 29          0.000000004
 -16494879.279 9 -12832711.93548  21506106.563    21506106.0334   21506111.7254
        -0.000          -0.000
   5352944.429 9   4169336.97948  21797637.416    21797636.6304   21797642.4154
        -0.000          -0.000
  -9606166.003 9  -7464014.50248  21441213.768    21441213.3874   21441218.4674
        -0.000          -0.000
   3483153.152 9   2713327.78648  21387461.801    21387461.1894   21387466.3694
        -0.000          -0.000
  -6087010.514 9  -4732703.71448  21097468.583    21097468.0174   21097473.2564
        -0.000          -0.000
  -7289075.677 9  -5527271.32146  23702518.171    23702517.8194   23702523.2214
        -0.000          -0.000
  -5076243.953 9  -3754899.03445  23790657.735    23790656.9614   23790663.8174
        -0.000          -0.000
  -7068385.323 9  -5037264.73546  23963728.066    23963727.6964   23963733.3814
        -0.000          -0.000
  -3335283.101 9  -2587130.36745  24246437.757    24246437.6124   24246446.6314
        -0.000          -0.000
 98  5  3  3  9 30.0000000  0  9  1 17  3 23 21  9  8 31 29         -0.000000002
 -16572458.248 9 -12893163.10648  21491343.738    21491343.1934   21491348.8844
        -0.000          -0.000
   5411995.890 9   4215351.05348  21808874.570    21808873.7614   21808879.6244
        -0.000          -0.000
  -9620993.077 9  -7475568.07148  21438392.242    21438391.8504   21438396.9034
        -0.000          -0.000
   3520138.298 9   2742147.38348  21394499.795    21394499.2164   21394504.3894
        -0.000          -0.000
  -6105600.060 9  -4747189.07148  21093931.103    21093930.5364   21093935.7734
        -0.000          -0.000
  -7313377.286 9  -5546207.60646  23697893.676    23697893.3304   23697898.7484
        -0.000          -0.000
  -5152581.620 9  -3814382.88545  23776131.119    23776130.3864   23776137.1994
        -0.000          -0.000
  -7146054.493 9  -5097786.12646  23948948.130    23948947.6794   23948953.3784
        -0.000          -0.000
  -3441483.201 9  -2669883.46445  24226228.244    24226228.2624   24226237.2574
        -0.000          -0.000
 98  5  3  3 10  0.0000000  0  9  1 17  3 23 21  9  8 31 29         -0.000000004
 -16649619.420 9 -12953288.68348  21476660.437    21476659.8984   21476665.5864
        -0.000          -0.000
   5471388.407 9   4261630.86148  21820176.649    21820175.8464   21820181.6834
        -0.000          -0.000
  -9635225.654 9  -7486658.39548  21435683.841    21435683.4754   21435688.4884
        -0.000          -0.000
   3557274.454 9   2771084.65448  21401566.547    21401565.9844   21401571.1604
        -0.000          -0.000
  -6123983.538 9  -4761513.84748  21090432.785    21090432.2484   21090437.4924
        -0.000          -0.000
  -7337205.298 9  -5564774.80346  23693359.211    23693358.8794   23693364.3844
        -0.000          -0.000
  -5228755.105 9  -3873738.81345  23761635.784    23761635.1224   23761641.7084
        -0.000          -0.000
  -7223318.459 9  -5157991.75846  23934245.312    23934244.7174   23934250.5444
        -0.000          -0.000
  -3547552.357 9  -2752534.51945  24206043.793    24206043.6654   24206052.6154
        -0.000          -0.000
 98  5  3  3 10 30.0000000  0  9  1 17  3 23 21  9  8 31 29          0.000000003
 -16726390.936 9 -13013110.57348  21462051.219    21462050.6924   21462056.4054
        -0.000          -0.000
   5531101.992 9   4308160.85448  21831539.784    21831539.0004   21831544.8924
        -0.000          -0.000
  -9648859.584 9  -7497282.24348  21433089.400    21433089.0514   21433094.0434
        -0.000          -0.000
   3594560.778 9   2800138.93848  21408661.934    21408661.3424   21408666.5404
        -0.000          -0.000
  -6142182.086 9  -4775694.52948  21086969.726    21086969.1854   21086974.4434
        -0.000          -0.000
  -7360570.842 9  -5582981.65246  23688912.808    23688912.4874   23688918.0224
        -0.000          -0.000
  -5304751.436 9  -3932956.67446  23747174.172    23747173.5434   23747180.0954
        -0.000          -0.000
  -7300173.161 9  -5217878.49146  23919620.110    23919619.7624   23919625.4584
        -0.000          -0.000
  -3653490.536 8  -2835083.51645  24185884.283    24185884.1214   24185892.9604
        -0.000          -0.000
 98  5  3  3 11  0.0000000  0  9  1 17  3 23 21  9  8 31 29          0.000000012
 -16802805.635 9 -13072654.39348  21447509.921    21447509.4284   21447515.1464
        -0.000          -0.000
   5591112.831 9   4354922.50148  21842959.523    21842958.7244   21842964.6324
        -0.000          -0.000
  -9661913.805 9  -7507454.36148  21430605.316    21430604.9314   21430609.9084
        -0.000          -0.000
   3631960.712 9   2829281.75048  21415778.881    21415778.3254   21415783.5214
        -0.000          -0.000
  -6160224.366 9  -4789753.43848  21083536.396    21083535.8424   21083541.1004
        -0.000          -0.000
  -7383485.975 9  -5600837.57346  23684552.133    23684551.8464   23684557.3204
        -0.000          -0.000
  -5380588.236 9  -3992050.22446  23732743.020    23732742.3544   23732748.7564
        -0.000          -0.000
  -7376632.510 9  -5277457.15746  23905070.494    23905069.9154   23905075.6334
        -0.000          -0.000
  -3759324.800 8  -2917551.56245  24165744.381    24165744.3244   24165753.1804
        -0.000          -0.000
 98  5  3  3 11 30.0000000  0  9  1 17  3 23 21  9  8 31 29          0.000000024
 -16878836.841 9 -13131899.41448  21433041.646    21433041.1254   21433046.8404
        -0.000          -0.000
   5651432.124 9   4401924.49748  21854437.928    21854437.1484   21854443.0144
        -0.000          -0.000
  -9674377.840 9  -7517166.59748  21428233.487    21428233.1034   21428238.0704
        -0.000          -0.000
   3669476.999 9   2858515.22548  21422918.016    21422917.4634   21422922.6544
        -0.000          -0.000
  -6178113.523 9  -4803693.03448  21080132.187    21080131.6594   21080136.9014
        -0.000          -0.000
  -7405924.436 9  -5618322.04146  23680282.251    23680281.9334   23680287.4044
        -0.000          -0.000
  -5456252.850 9  -4051009.60746  23718344.468    23718343.7524   23718350.1514
        -0.000          -0.000
  -7452695.241 9  -5336726.76446  23890596.289    23890595.5954   23890601.2434
        -0.000          -0.000
  -3865056.533 9  -2999939.71545  24145624.199    24145624.1134   24145632.7654
        -0.000          -0.000
 98  5  3  3 12  0.0000000  0  9  1 17  3 23 21  9  8 31 29          0.000000032
 -16954497.611 9 -13190855.83948  21418643.823    21418643.3124   21418648.9834
        -0.000          -0.000
   5712036.050 9   4449148.28648  21865970.590    21865969.7944   21865975.5554
        -0.000          -0.000
  -9686276.573 9  -7526438.34248  21425969.216    21425968.8604   21425973.8314
        -0.000          -0.000
   3707093.624 9   2887826.89148  21430076.256    21430075.6774   21430080.8574
        -0.000          -0.000
  -6195870.350 9  -4817529.51448  21076753.154    21076752.6284   21076757.8994
        -0.000          -0.000
  -7427896.478 9  -5635443.07346  23676101.048    23676100.6874   23676106.1104
        -0.000          -0.000
  -5531759.642 9  -4109846.01846  23703975.884    23703975.1704   23703981.5904
        -0.000          -0.000
  -7528372.287 9  -5395695.84546  23876195.396    23876194.6754   23876200.3714
        -0.000          -0.000
  -3970703.015 8  -3082261.44245  24125520.303    24125520.1204   24125528.7084
        -0.000          -0.000
 98  5  3  3 12 30.0000000  0  9  1 17  3 23 21  9  8 31 29          0.000000041
 -17029784.470 9 -13249520.86948  21404317.207    21404316.6704   21404322.3384
        -0.000          -0.000
   5772922.521 9   4496592.24948  21877556.978    21877556.1834   21877561.8554
        -0.000          -0.000
  -9697606.664 9  -7535266.99148  21423813.191    21423812.8434   21423817.7974
        -0.000          -0.000
   3744813.164 9   2917218.74048  21437254.048    21437253.4884   21437258.6534
        -0.000          -0.000
  -6213480.692 9  -4831251.85048  21073402.015    21073401.4684   21073406.7674
        -0.000          -0.000
  -7449397.334 9  -5652196.97346  23672009.601    23672009.2994   23672014.5684
        -0.000          -0.000
  -5607080.405 9  -4168537.47546  23689642.722    23689642.0334   23689648.5924
        -0.000          -0.000
  -7603653.798 9  -5454356.68646  23861869.744    23861869.0624   23861874.7644
        -0.000          -0.000
  -4076254.975 9  -3164509.51145  24105434.131    24105434.0764   24105442.5274
        -0.000          -0.000
 98  5  3  3 13  0.0000000  0  9  1 17  3 23 21  9  8 31 29          0.000000046
 -17104673.646 9 -13307875.96648  21390066.230    21390065.7064   21390071.3764
        -0.000          -0.000
   5834115.787 9   4544275.29647  21889201.696    21889200.9014   21889206.5804
        -0.000          -0.000
  -9708373.613 9  -7543656.82748  21421764.346    21421763.9824   21421768.9204
        -0.000          -0.000
   3782650.124 9   2946702.08948  21444454.198    21444453.6244   21444458.7764
        -0.000          -0.000
  -6230926.605 9  -4844846.05648  21070082.149    21070081.6164   21070086.9204
        -0.000          -0.000
  -7470413.745 9  -5668573.35346  23668010.227    23668010.0084   23668015.2744
        -0.000          -0.000
  -5682212.083 9  -4227081.56146  23675345.507    23675344.8104   23675351.4784
        -0.000          -0.000
  -7678556.776 9  -5512722.61646  23847616.198    23847615.4204   23847621.1714
        -0.000          -0.000
  -4181698.874 9  -3246673.37946  24085368.794    24085368.6174   24085377.0174
        -0.000          -0.000
 98  5  3  3 13 30.0000000  0  9  1 17  3 23 21  9  8 31 29          0.000000047
 -17179136.620 9 -13365899.02048  21375896.325    21375895.8354   21375901.4494
        -0.000          -0.000
   5895639.547 9   4592215.83947  21900909.242    21900908.4564   21900914.1884
        -0.000          -0.000
  -9718551.486 9  -7551587.64748  21419827.540    21419827.1724   21419832.1264
        -0.000          -0.000
   3820617.896 9   2976287.36648  21451679.207    21451678.6624   21451683.8124
        -0.000          -0.000
  -6248172.671 9  -4858284.54348  21066800.332    21066799.7884   21066805.1004
        -0.000          -0.000
  -7490935.599 9  -5684564.39746  23664104.968    23664104.7514   23664110.0444
        -0.000          -0.000
  -5757144.005 9  -4285470.02946  23661086.432    23661085.7414   23661092.3904
        -0.000          -0.000
  -7753073.065 9  -5570787.21946  23833436.064    23833435.3664   23833441.1784
        -0.000          -0.000
  -4286999.065 9  -3328725.27346  24065330.523    24065330.4984   24065338.7014
        -0.000          -0.000
 98  5  3  3 14  0.0000000  0  9  1 17  3 23 21  9  8 31 29          0.000000045
 -17253192.196 9 -13423604.63048  21361803.955    21361803.4914   21361809.0774
        -0.000          -0.000
   5957494.498 9   4640414.42947  21912679.900    21912679.1074   21912684.8424
        -0.000          -0.000
  -9728125.476 9  -7559047.89648  21418005.640    21418005.2734   21418010.2604
        -0.000          -0.000
   3858695.879 9   3005958.52648  21458925.183    21458924.6164   21458929.7844
        -0.000          -0.000
  -6265209.393 9  -4871559.90048  21063558.320    21063557.8024   21063563.0854
        -0.000          -0.000
  -7510976.780 9  -5700180.87846  23660291.371    23660291.1214   23660296.3074
        -0.000          -0.000
  -5831885.143 9  -4343709.83046  23646863.790    23646863.0284   23646869.5664
        -0.000          -0.000
  -7827206.008 9  -5628553.10346  23819329.047    23819328.2924   23819334.1014
        -0.000          -0.000
  -4392144.514 9  -3410656.60346  24045321.870    24045321.8714   24045329.9804
        -0.000          -0.000
 98  5  3  3 14 30.0000000  0  9  1 17  3 23 21  9  8 31 29          0.000000040
 -17326842.016 9 -13480994.08448  21347788.855    21347788.3844   21347793.9204
        -0.000          -0.000
   6019704.161 9   4688889.43347  21924518.034    21924517.2424   21924523.0034
        -0.000          -0.000
  -9737083.166 9  -7566027.91848  21416301.036    21416300.6844   21416305.6954
        -0.000          -0.000
   3896888.473 9   3035718.98748  21466193.007    21466192.4344   21466197.6094
        -0.000          -0.000
  -6282035.350 9  -4884671.02548  21060356.453    21060355.8894   21060361.1594
        -0.000          -0.000
  -7530538.082 9  -5715423.42046  23656568.934    23656568.6884   23656573.9174
        -0.000          -0.000
  -5906439.350 9  -4401803.93246  23632676.415    23632675.7104   23632682.4264
        -0.000          -0.000
  -7900946.211 9  -5686012.96746  23805296.736    23805296.0464   23805301.6874
        -0.000          -0.000
  -4497126.215 9  -3492460.33146  24025344.522    24025344.4804   24025352.4944
        -0.000          -0.000
 98  5  3  3 15  0.0000000  0  9  1 17  3 23 21  9  8 31 29          0.000000030
 -17400075.705 9 -13538059.28948  21333852.951    21333852.4714   21333857.9714
        -0.000          -0.000
   6082280.491 9   4737650.16747  21936425.962    21936425.1794   21936430.9614
        -0.000          -0.000
  -9745424.609 9  -7572527.75748  21414713.663    21414713.3034   21414718.3544
        -0.000          -0.000
   3935190.621 9   3065564.81648  21473481.672    21473481.0884   21473486.2554
        -0.000          -0.000
  -6298657.037 9  -4897622.98148  21057193.462    21057192.8894   21057198.1214
        -0.000          -0.000
  -7549613.090 9  -5730287.06146  23652938.913    23652938.6524   23652943.9034
        -0.000          -0.000
  -5980829.081 9  -4459769.92346  23618520.461    23618519.8194   23618526.4324
        -0.000          -0.000
  -7974282.934 9  -5743158.42246  23791341.131    23791340.4274   23791346.0644
        -0.000          -0.000
  -4601944.741 9  -3574136.93546  24005398.122    24005398.1294   24005406.0754
        -0.000          -0.000
 98  5  3  3 15 30.0000000  0  9  1 17  3 23 21  9  8 31 29          0.000000025
 -17472904.273 9 -13594808.83048  21319994.166    21319993.6664   21319999.1494
        -0.000          -0.000
   6145195.474 9   4786674.78747  21948398.402    21948397.6404   21948403.4304
        -0.000          -0.000
  -9753151.953 9  -7578549.07148  21413243.147    21413242.8304   21413247.9054
        -0.000          -0.000
   3973585.314 9   3095482.76048  21480787.971    21480787.3604   21480792.5404
        -0.000          -0.000
  -6315098.921 9  -4910434.82948  21054064.676    21054064.0954   21054069.3134
        -0.000          -0.000
  -7568204.889 9  -5744774.15846  23649401.006    23649400.7314   23649405.9564
        -0.000          -0.000
  -6055054.052 9  -4517607.50646  23604395.920    23604395.2184   23604401.7824
        -0.000          -0.000
  -8047197.868 9  -5799975.19946  23777465.929    23777465.1334   23777470.7384
        -0.000          -0.000
  -4706611.884 9  -3655695.55146  23985480.485    23985480.5284   23985488.3564
        -0.000          -0.000
 98  5  3  3 16  0.0000000  0  9  1 17  3 23 21  9  8 31 29          0.000000024
 -17545330.925 9 -13651245.14348  21306211.794    21306211.2974   21306216.8114
        -0.000          -0.000
   6208447.672 9   4835962.16947  21960434.825    21960434.0984   21960439.9974
        -0.000          -0.000
  -9760281.388 9  -7584104.48648  21411886.485    21411886.1504   21411891.2114
        -0.000          -0.000
   4012094.030 9   3125489.55048  21488115.930    21488115.3174   21488120.4754
        -0.000          -0.000
  -6331374.997 9  -4923117.47548  21050967.462    21050966.8794   21050972.0804
        -0.000          -0.000
  -7586305.855 9  -5758878.81846  23645956.613    23645956.2654   23645961.4884
        -0.000          -0.000
  -6129097.745 9  -4575303.83946  23590305.819    23590305.1624   23590311.7184
        -0.000          -0.000
  -8119686.647 9  -5856459.93346  23763671.579    23763670.9234   23763676.6184
        -0.000          -0.000
  -4811138.855 9  -3737144.96846  23965589.606    23965589.5084   23965597.3424
        -0.000          -0.000
 98  5  3  3 16 30.0000000  0  9  1 17  3 23 21  9  8 31 29          0.000000030
 -17617330.148 9 -13707348.29148  21292510.727    21292510.2424   21292515.7854
        -0.000          -0.000
   6272036.983 9   4885512.23747  21972535.508    21972534.7514   21972540.7034
        -0.000          -0.000
  -9766830.319 9  -7589207.56048  21410640.296    21410639.9624   21410645.0264
        -0.000          -0.000
   4050738.992 9   3155602.50748  21495469.835    21495469.2164   21495474.3814
        -0.000          -0.000
  -6347483.897 9  -4935669.85748  21047902.010    21047901.4314   21047906.6164
        -0.000          -0.000
  -7603903.236 9  -5772591.02246  23642607.932    23642607.5744   23642612.7734
        -0.000          -0.000
  -6202947.128 9  -4632848.76946  23576252.748    23576252.1604   23576258.5834
        -0.000          -0.000
  -8191740.908 9  -5912606.07346  23749960.102    23749959.4964   23749965.1144
        -0.000          -0.000
  -4915529.010 9  -3818487.77246  23945724.771    23945724.6104   23945732.3824
        -0.000          -0.000
 98  5  3  3 17  0.0000000  0  9  1 17  3 23 21  9  8 31 29          0.000000023
 -17688903.460 9 -13763119.60648  21278890.712    21278890.2314   21278895.7794
        -0.000          -0.000
   6335925.951 9   4935295.78647  21984693.164    21984692.4344   21984698.4244
        -0.000          -0.000
  -9772823.875 9  -7593877.88148  21409499.833    21409499.4424   21409504.5134
        -0.000          -0.000
   4089493.314 9   3185800.67548  21502844.574    21502843.9314   21502849.0704
        -0.000          -0.000
  -6363430.480 9  -4948095.75848  21044867.453    21044866.9024   21044872.0844
        -0.000          -0.000
  -7621019.519 9  -5785928.35646  23639350.720    23639350.3984   23639355.5964
        -0.000          -0.000
  -6276605.760 9  -4690245.06446  23562235.963    23562235.3844   23562241.6784
        -0.000          -0.000
  -8263387.275 9  -5968434.37446  23736326.210    23736325.5754   23736331.1174
        -0.000          -0.000
  -5019798.762 9  -3899736.75646  23925882.714    23925882.5764   23925890.3854
        -0.000          -0.000
 98  5  3  3 17 30.0000000  0  9  1 17  3 23 21  9  8 31 29          0.000000024
 -17760020.935 9 -13818535.75748  21265357.442    21265356.9704   21265362.5134
        -0.000          -0.000
   6400149.156 9   4985339.80847  21996914.415    21996913.7134   21996919.6974
        -0.000          -0.000
  -9778231.396 9  -7598091.53148  21408470.768    21408470.4244   21408475.5144
        -0.000          -0.000
   4128385.883 9   3216106.57348  21510245.604    21510244.9574   21510250.0864
        -0.000          -0.000
  -6379179.558 9  -4960367.75748  21041870.480    21041869.9564   21041875.1424
        -0.000          -0.000
  -7637632.421 9  -5798873.44846  23636189.409    23636189.0974   23636194.3174
        -0.000          -0.000
  -6350025.362 9  -4747455.08046  23548264.638    23548264.0364   23548270.2504
        -0.000          -0.000
  -8334592.878 9  -6023919.22346  23722776.209    23722775.6744   23722781.1694
        -0.000          -0.000
  -5123908.337 9  -3980860.94846  23906071.065    23906071.0824   23906078.7254
        -0.000          -0.000
 98  5  3  3 18  0.0000000  0  9  1 17  3 23 21  9  8 31 29          0.000000030
 -17830695.234 9 -13873606.61248  21251908.581    21251908.0404   21251913.5834
        -0.000          -0.000
   6464713.829 9   5035649.89447  22009200.748    22009200.0184   22009205.9674
        -0.000          -0.000
  -9783051.264 9  -7601847.28248  21407553.601    21407553.2594   21407558.3524
        -0.000          -0.000
   4167406.800 9   3246512.48248  21517671.055    21517670.3974   21517675.5164
        -0.000          -0.000
  -6394729.648 9  -4972484.70248  21038911.397    21038910.8654   21038916.0694
        -0.000          -0.000
  -7653750.833 9  -5811433.23146  23633121.985    23633121.7314   23633127.0144
        -0.000          -0.000
  -6423207.900 9  -4804480.37846  23534338.372    23534337.7874   23534343.9864
        -0.000          -0.000
  -8405360.087 9  -6079062.45646  23709309.644    23709309.1284   23709314.5174
        -0.000          -0.000
  -5227862.934 9  -4061864.35746  23886289.041    23886289.0264   23886296.6174
        -0.000          -0.000
 98  5  3  3 18 30.0000000  0  9  1 17  3 23 21  9  8 31 29          0.000000042
 -17900942.874 9 -13928345.00048  21238540.868    21238540.3444   21238545.8604
        -0.000          -0.000
   6529598.538 9   5086209.36347  22021547.943    22021547.2504   22021553.1324
        -0.000          -0.000
  -9787265.937 9  -7605131.45848  21406751.637    21406751.2644   21406756.3604
        -0.000          -0.000
   4206518.683 9   3276989.27048  21525113.800    21525113.1744   21525118.2394
        -0.000          -0.000
  -6410097.291 9  -4984459.47948  21035987.003    21035986.4704   21035991.7194
        -0.000          -0.000
  -7669392.075 9  -5823621.19446  23630145.467    23630145.2014   23630150.5514
        -0.000          -0.000
  -6496164.077 9  -4861329.29046  23520455.236    23520454.6494   23520460.9274
        -0.000          -0.000
  -8475685.973 9  -6133861.82646  23695926.900    23695926.4524   23695931.8254
        -0.000          -0.000
  -5331658.729 9  -4142744.04146  23866537.307    23866537.1714   23866544.8934
        -0.000          -0.000
 98  5  3  3 19  0.0000000  0  9  1 17  3 23 21  9  8 31 29          0.000000055
 -17970789.006 9 -13982770.52148  21225249.570    21225249.0264   21225254.5274
        -0.000          -0.000
   6594784.550 9   5137003.64347  22033952.423    22033951.7524   22033957.6504
        -0.000          -0.000
  -9790868.541 9  -7607938.69948  21406066.143    21406065.7694   21406070.8594
        -0.000          -0.000
   4245694.619 9   3307515.96948  21532568.741    21532568.0934   21532573.1634
        -0.000          -0.000
  -6425314.395 9  -4996316.95648  21033091.226    21033090.7044   21033095.9824
        -0.000          -0.000
  -7684568.800 9  -5835447.19246  23627257.486    23627257.2004   23627262.6554
        -0.000          -0.000
  -6568916.488 9  -4918019.41846  23506610.775    23506610.2034   23506616.4774
        -0.000          -0.000
  -8545586.902 9  -6188330.05446  23682625.078    23682624.6004   23682630.0994
        -0.000          -0.000
  -5435300.669 9  -4223503.84946  23846814.852    23846814.6944   23846822.2994
        -0.000          -0.000
 98  5  3  3 19 30.0000000  0  9  1 17  3 23 21  9  8 31 29          0.000000065
 -18040259.017 9 -14036902.95748  21212029.868    21212029.2984   21212034.7714
        -0.000          -0.000
   6660262.822 9   5188025.62947  22046412.578    22046411.8764   22046417.8564
        -0.000          -0.000
  -9793867.136 9  -7610275.28848  21405495.533    21405495.1544   21405500.2694
        -0.000          -0.000
   4284932.156 9   3338090.66648  21540035.396    21540034.7544   21540039.8244
        -0.000          -0.000
  -6440411.330 9  -5008080.79748  21030218.370    21030217.8234   21030223.1124
        -0.000          -0.000
  -7699281.895 9  -5846911.91846  23624457.831    23624457.5584   23624462.8184
        -0.000          -0.000
  -6641478.372 9  -4974561.09446  23492802.678    23492802.1024   23492808.2594
        -0.000          -0.000
  -8615069.738 9  -6242472.51346  23669402.871    23669402.2944   23669407.9994
        -0.000          -0.000
  -5538806.435 9  -4304157.55546  23827118.159    23827118.0104   23827125.6324
        -0.000          -0.000
 98  5  3  3 20  0.0000000  0  9  1 17  3 23 21  9  8 31 29          0.000000061
 -18109346.324 9 -14090737.18248  21198882.914    21198882.3694   21198887.8374
        -0.000          -0.000
   6726020.043 9   5239264.99547  22058925.825    22058925.0744   22058931.0744
        -0.000          -0.000
  -9796266.657 9  -7612145.04648  21405038.914    21405038.5604   21405043.6724
        -0.000          -0.000
   4324240.101 9   3368720.22948  21547515.440    21547514.7864   21547519.8564
        -0.000          -0.000
  -6455393.365 9  -5019755.10548  21027367.375    21027366.8374   21027372.1164
        -0.000          -0.000
  -7713532.532 9  -5858016.29846  23621746.058    23621745.7764   23621751.0214
        -0.000          -0.000
  -6713857.513 9  -5030960.35446  23479029.353    23479028.7074   23479034.9674
        -0.000          -0.000
  -8684152.071 9  -6296302.87446  23656256.955    23656256.3554   23656262.0414
        -0.000          -0.000
  -5642181.086 9  -4384709.08346  23807446.395    23807446.3184   23807453.9904
        -0.000          -0.000
 98  5  3  3 20 30.0000000  0  9  1 17  3 23 21  9  8 31 29          0.000000052
 -18177996.315 9 -14144230.64848  21185819.180    21185818.6734   21185824.1344
        -0.000          -0.000
   6792082.133 9   5290741.91447  22071497.023    22071496.2914   22071502.2914
        -0.000          -0.000
  -9798058.936 9  -7613541.63348  21404697.874    21404697.5164   21404702.6124
        -0.000          -0.000
   4363651.807 9   3399430.64348  21555015.182    21555014.5744   21555019.6314
        -0.000          -0.000
  -6470221.387 9  -5031309.40648  21024545.733    21024545.1904   21024550.4754
        -0.000          -0.000
  -7727291.052 9  -5868737.19846  23619127.768    23619127.4584   23619132.9144
        -0.000          -0.000
  -6786029.373 9  -5087198.10746  23465295.379    23465294.8044   23465301.1564
        -0.000          -0.000
  -8752812.907 9  -6349804.76546  23643191.195    23643190.7004   23643196.3284
        -0.000          -0.000
  -5745385.171 9  -4465127.73246  23787807.256    23787807.1534   23787814.6674
        -0.000          -0.000
 98  5  3  3 21  0.0000000  0  9  1 17  3 23 21  9  8 31 29          0.000000038
 -18246187.875 9 -14197366.88348  21172842.744    21172842.1964   21172847.6584
        -0.000          -0.000
   6858463.930 9   5342467.96347  22084129.058    22084128.3164   22084134.3584
        -0.000          -0.000
  -9799272.651 9  -7614487.38848  21404466.944    21404466.5764   21404471.6674
        -0.000          -0.000
   4403198.156 9   3430245.97548  21562540.596    21562539.9944   21562545.0404
        -0.000          -0.000
  -6484869.679 9  -5042723.65148  21021758.256    21021757.7304   21021762.9764
        -0.000          -0.000
  -7740541.407 9  -5879062.15646  23616606.299    23616605.9444   23616611.3924
        -0.000          -0.000
  -6857981.712 9  -5143264.79546  23451603.335    23451602.7434   23451609.1114
        -0.000          -0.000
  -8821040.314 9  -6402968.94446  23630208.023    23630207.5274   23630213.0574
        -0.000          -0.000
  -5848420.069 9  -4545414.53946  23768200.258    23768200.1784   23768207.6224
        -0.000          -0.000
 98  5  3  3 21 30.0000000  0  9  1 17  3 23 21  9  8 31 29          0.000000022
 -18313915.109 9 -14250141.32248  21159954.656    21159954.1094   21159959.5654
        -0.000          -0.000
   6925177.044 9   5394452.16447  22096824.143    22096823.4084   22096829.4924
        -0.000          -0.000
  -9799909.161 9  -7614983.38548  21404345.807    21404345.4604   21404350.5254
        -0.000          -0.000
   4442893.438 9   3461177.35448  21570094.335    21570093.7554   21570098.8274
        -0.000          -0.000
  -6499315.317 9  -5053979.99548  21019009.359    21019008.8134   21019014.0654
        -0.000          -0.000
  -7753284.174 9  -5888991.55746  23614181.418    23614181.1134   23614186.5234
        -0.000          -0.000
  -6929695.173 9  -5199145.37546  23437956.674    23437956.0114   23437962.3464
        -0.000          -0.000
  -8888810.519 9  -6455776.86646  23617311.802    23617311.3264   23617316.7734
        -0.000          -0.000
  -5951285.315 9  -4625569.15646  23748625.597    23748625.4994   23748632.8454
        -0.000          -0.000
 98  5  3  3 22  0.0000000  0  9  1 17  3 23 21  9  8 31 29          0.000000011
 -18381165.410 9 -14302544.12048  21147157.307    21147156.7784   21147162.2184
        -0.000          -0.000
   6992232.681 9   5446703.29147  22109584.456    22109583.7244   22109589.7584
        -0.000          -0.000
  -9799960.779 9  -7615023.62048  21404335.928    21404335.5974   21404340.6964
        -0.000          -0.000
   4482733.065 9   3492221.21348  21577675.575    21577674.9964   21577680.0544
        -0.000          -0.000
  -6513541.149 9  -5065065.05548  21016302.294    21016301.7474   21016306.9774
        -0.000          -0.000
  -7765513.154 9  -5898520.61046  23611854.392    23611854.0334   23611859.5104
        -0.000          -0.000
  -7001163.343 9  -5254834.78746  23424356.535    23424355.9364   23424362.3824
        -0.000          -0.000
  -8956103.774 9  -6508213.14046  23604506.236    23604505.7314   23604511.2454
        -0.000          -0.000
  -6053965.370 9  -4705579.46446  23729086.097    23729086.0254   23729093.3064
        -0.000          -0.000
 98  5  3  3 22 30.0000000  0  9  1 17  3 23 21  9  8 31 29          0.000000008
 -18447960.433 9 -14354592.15548  21134446.612    21134446.0684   21134451.5114
        -0.000          -0.000
   7059626.355 9   5499217.79747  22122409.154    22122408.3764   22122414.4324
        -0.000          -0.000
  -9799434.793 9  -7614613.77748  21404436.022    21404435.6684   21404440.7944
        -0.000          -0.000
   4522702.205 9   3523365.99048  21585281.460    21585280.8614   21585285.9204
        -0.000          -0.000
  -6527548.163 9  -5075979.61149  21013636.834    21013636.3124   21013641.5274
        -0.000          -0.000
  -7777226.866 9  -5907648.17446  23609625.299    23609625.0164   23609630.3124
        -0.000          -0.000
  -7072382.686 9  -5310330.31246  23410803.923    23410803.3584   23410809.8694
        -0.000          -0.000
  -9022918.198 9  -6560276.30446  23591791.926    23591791.3634   23591796.8724
        -0.000          -0.000
  -6156472.663 9  -4785455.15746  23709579.434    23709579.4504   23709586.6764
        -0.000          -0.000
 98  5  3  3 23  0.0000000  0  9  1 17  3 23 21  9  8 31 29          0.000000006
 -18514328.384 9 -14406307.36948  21121817.177    21121816.6514   21121822.1014
        -0.000          -0.000
   7127353.878 9   5551992.43647  22135297.306    22135296.5334   22135302.5864
        -0.000          -0.000
  -9798320.786 9  -7613745.73248  21404648.008    21404647.6214   21404652.7394
        -0.000          -0.000
   4562792.828 9   3554605.43048  21592910.447    21592909.8704   21592914.9494
        -0.000          -0.000
  -6541353.338 9  -5086736.88449  21011009.816    21011009.2914   21011014.4964
        -0.000          -0.000
  -7788430.003 9  -5916377.87646  23607493.334    23607493.0624   23607498.2624
        -0.000          -0.000
  -7143347.476 9  -5365627.50246  23397299.892    23397299.2474   23397305.6004
        -0.000          -0.000
  -9089265.554 9  -6611975.52546  23579166.284    23579165.8434   23579171.3474
        -0.000          -0.000
  -6258828.798 9  -4865213.07246  23690101.611    23690101.6544   23690108.9034
        -0.000          -0.000
 98  5  3  3 23 30.0000000  0  9  1 17  3 23 21  9  8 31 29          0.000000006
 -18580263.549 9 -14457685.39148  21109270.109    21109269.5674   21109275.0064
        -0.000          -0.000
   7195423.423 9   5605033.60847  22148250.558    22148249.8164   22148255.8244
        -0.000          -0.000
  -9796589.804 9  -7612396.92348  21404977.411    21404977.0134   21404982.1224
        -0.000          -0.000
   4602991.736 9   3585929.24948  21600560.068    21600559.4744   21600564.5654
        -0.000          -0.000
  -6554961.411 9  -5097340.57549  21008420.319    21008419.7744   21008424.9744
        -0.000          -0.000
  -7799114.020 9  -5924703.07746  23605460.153    23605459.8604   23605465.1204
        -0.000          -0.000
  -7214040.276 9  -5420712.73646  23383847.377    23383846.7104   23383853.0944
        -0.000          -0.000
  -9155160.429 9  -6663322.15146  23566626.979    23566626.4444   23566631.9554
        -0.000          -0.000
  -6361021.920 9  -4944843.96746  23670654.804    23670654.7884   23670661.9774
        -0.000          -0.000
 98  5  3  3 24  0.0000000  0  9  1 17  3 23 21  9  8 31 29          0.000000008
 -18645762.692 9 -14508723.70248  21096805.975    21096805.4364   21096810.8904
        -0.000          -0.000
   7263829.741 9   5658337.19347  22161267.872    22161267.1344   22161273.0734
        -0.000          -0.000
  -9794251.721 9  -7610575.06048  21405422.295    21405421.9454   21405427.0544
        -0.000          -0.000
   4643292.293 9   3617332.27148  21608229.007    21608228.4154   21608233.5104
        -0.000          -0.000
  -6568376.004 9  -5107793.50449  21005867.653    21005867.0814   21005872.2894
        -0.000          -0.000
  -7809262.374 9  -5932610.83646  23603529.010    23603528.7874   23603533.9264
        -0.000          -0.000
  -7284449.415 9  -5475576.94146  23370448.984    23370448.3054   23370454.7264
        -0.000          -0.000
  -9220623.414 9  -6714332.24746  23554169.755    23554169.2184   23554174.6624
        -0.000          -0.000
  -6463046.027 9  -5024343.16746  23651240.153    23651240.1474   23651247.3504
        -0.000          -0.000
 98  5  3  3 24 30.0000000  0  9  1 17  3 23 21  9  8 31 29          0.000000003
 -18710824.516 9 -14559421.24648  21084425.085    21084424.5474   21084430.0244
        -0.000          -0.000
   7332570.855 9   5711901.66947  22174348.862    22174348.1094   22174354.1624
        -0.000          -0.000
  -9791308.742 9  -7608281.84548  21405982.323    21405981.9874   21405987.1194
        -0.000          -0.000
   4683692.835 9   3648813.20648  21615916.969    21615916.4124   21615921.5264
        -0.000          -0.000
  -6581598.483 9  -5118096.73049  21003351.482    21003350.9134   21003356.1214
        -0.000          -0.000
  -7818875.423 9  -5940101.48546  23601699.705    23601699.4534   23601704.6084
        -0.000          -0.000
  -7354573.504 9  -5530219.03846  23357104.882    23357104.2034   23357110.4624
        -0.000          -0.000
  -9285665.510 9  -6765014.37346  23541792.726    23541792.1274   23541797.4804
        -0.000          -0.000
  -6564911.450 9  -5103718.72346  23631855.709    23631855.7274   23631862.9144
        -0.000          -0.000
 98  5  3  3 25  0.0000000  0  9  1 17  3 23 21  9  8 31 29         -0.000000002
 -18775438.386 9 -14609769.76148  21072129.443    21072128.9294   21072134.3724
        -0.000          -0.000
   7401640.679 9   5765722.28947  22187492.482    22187491.7194   22187497.7234
        -0.000          -0.000
  -9787756.978 9  -7605514.25248  21406658.236    21406657.8994   21406663.0314
        -0.000          -0.000
   4724191.831 9   3680370.86048  21623623.690    21623623.1274   21623628.2564
        -0.000          -0.000
  -6594648.362 9  -5128265.46549  21000868.159    21000867.6124   21000872.8344
        -0.000          -0.000
  -7827960.016 9  -5947180.37046  23599971.001    23599970.7604   23599975.9234
        -0.000          -0.000
  -7424415.674 9  -5584641.44046  23343814.249    23343813.5354   23343819.8744
        -0.000          -0.000
  -9350268.229 9  -6815354.09946  23529499.293    23529498.7274   23529504.0014
        -0.000          -0.000
  -6666602.323 9  -5182958.24146  23612504.471    23612504.5144   23612511.6294
        -0.000          -0.000
 98  5  3  3 25 30.0000000  0  9  1 17  3 23 21  9  8 31 29         -0.000000004
 -18839599.442 9 -14659765.43348  21059919.998    21059919.5014   21059924.9164
        -0.000          -0.000
   7471033.102 9   5819794.28047  22200697.465    22200696.6974   22200702.6404
        -0.000          -0.000
  -9783611.293 9  -7602283.86048  21407447.159    21407446.8334   21407451.9604
        -0.000          -0.000
   4764777.020 9   3711995.67448  21631346.791    21631346.2414   21631351.3944
        -0.000          -0.000
  -6607539.610 9  -5138310.59449  20998415.008    20998414.4704   20998419.7264
        -0.000          -0.000
  -7836524.172 9  -5953853.72846  23598341.326    23598341.0884   23598346.3314
        -0.000          -0.000
  -7493990.867 9  -5638855.84246  23330574.463    23330573.8804   23330580.1904
        -0.000          -0.000
  -9414421.898 9  -6865343.99046  23517291.206    23517290.6794   23517295.9094
        -0.000          -0.000
  -6768113.717 9  -5262057.91446  23593187.347    23593187.2974   23593194.6484
        -0.000          -0.000
 98  5  3  3 26  0.0000000  0  9  1 17  3 23 21  9  8 31 29         -0.000000004
 -18903302.245 9 -14709404.02948  21047797.751    21047797.2634   21047802.6774
        -0.000          -0.000
   7540751.621 9   5874120.38247  22213964.494    22213963.6834   22213969.6044
        -0.000          -0.000
  -9778882.822 9  -7598599.36048  21408346.995    21408346.6704   21408351.7984
        -0.000          -0.000
   4805461.758 9   3743698.06048  21639088.854    21639088.2814   21639093.4384
        -0.000          -0.000
  -6620271.377 9  -5148231.44349  20995992.206    20995991.6574   20995996.9374
        -0.000          -0.000
  -7844576.315 9  -5960128.09946  23596809.006    23596808.7394   23596813.9654
        -0.000          -0.000
  -7563315.974 9  -5692875.34346  23317382.261    23317381.6434   23317387.8894
        -0.000          -0.000
  -9478100.341 9  -6914963.51546  23505173.479    23505173.0074   23505178.2714
        -0.000          -0.000
  -6869446.069 9  -5341018.08446  23573904.313    23573904.3064   23573911.5834
        -0.000          -0.000
 98  5  3  3 26 30.0000000  0  9  1 17  3 23 21  9  8 31 29         -0.000000006
 -18966542.185 9 -14758681.95048  21035763.623    21035763.1244   21035768.5294
        -0.000          -0.000
   7610791.696 9   5928697.02147  22227292.738    22227291.9164   22227297.8454
        -0.000          -0.000
  -9773574.237 9  -7594462.82648  21409357.198    21409356.8614   21409362.0004
        -0.000          -0.000
   4846241.981 9   3775474.84448  21646849.062    21646848.4894   21646853.6704
        -0.000          -0.000
  -6632855.457 9  -5158037.22449  20993597.523    20993596.9854   20993602.2624
        -0.000          -0.000
  -7852135.494 9  -5966018.37146  23595370.577    23595370.3154   23595375.4554
        -0.000          -0.000
  -7632402.429 9  -5746708.91646  23304235.405    23304234.8044   23304240.9184
        -0.000          -0.000
  -9541299.679 9  -6964209.74946  23493147.081    23493146.5034   23493151.8374
        -0.000          -0.000
  -6970606.048 9  -5419843.92746  23554654.140    23554654.0934   23554661.3854
        -0.000          -0.000
 98  5  3  3 27  0.0000000  0  9  1 17  3 23 21  9  8 31 29         -0.000000005
 -19029314.448 9 -14807595.45848  21023818.509    21023817.9944   21023823.3814
        -0.000          -0.000
   7681161.898 9   5983530.91947  22240683.768    22240682.9754   22240688.9264
        -0.000          -0.000
  -9767685.885 9  -7589874.51048  21410477.770    21410477.4054   21410482.5634
        -0.000          -0.000
   4887125.863 9   3807332.41148  21654629.016    21654628.4234   21654633.6064
        -0.000          -0.000
  -6645289.971 9  -5167726.44749  20991231.306    20991230.7634   20991236.0294
        -0.000          -0.000
  -7859190.675 9  -5971515.89146  23594027.975    23594027.6854   23594032.8374
        -0.000          -0.000
  -7701240.567 9  -5800348.98346  23291136.031    23291135.3834   23291141.4134
        -0.000          -0.000
  -9604011.900 9  -7013076.38546  23481213.398    23481212.8054   23481218.1724
        -0.000          -0.000
  -7071577.349 9  -5498522.76546  23535439.894    23535439.7944   23535447.0174
        -0.000          -0.000
 98  5  3  3 27 30.0000000  0  9  1 17  3 23 21  9  8 31 29         -0.000000006
 -19091609.418 9 -14856136.97848  21011964.173    21011963.6704   21011969.0364
        -0.000          -0.000
   7751882.984 9   6038638.21947  22254141.566    22254140.7594   22254146.6844
        -0.000          -0.000
  -9761206.625 9  -7584825.75748  21411710.783    21411710.4114   21411715.5334
        -0.000          -0.000
   4928109.275 9   3839267.53048  21662427.885    21662427.2744   21662432.4524
        -0.000          -0.000
  -6657547.426 9  -5177277.70749  20988898.826    20988898.2684   20988903.5204
        -0.000          -0.000
  -7865729.024 9  -5976610.67746  23592783.662    23592783.3264   23592788.5504
        -0.000          -0.000
  -7769817.065 9  -5853785.15646  23278086.319    23278085.6974   23278091.8624
        -0.000          -0.000
  -9666245.523 9  -7061570.11946  23469370.545    23469370.0234   23469375.4344
        -0.000          -0.000
  -7172359.344 9  -5577054.08046  23516261.639    23516261.5314   23516268.7784
        -0.000          -0.000
 98  5  3  3 28  0.0000000  0  9  1 17  3 23 21  9  8 31 29         -0.000000016
 -19153438.725 9 -14904315.69448  21000198.459    21000197.9454   21000203.3214
        -0.000          -0.000
   7822932.255 9   6094001.26647  22267661.810    22267660.9794   22267666.9824
        -0.000          -0.000
  -9754147.063 9  -7579324.82148  21413054.173    21413053.8114   21413058.9184
        -0.000          -0.000
   4969177.929 9   3871269.07148  21670242.978    21670242.3834   21670247.5634
        -0.000          -0.000
  -6669638.884 9  -5186699.62049  20986597.919    20986597.3414   20986602.5894
        -0.000          -0.000
  -7871761.811 9  -5981311.53346  23591635.695    23591635.3714   23591640.6014
        -0.000          -0.000
  -7838136.537 9  -5907021.08246  23265085.682    23265084.9774   23265091.0094
        -0.000          -0.000
  -9728023.225 9  -7109708.56046  23457614.511    23457614.0324   23457619.4894
        -0.000          -0.000
  -7272950.815 9  -5655436.94246  23497119.636    23497119.5434   23497126.7394
        -0.000          -0.000
 98  5  3  3 28 30.0000000  0  9  1 17  3 23 21  9  8 31 29         -0.000000023
 -19214806.210 9 -14952134.56049  20988520.657    20988520.1404   20988525.5274
        -0.000          -0.000
   7894316.873 9   6149625.62147  22281245.838    22281245.0254   22281251.0284
        -0.000          -0.000
  -9746497.476 9  -7573364.13448  21414509.885    21414509.5244   21414514.6114
        -0.000          -0.000
   5010323.815 9   3903330.79348  21678072.800    21678072.2134   21678077.3514
        -0.000          -0.000
  -6681558.258 9  -5195987.43849  20984329.740    20984329.1614   20984334.3794
        -0.000          -0.000
  -7877270.829 9  -5985604.24946  23590587.333    23590587.0864   23590592.2054
        -0.000          -0.000
  -7906179.990 9  -5960041.91846  23252137.364    23252136.6614   23252142.4794
        -0.000          -0.000
  -9789342.434 9  -7157489.76646  23445945.949    23445945.3704   23445950.7924
        -0.000          -0.000
  -7373328.924 9  -5733653.55246  23478018.233    23478018.0974   23478025.2854
        -0.000          -0.000
 98  5  3  3 29  0.0000000  0  9  1 17  3 23 21  9  8 31 29         -0.000000019
 -19275722.429 9 -14999601.68149  20976928.707    20976928.1954   20976933.6164
        -0.000          -0.000
   7966034.480 9   6205509.44247  22294893.156    22294892.4274   22294898.5044
        -0.000          -0.000
  -9738254.834 9  -7566941.32148  21416078.425    21416078.0484   21416083.1184
        -0.000          -0.000
   5051538.632 9   3935446.22948  21685915.722    21685915.1134   21685920.2484
        -0.000          -0.000
  -6693304.060 9  -5205140.00949  20982094.564    20982093.9894   20982099.2054
        -0.000          -0.000
  -7882261.529 9  -5989493.11846  23589637.694    23589637.4144   23589642.4994
        -0.000          -0.000
  -7973949.856 9  -6012849.55646  23239241.104    23239240.4284   23239246.2914
        -0.000          -0.000
  -9850197.329 9  -7204909.14546  23434365.586    23434365.0464   23434370.4604
        -0.000          -0.000
  -7473479.518 9  -5811692.86846  23458960.233    23458960.1004   23458967.2174
        -0.000          -0.000
 98  5  3  3 29 30.0000000  0  9  1 17  3 23 21  9  8 31 29         -0.000000012
 -19336190.703 9 -15046719.76549  20965422.007    20965421.4814   20965426.9424
        -0.000          -0.000
   8038063.037 9   6261635.55747  22308599.824    22308599.0384   22308605.1464
        -0.000          -0.000
  -9729426.489 9  -7560062.11648  21417758.388    21417758.0354   21417763.1084
        -0.000          -0.000
   5092818.042 9   3967611.99348  21693770.923    21693770.3454   21693775.4894
        -0.000          -0.000
  -6704880.374 9  -5214160.50949  20979891.702    20979891.1144   20979896.3374
        -0.000          -0.000
  -7886747.355 9  -5992988.53146  23588784.124    23588783.8044   23588788.7114
        -0.000          -0.000
  -8041440.619 9  -6065439.73846  23226398.045    23226397.3904   23226403.1824
        -0.000          -0.000
  -9910585.202 9  -7251964.61246  23422874.148    23422873.6824   23422879.0954
        -0.000          -0.000
  -7573412.652 9  -5889562.75546  23439943.504    23439943.4954   23439950.5054
        -0.000          -0.000
 98  5  3  3 30  0.0000000  0  9  1 17  3 23 21  9  8 31 29          0.000000001
 -19396221.067 9 -15093496.60249  20953998.570    20953998.0494   20954003.5614
        -0.000          -0.000
   8110383.118 9   6317988.82547  22322361.858    22322361.1114   22322367.2454
        -0.000          -0.000
  -9720031.441 9  -7552741.31648  21419546.170    21419545.8474   21419550.8874
        -0.000          -0.000
   5134171.865 9   3999835.74448  21701640.301    21701639.6884   21701644.8464
        -0.000          -0.000
  -6716299.599 9  -5223058.60649  20977718.645    20977718.0584   20977723.2884
        -0.000          -0.000
  -7890726.603 9  -5996089.20446  23588026.972    23588026.6894   23588031.3874
        -0.000          -0.000
  -8108646.719 9  -6117808.09446  23213609.011    23213608.3434   23213614.1654
        -0.000          -0.000
  -9970504.062 9  -7298654.62246  23411472.099    23411471.5264   23411476.9144
        -0.000          -0.000
  -7673141.337 9  -5967273.32746  23420965.675    23420965.6634   23420972.6394
        -0.000          -0.000
 98  5  3  3 30 30.0000000  0  9  1 17  3 23 21  9  8 31 29          0.000000009
 -19455822.503 9 -15139939.16649  20942656.784    20942656.2614   20942661.7694
        -0.000          -0.000
   8182982.837 9   6374560.01347  22336177.154    22336176.3974   22336182.5704
        -0.000          -0.000
  -9710074.532 9  -7544982.70348  21421440.968    21421440.6154   21421445.6454
        -0.000          -0.000
   5175600.079 9   4032117.47048  21709523.794    21709523.2004   21709528.3894
        -0.000          -0.000
  -6727555.390 9  -5231829.34449  20975576.701    20975576.1414   20975581.3844
        -0.000          -0.000
  -7894196.610 9  -5998793.07646  23587366.710    23587366.4864   23587371.0314
        -0.000          -0.000
  -8175572.837 9  -6169958.26346  23200873.397    23200872.6904   23200878.6624
        -0.000          -0.000
 -10029953.262 9  -7344978.65346  23400159.249    23400158.6974   23400164.0484
        -0.000          -0.000
  -7772686.799 9  -6044841.13046  23402022.807    23402022.7574   23402029.6334
        -0.000          -0.000
 98  5  3  3 31  0.0000000  0  9  1 17  3 23 21  9  8 31 29          0.000000010
 -19514983.171 9 -15186038.21549  20931398.827    20931398.3254   20931403.8414
        -0.000          -0.000
   8255848.161 9   6431338.15747  22350043.048    22350042.2584   22350048.4444
        -0.000          -0.000
  -9699557.665 9  -7536787.76448  21423442.267    21423441.9204   21423446.9624
        -0.000          -0.000
   5217117.059 9   4064468.36048  21717424.223    21717423.6214   21717428.8344
        -0.000          -0.000
  -6738645.000 9  -5240470.59849  20973466.384    20973465.8424   20973471.1004
        -0.000          -0.000
  -7897152.147 9  -6001096.08146  23586804.172    23586803.9554   23586808.6514
        -0.000          -0.000
  -8242211.456 9  -6221884.43146  23188192.476    23188191.7594   23188197.6644
        -0.000          -0.000
 -10088926.973 9  -7390932.17546  23388936.900    23388936.4074   23388941.7024
        -0.000          -0.000
  -7872056.441 9  -6122271.92946  23383113.327    23383113.2984   23383120.1774
        -0.000          -0.000
 98  5  3  3 31 30.0000000  0  9  1 17  3 23 21  9  8 31 29          0.000000023
 -19573676.173 9 -15231772.83849  20920229.885    20920229.3774   20920234.8824
        -0.000          -0.000
   8329007.327 9   6488345.26247  22363964.807    22363964.0304   22363970.2714
        -0.000          -0.000
  -9688448.981 9  -7528131.66948  21425556.190    21425555.8464   21425560.8774
        -0.000          -0.000
   5258753.764 9   4096912.53948  21725347.393    21725346.8254   21725352.0254
        -0.000          -0.000
  -6749541.313 9  -5248961.22549  20971392.884    20971392.3374   20971397.6024
        -0.000          -0.000
  -7899541.516 9  -6002957.89646  23586349.411    23586349.2314   23586353.9984
        -0.000          -0.000
  -8308525.984 9  -6273558.05346  23175573.079    23175572.3864   23175578.3234
        -0.000          -0.000
 -10147399.384 9  -7436495.09046  23377809.948    23377809.4994   23377814.7574
        -0.000          -0.000
  -7971232.263 9  -6199551.70446  23364240.711    23364240.6834   23364247.5544
        -0.000          -0.000
 98  5  3  3 32  0.0000000  0  9  1 17  3 23 21  9  8 31 29          0.000000036
 -19631922.562 9 -15277159.46549  20909145.854    20909145.3504   20909150.8294
        -0.000          -0.000
   8402442.580 9   6545567.50147  22377939.030    22377938.2764   22377944.4914
        -0.000          -0.000
  -9676763.545 9  -7519026.16848  21427779.874    21427779.5274   21427784.5444
        -0.000          -0.000
   5300480.911 9   4129427.19348  21733287.826    21733287.2184   21733292.4564
        -0.000          -0.000
  -6760272.572 9  -5257323.24349  20969350.785    20969350.2214   20969355.5034
        -0.000          -0.000
  -7901378.243 9  -6004389.08146  23585999.857    23585999.6524   23586004.5314
        -0.000          -0.000
  -8374553.344 9  -6325007.90346  23163008.399    23163007.7034   23163013.7654
        -0.000          -0.000
 -10205399.166 9  -7481689.71946  23366772.901    23366772.4604   23366777.6824
        -0.000          -0.000
  -8070215.878 9  -6276681.71546  23345404.717    23345404.6534   23345411.5084
        -0.000          -0.000
 98  5  3  3 32 30.0000000  0  9  1 17  3 23 21  9  8 31 29          0.000000054
 -19689729.045 9 -15322203.38049  20898145.521    20898145.0354   20898150.4724
        -0.000          -0.000
   8476157.021 9   6603007.28247  22391966.435    22391965.6554   22391971.8654
        -0.000          -0.000
  -9664496.880 9  -7509467.75148  21430114.117    21430113.8014   21430118.8274
        -0.000          -0.000
   5342293.384 9   4162008.34048  21741244.486    21741243.8804   21741249.1364
        -0.000          -0.000
  -6770857.634 9  -5265571.33749  20967336.484    20967335.9354   20967341.2114
        -0.000          -0.000
  -7902680.060 9  -6005403.42646  23585752.045    23585751.8944   23585756.8204
        -0.000          -0.000
  -8440308.175 9  -6376245.41446  23150495.799    23150495.0654   23150501.0404
        -0.000          -0.000
 -10262924.916 9  -7526514.96446  23355826.216    23355825.6284   23355830.8594
        -0.000          -0.000
  -8168988.281 9  -6353647.13746  23326608.883    23326608.8354   23326615.7084
        -0.000          -0.000
 98  5  3  3 33  0.0000000  0  9  1 17  3 23 21  9  8 31 29          0.000000077
 -19747092.156 9 -15366901.88849  20887229.611    20887229.1224   20887234.5154
        -0.000          -0.000
   8550166.947 9   6660677.32247  22406050.033    22406049.2754   22406055.4664
        -0.000          -0.000
  -9651638.750 9  -7499448.45048  21432560.939    21432560.5974   21432565.6984
        -0.000          -0.000
   5384186.975 9   4194652.69248  21749216.566    21749215.9614   21749221.2124
        -0.000          -0.000
  -6781306.783 9  -5273713.52549  20965348.065    20965347.5224   20965352.8014
        -0.000          -0.000
  -7903455.068 9  -6006007.28346  23585604.542    23585604.2574   23585609.3664
        -0.000          -0.000
  -8505781.227 9  -6427263.35746  23138036.557    23138035.8714   23138041.9284
        -0.000          -0.000
 -10319978.501 9  -7570972.29246  23344969.253    23344968.6944   23344973.9044
        -0.000          -0.000
  -8267538.609 9  -6430439.52446  23307855.279    23307855.2284   23307862.1264
        -0.000          -0.000
 98  5  3  3 33 30.0000000  0  9  1 17  3 23 21  9  8 31 29          0.000000095
 -19804013.278 9 -15411255.98649  20876397.854    20876397.3514   20876402.7064
        -0.000          -0.000
   8624473.648 9   6718578.61647  22420190.181    22420189.4064   22420195.6064
        -0.000          -0.000
  -9638186.696 9  -7488966.36748  21435120.748    21435120.4254   21435125.5934
        -0.000          -0.000
   5426150.411 9   4227351.47448  21757201.965    21757201.3334   21757206.5834
        -0.000          -0.000
  -6791624.570 9  -5281753.35549  20963384.641    20963384.1314   20963389.3724
        -0.000          -0.000
  -7903718.322 9  -6006212.39546  23585554.312    23585554.0614   23585559.3504
        -0.000          -0.000
  -8570976.687 9  -6478064.96946  23125630.333    23125629.7094   23125635.5984
        -0.000          -0.000
 -10376575.165 9  -7615073.57046  23334199.250    23334198.7004   23334203.9084
        -0.000          -0.000
  -8365871.588 9  -6507062.55246  23289143.059    23289142.9824   23289149.9174
        -0.000          -0.000
 98  5  3  3 34  0.0000000  0  9  1 17  3 23 21  9  8 31 29          0.000000098
 -19860476.744 9 -15455253.46449  20865653.154    20865652.6594   20865657.9854
        -0.000          -0.000
   8699083.684 9   6776716.26447  22434388.016    22434387.2374   22434393.3884
        -0.000          -0.000
  -9624159.925 9  -7478036.44248  21437790.011    21437789.6574   21437794.8704
        -0.000          -0.000
   5468196.488 9   4260114.65148  21765203.062    21765202.4544   21765207.6934
        -0.000          -0.000
  -6801811.012 9  -5289690.83349  20961446.252    20961445.7334   20961450.9544
        -0.000          -0.000
  -7903480.550 9  -6006027.10746  23585599.546    23585599.2194   23585604.5114
        -0.000          -0.000
  -8635884.323 9  -6528642.32946  23113278.873    23113278.2304   23113284.0954
        -0.000          -0.000
 -10432720.603 9  -7658823.24046  23323515.099    23323514.5284   23323519.7844
        -0.000          -0.000
  -8463990.103 9  -6583518.45746  23270471.806    23270471.5984   23270478.5094
        -0.000          -0.000
 98  5  3  3 34 30.0000000  0  9  1 17  3 23 21  9  8 31 29          0.000000088
 -19916466.259 9 -15498881.62549  20854998.654    20854998.1654   20855003.4734
        -0.000          -0.000
   8774017.228 9   6835106.00547  22448647.509    22448646.6964   22448652.7954
        -0.000          -0.000
  -9609555.626 9  -7466656.48648  21440569.146    21440568.7934   21440574.0314
        -0.000          -0.000
   5510346.384 9   4292958.72748  21773223.886    21773223.3014   21773228.5424
        -0.000          -0.000
  -6811846.232 9  -5297510.47649  20959536.646    20959536.0954   20959541.3284
        -0.000          -0.000
  -7902725.719 9  -6005438.91346  23585743.085    23585742.7904   23585748.1204
        -0.000          -0.000
  -8700472.150 9  -6578970.48046  23100988.238    23100987.5794   23100993.3784
        -0.000          -0.000
 -10488392.172 9  -7702203.67446  23312921.203    23312920.5014   23312925.8014
        -0.000          -0.000
  -8561908.177 9  -6659818.18846  23251838.505    23251838.3474   23251845.2154
        -0.000          -0.000
 98  5  3  3 35  0.0000000  0  9  1 17  3 23 21  9  8 31 29          0.000000069
 -19971954.038 9 -15542118.83349  20844439.649    20844439.1454   20844444.4104
        -0.000          -0.000
   8849285.409 9   6893756.50647  22462970.471    22462969.7394   22462975.8004
        -0.000          -0.000
  -9594365.617 9  -7454820.11748  21443459.681    21443459.3524   21443464.6254
        -0.000          -0.000
   5552605.041 9   4325887.55548  21781265.491    21781264.8944   21781270.0804
        -0.000          -0.000
  -6821696.782 9  -5305186.22149  20957662.160    20957661.6134   20957666.8104
        -0.000          -0.000
  -7901429.434 9  -6004428.79646  23585989.771    23585989.4504   23585994.9124
        -0.000          -0.000
  -8764714.261 9  -6629029.24346  23088763.334    23088762.6924   23088768.5114
        -0.000          -0.000
 -10543569.957 9  -7745199.33146  23302421.214    23302420.5904   23302425.7824
        -0.000          -0.000
  -8659625.975 9  -6735961.86346  23233243.395    23233243.1904   23233250.1374
        -0.000          -0.000
 98  5  3  3 35 30.0000000  0  9  1 17  3 23 21  9  8 31 29          0.000000055
 -20026902.923 9 -15584936.12949  20833983.198    20833982.6744   20833987.9094
        -0.000          -0.000
   8924914.200 9   6952688.00647  22477362.181    22477361.4264   22477367.4974
        -0.000          -0.000
  -9578589.190 9  -7442526.81448  21446461.838    21446461.5044   21446466.8114
        -0.000          -0.000
   5595005.969 9   4358927.24548  21789334.108    21789333.5184   21789338.7004
        -0.000          -0.000
  -6831344.633 9  -5312704.01549  20955826.249    20955825.7144   20955830.8834
        -0.000          -0.000
  -7899561.740 9  -6002973.41546  23586345.059    23586344.6934   23586350.2524
        -0.000          -0.000
  -8828585.361 9  -6678798.89246  23076609.081    23076608.4274   23076614.3754
        -0.000          -0.000
 -10598219.993 9  -7787783.76646  23292021.669    23292021.0394   23292026.1794
        -0.000          -0.000
  -8757127.916 9  -6811937.33646  23214689.322    23214689.1654   23214696.0414
        -0.000          -0.000
 98  5  3  3 36  0.0000000  0  9  1 17  3 23 21  9  8 31 29          0.000000057
 -20081320.591 9 -15627339.49249  20823627.805    20823627.2934   20823632.5064
        -0.000          -0.000
   9000907.986 9   7011903.90747  22491823.330    22491822.5854   22491828.7484
        -0.000          -0.000
  -9562231.334 9  -7429780.46348  21449574.643    21449574.3094   21449579.6234
        -0.000          -0.000
   5637549.893 9   4392078.35648  21797429.944    21797429.3444   21797434.5284
        -0.000          -0.000
  -6840789.803 9  -5320063.87949  20954028.854    20954028.3084   20954033.4654
        -0.000          -0.000
  -7897123.287 9  -6001073.29346  23586809.200    23586808.8824   23586814.2324
        -0.000          -0.000
  -8892090.231 9  -6728283.18846  23064524.545    23064523.9034   23064529.7444
        -0.000          -0.000
 -10652317.154 9  -7829937.37446  23281727.377    23281726.7164   23281731.7884
        -0.000          -0.000
  -8854409.498 9  -6887741.09346  23196177.174    23196177.0714   23196183.8764
        -0.000          -0.000
 98  5  3  3 36 30.0000000  0  9  1 17  3 23 21  9  8 31 29          0.000000056
 -20135265.619 9 -15669374.55749  20813362.376    20813361.8794   20813367.0644
        -0.000          -0.000
   9077224.804 9   7071371.54947  22506345.992    22506345.2224   22506351.3584
        -0.000          -0.000
  -9545319.746 9  -7416602.61348  21452792.822    21452792.4814   21452797.8164
        -0.000          -0.000
   5680179.124 9   4425295.94748  21805541.994    21805541.4384   21805546.5964
        -0.000          -0.000
  -6850067.820 9  -5327293.49149  20952263.309    20952262.7704   20952267.9114
        -0.000          -0.000
  -7894167.728 9  -5998770.23446  23587371.731    23587371.4224   23587376.5204
        -0.000          -0.000
  -8955283.586 9  -6777524.73446  23052499.123    23052498.4974   23052504.2934
        -0.000          -0.000
 -10705893.913 9  -7871685.49046  23271532.027    23271531.4044   23271536.4854
        -0.000          -0.000
  -8951488.430 9  -6963386.93346  23177703.544    23177703.5004   23177710.2974
        -0.000          -0.000
 98  5  3  3 37  0.0000000  0  9  1 17  3 23 21  9  8 31 29          0.000000064
 -20188721.868 9 -15711028.76249  20803189.990    20803189.4724   20803194.6524
        -0.000          -0.000
   9153889.382 9   7131110.14347  22520934.789    22520934.0224   22520940.1654
        -0.000          -0.000
  -9527825.548 9  -7402970.79248  21456121.900    21456121.5464   21456126.8624
        -0.000          -0.000
   5722907.360 9   4458590.68148  21813672.919    21813672.3494   21813677.4784
        -0.000          -0.000
  -6859151.013 9  -5334371.29549  20950534.820    20950534.2874   20950539.4294
        -0.000          -0.000
  -7890684.358 9  -5996055.90146  23588034.609    23588034.3444   23588039.3594
        -0.000          -0.000
  -9018144.466 9  -6826507.20646  23040537.166    23040536.5084   23040542.2514
        -0.000          -0.000
 -10758941.388 9  -7913021.15946  23261437.444    23261436.7834   23261441.9424
        -0.000          -0.000
  -9048319.932 9  -7038839.97946  23159277.091    23159277.0064   23159283.7604
        -0.000          -0.000
 98  5  3  3 37 30.0000000  0  9  1 17  3 23 21  9  8 31 29          0.000000063
 -20241729.989 9 -15752333.77649  20793102.855    20793102.3654   20793107.5294
        -0.000          -0.000
   9230868.988 9   7191094.23047  22535583.694    22535582.8604   22535588.9944
        -0.000          -0.000
  -9509776.533 9  -7388906.64548  21459556.546    21459556.1784   21459561.5094
        -0.000          -0.000
   5765709.670 9   4491943.13248  21821817.950    21821817.3404   21821822.4904
        -0.000          -0.000
  -6868078.349 9  -5341327.65249  20948836.009    20948835.4534   20948840.6204
        -0.000          -0.000
  -7886702.387 9  -5992953.03646  23588792.265    23588792.0294   23588797.0244
        -0.000          -0.000
  -9080701.457 9  -6875252.88146  23028632.890    23028632.2794   23028638.0124
        -0.000          -0.000
 -10811496.765 9  -7953973.38846  23251436.502    23251435.8654   23251441.0224
        -0.000          -0.000
  -9144931.077 9  -7114121.32746  23140892.577    23140892.4444   23140899.1814
        -0.000          -0.000
 98  5  3  3 38  0.0000000  0  9  1 17  3 23 21  9  8 31 29          0.000000058
 -20294303.462 9 -15793300.10149  20783098.456    20783097.9314   20783103.1174
        -0.000          -0.000
   9308150.857 9   7251313.84347  22550289.973    22550289.1804   22550295.2474
        -0.000          -0.000
  -9491151.515 9  -7374393.68248  21463100.760    21463100.4054   21463105.7184
        -0.000          -0.000
   5808578.439 9   4525347.37448  21829975.595    21829974.9734   21829980.1464
        -0.000          -0.000
  -6876839.378 9  -5348154.41849  20947168.844    20947168.2974   20947173.4514
        -0.000          -0.000
  -7882220.372 9  -5989460.54946  23589645.122    23589644.8294   23589649.8974
        -0.000          -0.000
  -9142946.860 9  -6923755.76946  23016787.997    23016787.3604   23016793.0544
        -0.000          -0.000
 -10863563.946 9  -7994545.18746  23241528.337    23241527.7154   23241532.9144
        -0.000          -0.000
  -9241302.342 9  -7189215.73646  23122553.682    23122553.4994   23122560.2644
        -0.000          -0.000
 98  5  3  3 38 30.0000000  0  9  1 17  3 23 21  9  8 31 29          0.000000048
 -20346433.995 9 -15833921.27449  20773178.292    20773177.7884   20773182.9694
        -0.000          -0.000
   9385733.734 9   7311767.98847  22565053.420    22565052.6604   22565058.8974
        -0.000          -0.000
  -9471946.159 9  -7359428.50248  21466755.469    21466755.1044   21466760.3764
        -0.000          -0.000
   5851509.431 9   4558800.10048  21838145.067    21838144.4974   21838149.6764
        -0.000          -0.000
  -6885440.677 9  -5354856.71449  20945532.060    20945531.5004   20945536.6614
        -0.000          -0.000
  -7877213.889 9  -5985559.37946  23590597.861    23590597.5494   23590602.6964
        -0.000          -0.000
  -9204868.141 9  -6972006.08746  23005004.695    23005004.0774   23005009.8824
        -0.000          -0.000
 -10915161.447 9  -8034751.03046  23231709.615    23231709.0734   23231714.2004
        -0.000          -0.000
  -9337439.745 9  -7264127.91846  23104259.271    23104259.0544   23104265.7984
        -0.000          -0.000
 98  5  3  3 39  0.0000000  0  9  1 17  3 23 21  9  8 31 29          0.000000037
 -20398102.711 9 -15874182.59549  20763346.025    20763345.5254   20763350.7324
        -0.000          -0.000
   9463607.772 9   7372449.03147  22579872.302    22579871.5804   22579877.8854
        -0.000          -0.000
  -9452157.314 9  -7344008.64948  21470521.199    21470520.8184   21470526.0894
        -0.000          -0.000
   5894515.310 9   4592311.17548  21846328.817    21846328.2224   21846333.4314
        -0.000          -0.000
  -6893887.861 9  -5361438.92549  20943924.620    20943924.0734   20943929.2614
        -0.000          -0.000
  -7871658.782 9  -5981230.71446  23591654.918    23591654.5974   23591659.7614
        -0.000          -0.000
  -9266446.340 9  -7019989.06446  22993286.703    22993286.0504   22993292.0594
        -0.000          -0.000
 -10966268.603 9  -8074574.78146  23221984.160    23221983.6854   23221988.8394
        -0.000          -0.000
  -9433364.993 9  -7338874.80446  23086005.234    23086004.9814   23086011.7624
        -0.000          -0.000
 98  5  3  3 39 30.0000000  0  9  1 17  3 23 21  9  8 31 29          0.000000031
 -20449280.029 9 -15914061.00549  20753607.261    20753606.7674   20753611.9744
        -0.000          -0.000
   9541770.768 9   7433355.23147  22594746.177    22594745.4734   22594751.8524
        -0.000          -0.000
  -9431772.244 9  -7328124.19148  21474400.344    21474399.9924   21474405.2864
        -0.000          -0.000
   5937615.811 9   4625895.99248  21854530.605    21854529.9844   21854535.1714
        -0.000          -0.000
  -6902176.975 9  -5367897.96349  20942347.270    20942346.6854   20942351.8814
        -0.000          -0.000
  -7865534.052 9  -5976458.16346  23592820.418    23592820.1414   23592825.2484
        -0.000          -0.000
  -9327672.868 9  -7067698.02746  22981635.526    22981634.8764   22981641.0174
        -0.000          -0.000
 -11016864.372 9  -8114000.02746  23212356.092    23212355.5514   23212360.7684
        -0.000          -0.000
  -9529067.496 9  -7413448.09846  23067793.521    23067793.2994   23067800.1044
        -0.000          -0.000
 98  5  3  3 40  0.0000000  0  9  1 17  3 23 21  9  8 31 29          0.000000018
 -20499984.954 9 -15953571.31449  20743958.402    20743957.9074   20743963.1044
        -0.000          -0.000
   9620204.025 9   7494472.02047  22609671.583    22609670.8604   22609677.2534
        -0.000          -0.000
  -9410823.567 9  -7311800.54748  21478386.758    21478386.4134   21478391.7464
        -0.000          -0.000
   5980779.098 9   4659529.71448  21862744.275    21862743.6974   21862748.8764
        -0.000          -0.000
  -6910334.986 9  -5374254.84249  20940794.816    20940794.2304   20940799.4324
        -0.000          -0.000
  -7858865.947 9  -5971262.20646  23594089.246    23594088.9524   23594094.2204
        -0.000          -0.000
  -9388570.380 9  -7115150.59546  22970047.059    22970046.4184   22970052.6334
        -0.000          -0.000
 -11066968.411 9  -8153042.12746  23202821.629    23202821.1314   23202826.3044
        -0.000          -0.000
  -9624564.251 9  -7487861.09146  23049620.925    23049620.8394   23049627.5604
        -0.000          -0.000
 98  5  3  3 40 30.0000000  0  9  1 17  3 23 21  9  8 31 29          0.000000018
 -20550170.205 9 -15992676.68549  20734408.460    20734407.9684   20734413.1704
        -0.000          -0.000
   9698961.122 9   7555841.15147  22624658.668    22624657.9054   22624664.3044
        -0.000          -0.000
  -9389291.546 9  -7295022.38048  21482484.162    21482483.8264   21482489.1554
        -0.000          -0.000
   6024042.048 9   4693241.10148  21870976.978    21870976.3684   21870981.5524
        -0.000          -0.000
  -6918326.228 9  -5380481.77749  20939274.097    20939273.5434   20939278.7544
        -0.000          -0.000
  -7851621.806 9  -5965617.40146  23595467.766    23595467.4674   23595472.6924
        -0.000          -0.000
  -9449095.768 9  -7162313.19946  22958529.265    22958528.6814   22958535.0324
        -0.000          -0.000
 -11116540.639 9  -8191669.80946  23193388.381    23193387.8314   23193393.0134
        -0.000          -0.000
  -9719825.069 9  -7562090.22046  23031493.391    23031493.2494   23031499.9464
        -0.000          -0.000
 98  5  3  3 41  0.0000000  0  9  1 17  3 23 21  9  8 31 29          0.000000015
 -20599856.885 9 -16031393.56249  20724953.396    20724952.8844   20724958.0894
        -0.000          -0.000
   9778015.166 9   7617441.68247  22639702.150    22639701.4404   22639707.7804
        -0.000          -0.000
  -9367202.814 9  -7277810.41848  21486687.546    21486687.1964   21486692.5504
        -0.000          -0.000
   6067382.857 9   4727013.14948  21879224.454    21879223.8294   21879229.0254
        -0.000          -0.000
  -6926173.171 9  -5386596.26949  20937780.855    20937780.3064   20937785.5034
        -0.000          -0.000
  -7843847.906 9  -5959559.81546  23596947.074    23596946.7744   23596951.9384
        -0.000          -0.000
  -9509274.186 9  -7209205.45947  22947077.819    22947077.2094   22947083.3644
        -0.000          -0.000
 -11165597.973 9  -8229896.28946  23184053.129    23184052.4754   23184057.7104
        -0.000          -0.000
  -9814853.803 9  -7636138.50646  23013409.952    23013409.8484   23013416.4974
        -0.000          -0.000
 98  5  3  3 41 30.0000000  0  9  1 17  3 23 21  9  8 31 29          0.000000014
 -20649038.167 9 -16069716.62449  20715594.485    20715593.9934   20715599.2034
        -0.000          -0.000
   9857388.261 9   7679290.79547  22654806.462    22654805.6544   22654812.0164
        -0.000          -0.000
  -9344559.065 9  -7260165.95148  21490996.432    21490996.1134   21491001.5154
        -0.000          -0.000
   6110795.228 9   4760840.97948  21887485.560    21887484.9394   21887490.1384
        -0.000          -0.000
  -6933871.999 9  -5392595.35549  20936315.798    20936315.2814   20936320.4414
        -0.000          -0.000
  -7835543.534 9  -5953088.84946  23598527.352    23598527.0594   23598532.1924
        -0.000          -0.000
  -9569093.012 9  -7255817.48647  22935694.621    22935694.0494   22935700.2034
        -0.000          -0.000
 -11214150.723 9  -8267729.57646  23174813.843    23174813.2004   23174818.4304
        -0.000          -0.000
  -9909618.368 9  -7709980.95646  22995376.781    22995376.7024   22995383.2854
        -0.000          -0.000
 98  5  3  3 42  0.0000000  0  9  1 17  3 23 21  9  8 31 29          0.000000009
 -20697752.971 9 -16107676.18949  20706324.368    20706323.8804   20706329.0924
        -0.000          -0.000
   9937068.497 9   7741379.27447  22669969.197    22669968.3784   22669974.6474
        -0.000          -0.000
  -9321389.121 9  -7242111.47748  21495405.504    21495405.1914   21495410.6014
        -0.000          -0.000
   6154253.952 9   4794704.94448  21895755.443    21895754.8544   21895760.0604
        -0.000          -0.000
  -6941446.191 9  -5398497.31249  20934874.493    20934873.9384   20934879.1084
        -0.000          -0.000
  -7826728.998 9  -5946220.37346  23600204.706    23600204.4284   23600209.5114
        -0.000          -0.000
  -9628560.882 9  -7302156.05347  22924378.235    22924377.6434   22924383.7594
        -0.000          -0.000
 -11262214.907 9  -8305182.17446  23165667.556    23165666.8734   23165672.1504
        -0.000          -0.000
 -10004143.772 9  -7783637.05246  22977389.164    22977389.0854   22977395.6494
        -0.000          -0.000
 98  5  3  3 42 30.0000000  0  9  1 17  3 23 21  9  8 31 29          0.000000014
 -20745970.023 9 -16145247.89949  20697148.998    20697148.4924   20697153.6714
        -0.000          -0.000
  10017072.482 9   7803720.00947  22685193.438    22685192.6774   22685198.8804
        -0.000          -0.000
  -9297657.485 9  -7223619.34148  21499921.564    21499921.1944   21499926.6134
        -0.000          -0.000
   6197796.133 9   4828633.88448  21904041.266    21904040.6784   21904045.8754
        -0.000          -0.000
  -6948853.910 9  -5404269.55549  20933464.821    20933464.2744   20933469.4404
        -0.000          -0.000
  -7817376.747 9  -5938932.90146  23601984.317    23601983.9964   23601989.1794
        -0.000          -0.000
  -9687655.592 9  -7348203.85947  22913132.987    22913132.4184   22913138.3364
        -0.000          -0.000
 -11309757.096 9  -8342228.02046  23156620.473    23156619.8964   23156625.1974
        -0.000          -0.000
 -10098394.557 9  -7857079.14547  22959453.854    22959453.7614   22959460.2914
        -0.000          -0.000
 98  5  3  3 43  0.0000000  0  9  1 17  3 23 21  9  8 31 29          0.000000029
 -20793703.679 9 -16182442.93849  20688065.547    20688065.0714   20688070.2424
        -0.000          -0.000
  10097358.493 9   7866280.51247  22700471.269    22700470.5314   22700476.7674
        -0.000          -0.000
  -9273370.837 9  -7204694.71448  21504543.159    21504542.7954   21504548.2634
        -0.000          -0.000
   6241402.857 9   4862613.14948  21912339.348    21912338.7634   21912343.9824
        -0.000          -0.000
  -6956103.628 9  -5409918.67849  20932085.241    20932084.6994   20932089.8514
        -0.000          -0.000
  -7807485.389 9  -5931225.33546  23603866.520    23603866.2534   23603871.3184
        -0.000          -0.000
  -9746391.081 9  -7393971.73847  22901955.955    22901955.3264   22901961.3224
        -0.000          -0.000
 -11356772.604 9  -8378863.47346  23147673.641    23147673.1094   23147678.3934
        -0.000          -0.000
 -10192383.573 9  -7930317.27047  22941568.266    22941568.2234   22941574.6894
        -0.000          -0.000
 98  5  3  3 43 30.0000000  0  9  1 17  3 23 21  9  8 31 29          0.000000046
 -20840974.044 9 -16219276.97149  20679070.315    20679069.8384   20679074.9934
        -0.000          -0.000
  10177911.545 9   7929049.10147  22715800.003    22715799.2794   22715805.5004
        -0.000          -0.000
  -9248553.416 9  -7185356.48648  21509265.700    21509265.3964   21509270.8744
        -0.000          -0.000
   6285073.487 9   4896642.22148  21920649.611    21920649.0214   21920654.2514
        -0.000          -0.000
  -6963209.600 9  -5415455.79149  20930732.998    20930732.4754   20930737.6214
        -0.000          -0.000
  -7797062.327 9  -5923103.44946  23605849.923    23605849.6414   23605854.6884
        -0.000          -0.000
  -9804774.559 9  -7439465.31747  22890845.902    22890845.2974   22890851.2664
        -0.000          -0.000
 -11403267.131 9  -8415092.95746  23138826.088    23138825.5344   23138830.7884
        -0.000          -0.000
 -10286135.860 9  -8003370.94647  22923727.841    22923727.7434   22923734.1724
        -0.000          -0.000
 98  5  3  3 44  0.0000000  0  9  1 17  3 23 21  9  8 31 29          0.000000059
 -20887795.632 9 -16255761.31449  20670160.488    20670159.9864   20670165.1114
        -0.000          -0.000
  10258708.050 9   7992007.38547  22731175.028    22731174.3264   22731180.5864
        -0.000          -0.000
  -9223202.739 9  -7165602.74648  21514089.766    21514089.4864   21514094.9644
        -0.000          -0.000
   6328817.446 9   4930728.41548  21928973.762    21928973.1984   21928978.4414
        -0.000          -0.000
  -6970170.079 9  -5420879.53049  20929408.442    20929407.9324   20929413.0804
        -0.000          -0.000
  -7786117.278 9  -5914574.82946  23607932.763    23607932.4294   23607937.4524
        -0.000          -0.000
  -9862823.439 9  -7484698.18547  22879799.561    22879798.9254   22879804.9174
        -0.000          -0.000
 -11449230.183 9  -8450908.32046  23130079.585    23130079.0594   23130084.2524
        -0.000          -0.000
 -10379665.437 9  -8076251.08247  22905929.720    22905929.6664   22905936.0564
        -0.000          -0.000
 98  5  3  3 44 30.0000000  0  9  1 17  3 23 21  9  8 31 29          0.000000068
 -20934145.038 9 -16291877.71949  20661340.503    20661340.0024   20661345.1064
        -0.000          -0.000
  10339755.950 9   8055161.55747  22746597.919    22746597.2184   22746603.6144
        -0.000          -0.000
  -9197300.431 9  -7145419.16148  21519018.906    21519018.5734   21519024.0624
        -0.000          -0.000
   6372639.716 9   4964875.62648  21937312.842    21937312.2954   21937317.5174
        -0.000          -0.000
  -6976966.067 9  -5426175.09349  20928115.207    20928114.6984   20928119.8304
        -0.000          -0.000
  -7774638.259 9  -5905630.14046  23610117.188    23610116.8664   23610121.8824
        -0.000          -0.000
  -9920534.225 9  -7529667.59047  22868817.430    22868816.8284   22868822.9334
        -0.000          -0.000
 -11494653.034 9  -8486302.73446  23121435.809    23121435.3434   23121440.5434
        -0.000          -0.000
 -10472956.048 9  -8148945.00147  22888177.104    22888177.0354   22888183.3244
        -0.000          -0.000
 98  5  3  3 45  0.0000000  0  9  1 17  3 23 21  9  8 31 29          0.000000079
 -20980020.146 9 -16327624.55849  20652610.784    20652610.2464   20652615.3454
        -0.000          -0.000
  10421068.425 9   8118521.88946  22762071.193    22762070.4674   22762076.9264
        -0.000          -0.000
  -9170845.904 9  -7124805.29848  21524053.052    21524052.7284   21524058.1944
        -0.000          -0.000
   6416542.011 9   4999085.20048  21945667.173    21945666.5914   21945671.8174
        -0.000          -0.000
  -6983618.472 9  -5431358.77949  20926849.325    20926848.7944   20926853.9124
        -0.000          -0.000
  -7762617.583 9  -5896263.37046  23612404.639    23612404.2934   23612409.4164
        -0.000          -0.000
  -9977888.701 9  -7574359.37247  22857903.343    22857902.6734   22857908.6584
        -0.000          -0.000
 -11539539.447 9  -8521279.14846  23112894.169    23112893.6674   23112898.8724
        -0.000          -0.000
 -10566012.972 9  -8221456.83947  22870468.964    22870468.8844   22870475.0934
        -0.000          -0.000
 98  5  3  3 45 30.0000000  0  9  1 17  3 23 21  9  8 31 29          0.000000080
 -21025414.023 9 -16362996.40549  20643972.622    20643972.1054   20643977.1574
        -0.000          -0.000
  10502676.955 9   8182112.91246  22777600.792    22777600.0764   22777606.5364
        -0.000          -0.000
  -9143834.166 9  -7103757.23248  21529193.319    21529192.9604   21529198.4034
        -0.000          -0.000
   6460541.272 9   5033370.34048  21954039.950    21954039.3754   21954044.5724
        -0.000          -0.000
  -6990120.881 9  -5436425.57849  20925611.966    20925611.4114   20925616.5564
        -0.000          -0.000
  -7750064.760 9  -5886481.94246  23614793.367    23614793.0394   23614798.1614
        -0.000          -0.000
 -10034880.971 9  -7618768.89147  22847058.069    22847057.4114   22847063.2784
        -0.000          -0.000
 -11583915.997 9  -8555858.26246  23104449.501    23104449.0534   23104454.3004
        -0.000          -0.000
 -10658823.523 9  -8293776.69847  22852807.671    22852807.6214   22852813.7524
        -0.000          -0.000
 98  5  3  3 46  0.0000000  0  9  1 17  3 23 21  9  8 31 29          0.000000066
 -21070308.823 9 -16397979.37849  20635429.403    20635428.8804   20635433.9064
        -0.000          -0.000
  10584588.012 9   8245939.66446  22793188.039    22793187.3354   22793193.7084
        -0.000          -0.000
  -9116254.822 9  -7082266.85348  21534441.573    21534441.1874   21534446.6404
        -0.000          -0.000
   6504619.940 9   5067717.34948  21962427.840    21962427.2484   21962432.4454
        -0.000          -0.000
  -6996457.569 9  -5441363.25249  20924406.113    20924405.5854   20924410.7184
        -0.000          -0.000
  -7736975.062 9  -5876282.16946  23617284.296    23617284.0244   23617288.9744
        -0.000          -0.000
 -10091504.761 9  -7662891.30247  22836282.872    22836282.2314   22836288.0984
        -0.000          -0.000
 -11627788.282 9  -8590044.45446  23096100.806    23096100.4524   23096105.6404
        -0.000          -0.000
 -10751384.122 9  -8365901.78847  22835193.993    22835193.8944   22835199.9514
        -0.000          -0.000
 98  5  3  3 46 30.0000000  0  9  1 17  3 23 21  9  8 31 29          0.000000045
 -21114662.263 9 -16432540.51349  20626989.213    20626988.7234   20626993.7124
        -0.000          -0.000
  10666842.036 9   8310033.68546  22808840.542    22808839.8094   22808846.1054
        -0.000          -0.000
  -9088095.918 9  -7060324.86548  21539800.045    21539799.6774   21539805.1124
        -0.000          -0.000
   6548803.799 9   5102146.32648  21970835.734    21970835.1484   21970840.3404
        -0.000          -0.000
  -7002598.255 9  -5446148.19049  20923237.574    20923237.0254   20923242.1744
        -0.000          -0.000
  -7723313.612 9  -5865636.87946  23619883.993    23619883.7354   23619888.6844
        -0.000          -0.000
 -10147708.951 9  -7706686.74047  22825587.576    22825586.9754   22825592.8114
        -0.000          -0.000
 -11671146.982 9  -8623830.45246  23087849.962    23087849.5744   23087854.7384
        -0.000          -0.000
 -10843670.037 9  -8437812.84847  22817632.498    22817632.4714   22817638.4624
        -0.000          -0.000
 98  5  3  3 47  0.0000000  0  9  1 17  3 23 21  9  8 31 29          0.000000023
 -21158466.852 9 -16466673.97149  20618653.439    20618652.9544   20618657.9524
        -0.000          -0.000
  10749449.319 9   8374402.95846  22824560.119    22824559.4164   22824565.7634
        -0.000          -0.000
  -9059364.859 9  -7037937.03748  21545267.386    21545267.0224   21545272.4924
        -0.000          -0.000
   6593109.866 9   5136670.54848  21979266.877    21979266.3114   21979271.4684
        -0.000          -0.000
  -7008534.872 9  -5450774.11649  20922107.881    20922107.3274   20922112.5144
        -0.000          -0.000
  -7709078.144 9  -5854544.30746  23622592.847    23622592.6194   23622597.5564
        -0.000          -0.000
 -10203467.068 9  -7750134.57847  22814977.146    22814976.5314   22814982.3934
        -0.000          -0.000
 -11713977.545 9  -8657204.90946  23079699.616    23079699.1874   23079704.3394
        -0.000          -0.000
 -10935676.469 9  -8509506.10547  22800124.213    22800124.1334   22800130.1384
        -0.000          -0.000
 98  5  3  3 47 30.0000000  0  9  1 17  3 23 21  9  8 31 29         -0.000000003
 -21201708.409 9 -16500368.69949  20610424.822    20610424.3504   20610429.3574
        -0.000          -0.000
  10832411.061 9   8439048.42246  22840347.327    22840346.6074   22840352.9394
        -0.000          -0.000
  -9030053.799 9  -7015097.25148  21550845.093    21550844.7514   21550850.2194
        -0.000          -0.000
   6637551.980 9   5171300.74748  21987723.912    21987723.3864   21987728.5124
        -0.000          -0.000
  -7014226.069 9  -5455208.80349  20921024.858    20921024.3264   20921029.4924
        -0.000          -0.000
  -7694261.963 9  -5842999.23246  23625412.311    23625412.1074   23625417.0604
        -0.000          -0.000
 -10258773.223 9  -7793230.25547  22804452.784    22804452.1764   22804457.9864
        -0.000          -0.000
 -11756263.257 9  -8690154.78446  23071652.889    23071652.4784   23071657.6244
        -0.000          -0.000
 -11027393.417 9  -8580973.79847  22782671.016    22782670.9164   22782676.8844
        -0.000          -0.000
 98  5  3  3 48  0.0000000  0  9  1 17  3 23 21  9  8 31 29         -0.000000021
 -21244385.521 9 -16533623.59149  20602303.630    20602303.1524   20602308.2104
        -0.000          -0.000
  10915716.151 9   8503961.44247  22856199.833    22856199.0824   22856205.4114
        -0.000          -0.000
  -9000165.248 9  -6991807.49048  21556532.697    21556532.3434   21556537.7854
        -0.000          -0.000
   6682132.988 9   5206039.17748  21996207.455    21996206.8834   21996211.9614
        -0.000          -0.000
  -7019678.700 9  -5459457.59449  20919987.241    20919986.7044   20919991.8794
        -0.000          -0.000
  -7678849.642 9  -5830989.62246  23628345.212    23628344.9574   23628349.9474
        -0.000          -0.000
 -10313611.417 9  -7835961.27247  22794017.341    22794016.7314   22794022.4984
        -0.000          -0.000
 -11797979.493 9  -8722660.94446  23063714.625    23063714.1034   23063719.2514
        -0.000          -0.000
 -11118824.589 9  -8652218.80747  22765272.203    22765272.1004   22765278.0764
        -0.000          -0.000
 98  5  3  3 48 30.0000000  0  9  1 17  3 23 21  9  8 31 29         -0.000000028
 -21286527.905 9 -16566461.77449  20594284.160    20594283.6644   20594288.7714
        -0.000          -0.000
  10999342.239 9   8569124.58847  22872113.366    22872112.6064   22872118.9754
        -0.000          -0.000
  -8969720.110 9  -6968084.03748  21562326.235    21562325.9224   21562331.3334
        -0.000          -0.000
   6726842.193 9   5240877.50448  22004715.347    22004714.7834   22004719.8354
        -0.000          -0.000
  -7024928.940 9  -5463548.67849  20918988.138    20918987.6064   20918992.7834
        -0.000          -0.000
  -7662857.781 9  -5818528.44446  23631388.368    23631388.1314   23631392.9874
        -0.000          -0.000
 -10368005.907 9  -7878346.55447  22783666.380    22783665.7464   22783671.5024
        -0.000          -0.000
 -11839130.579 9  -8754726.71046  23055883.916    23055883.3544   23055888.4974
        -0.000          -0.000
 -11209978.205 9  -8723247.52047  22747926.237    22747926.0394   22747932.0314
        -0.000          -0.000
 98  5  3  3 49  0.0000000  0  9  1 17  3 23 21  9  8 31 29         -0.000000022
 -21328153.448 9 -16598897.19449  20586363.050    20586362.5684   20586367.7024
        -0.000          -0.000
  11083266.953 9   8634520.42047  22888083.766    22888082.9904   22888089.4214
        -0.000          -0.000
  -8938716.921 9  -6943925.72748  21568226.009    21568225.6684   21568231.0924
        -0.000          -0.000
   6771656.675 9   5275797.88448  22013243.296    22013242.7394   22013247.7504
        -0.000          -0.000
  -7029999.088 9  -5467499.42949  20918023.315    20918022.7944   20918027.9574
        -0.000          -0.000
  -7646297.743 9  -5805624.52546  23634539.721    23634539.5194   23634544.3224
        -0.000          -0.000
 -10421985.312 9  -7920408.40147  22773394.378    22773393.7674   22773399.4744
        -0.000          -0.000
 -11879719.112 9  -8786354.13647  23048160.167    23048159.6514   23048164.7044
        -0.000          -0.000
 -11300850.629 9  -8794057.13847  22730633.720    22730633.5794   22730639.5024
        -0.000          -0.000
 98  5  3  3 49 30.0000000  0  9  1 17  3 23 21  9  8 31 29         -0.000000023
 -21369302.995 9 -16630961.70549  20578532.545    20578532.0494   20578537.1954
        -0.000          -0.000
  11167443.999 9   8700112.89047  22904102.138    22904101.4104   22904107.8014
        -0.000          -0.000
  -8907180.261 9  -6919351.73648  21574227.255    21574226.9134   21574232.3124
        -0.000          -0.000
   6816536.078 9   5310768.82748  22021783.548    22021783.0174   22021788.0484
        -0.000          -0.000
  -7034942.813 9  -5471351.67549  20917082.568    20917082.0554   20917087.2054
        -0.000          -0.000
  -7629200.892 9  -5792302.30446  23637793.143    23637792.8974   23637797.6944
        -0.000          -0.000
 -10475592.103 9  -7962179.88847  22763193.399    22763192.7504   22763198.4244
        -0.000          -0.000
 -11919790.512 9  -8817578.58847  23040534.810    23040534.2414   23040539.3764
        -0.000          -0.000
 -11391466.552 9  -8864666.88047  22713389.991    22713389.8684   22713395.7474
        -0.000          -0.000
 98  5  3  3 50  0.0000000  0  9  1 17  3 23 21  9  8 31 29         -0.000000003
 -21409962.271 9 -16662644.20749  20570795.293    20570794.7954   20570799.9354
        -0.000          -0.000
  11251904.952 9   8765926.58447  22920174.523    22920173.8144   22920180.2354
        -0.000          -0.000
  -8875092.477 9  -6894348.31248  21580333.344    21580333.0364   21580338.4574
        -0.000          -0.000
   6861486.685 9   5345795.28148  22030337.412    22030336.8154   22030341.8864
        -0.000          -0.000
  -7039767.070 9  -5475110.82649  20916164.584    20916164.0214   20916169.1614
        -0.000          -0.000
  -7611555.907 9  -5778552.95646  23641150.860    23641150.6414   23641155.3984
        -0.000          -0.000
 -10528808.256 9  -8003646.96947  22753066.635    22753066.0204   22753071.7094
        -0.000          -0.000
 -11959322.180 9  -8848382.46847  23033012.261    23033011.6684   23033016.8604
        -0.000          -0.000
 -11481786.158 9  -8935045.72947  22696202.747    22696202.5664   22696208.4614
        -0.000          -0.000
 98  5  3  3 50 30.0000000  0  9  1 17  3 23 21  9  8 31 29          0.000000024
 -21450160.028 9 -16693967.11649  20563145.872    20563145.3814   20563150.5064
        -0.000          -0.000
  11336630.945 9   8831946.78647  22936297.370    22936296.6524   22936303.0854
        -0.000          -0.000
  -8842466.869 9  -6868925.80948  21586541.856    21586541.5184   21586546.9644
        -0.000          -0.000
   6906472.297 9   5380848.97148  22038897.920    22038897.3194   22038902.4244
        -0.000          -0.000
  -7044484.865 9  -5478787.02949  20915266.789    20915266.2624   20915271.3844
        -0.000          -0.000
  -7593403.213 9  -5764408.00546  23644605.226    23644604.9614   23644609.7254
        -0.000          -0.000
 -10581669.040 9  -8044837.16347  22743007.566    22743006.8754   22743012.6654
        -0.000          -0.000
 -11998332.798 9  -8878780.35447  23025588.629    23025588.1084   23025593.3504
        -0.000          -0.000
 -11571815.886 9  -9005198.70147  22679070.583    22679070.3864   22679076.3614
        -0.000          -0.000
 98  5  3  3 51  0.0000000  0  9  1 17  3 23 21  9  8 31 29          0.000000038
 -21489925.370 9 -16724953.08049  20555578.754    20555578.2794   20555583.3914
        -0.000          -0.000
  11421601.633 9   8898157.67447  22952466.813    22952466.0384   22952472.5054
        -0.000          -0.000
  -8809332.567 9  -6843106.91048  21592847.094    21592846.7934   21592852.2224
        -0.000          -0.000
   6951473.209 9   5415914.59048  22047461.298    22047460.7014   22047465.8684
        -0.000          -0.000
  -7049103.435 9  -5482385.90649  20914387.858    20914387.3414   20914392.4844
        -0.000          -0.000
  -7574770.485 9  -5749888.99746  23648150.904    23648150.6364   23648155.5004
        -0.000          -0.000
 -10634172.102 9  -8085748.60447  22733016.448    22733015.8314   22733021.5744
        -0.000          -0.000
 -12036849.180 9  -8908793.11347  23018259.099    23018258.5914   23018263.9394
        -0.000          -0.000
 -11661583.635 9  -9075147.53747  22661988.288    22661988.0624   22661994.0974
        -0.000          -0.000
 98  5  3  3 51 30.0000000  0  9  1 17  3 23 21  9  8 31 29          0.000000047
 -21529255.847 9 -16755600.19249  20548094.408    20548093.9314   20548099.0174
        -0.000          -0.000
  11506836.138 9   8964574.12947  22968686.514    22968685.8104   22968692.1934
        -0.000          -0.000
  -8775687.963 9  -6816890.36948  21599249.457    21599249.1514   21599254.5674
        -0.000          -0.000
   6996508.978 9   5451007.40548  22056031.325    22056030.7684   22056035.9704
        -0.000          -0.000
  -7053604.227 9  -5485893.01349  20913531.387    20913530.8744   20913535.9914
        -0.000          -0.000
  -7555658.674 9  -5734996.66146  23651787.623    23651787.3094   23651792.3414
        -0.000          -0.000
 -10686294.713 9  -8126363.59047  22723097.913    22723097.1974   22723102.9454
        -0.000          -0.000
 -12074849.241 9  -8938403.55447  23011027.897    23011027.3974   23011032.7984
        -0.000          -0.000
 -11751086.774 9  -9144890.18547  22644956.302    22644956.1144   22644962.2004
        -0.000          -0.000
 98  5  3  3 52  0.0000000  0  9  1 17  3 23 21  9  8 31 29          0.000000053
 -21568146.965 9 -16785904.94049  20540693.685    20540693.2144   20540698.2974
        -0.000          -0.000
  11592353.836 9   9031211.26546  22984960.126    22984959.3144   22984965.5354
        -0.000          -0.000
  -8741546.053 9  -6790286.29248  21605746.472    21605746.1734   21605751.6104
        -0.000          -0.000
   7041588.849 9   5486134.56348  22064609.732    22064609.1794   22064614.4414
        -0.000          -0.000
  -7057969.373 9  -5489294.42149  20912700.749    20912700.2294   20912705.3734
        -0.000          -0.000
  -7536065.357 9  -5719729.14146  23655516.122    23655515.8474   23655520.6844
        -0.000          -0.000
 -10738031.826 9  -8166678.19647  22713252.657    22713251.9734   22713257.6664
        -0.000          -0.000
 -12112310.969 9  -8967594.50047  23003899.232    23003898.6834   23003904.1084
        -0.000          -0.000
 -11840328.145 9  -9214428.84547  22627974.112    22627974.0004   22627980.0704
        -0.000          -0.000
 98  5  3  3 52 30.0000000  0  9  1 17  3 23 21  9  8 31 29          0.000000035
 -21606609.151 9 -16815875.45449  20533374.588    20533374.0914   20533379.1384
        -0.000          -0.000
  11678125.409 9   9098046.21146  23001281.938    23001281.2054   23001287.4714
        -0.000          -0.000
  -8706939.975 9  -6763320.54848  21612331.799    21612331.5144   21612336.9634
        -0.000          -0.000
   7086695.253 9   5521282.36348  22073193.185    22073192.6274   22073197.9134
        -0.000          -0.000
  -7062205.690 9  -5492595.43949  20911894.586    20911894.0474   20911899.1894
        -0.000          -0.000
  -7515998.412 9  -5704092.56846  23659334.693    23659334.4234   23659339.2904
        -0.000          -0.000
 -10789393.361 9  -8206700.14347  22703478.858    22703478.2294   22703483.9334
        -0.000          -0.000
 -12149256.746 9  -8996383.41047  22996868.692    22996868.0794   22996873.5634
        -0.000          -0.000
 -11929347.422 9  -9283794.44547  22611034.224    22611034.1474   22611040.2124
        -0.000          -0.000
 98  5  3  3 53  0.0000000  0  9  1 17  3 23 21  9  8 31 29          0.000000016
 -21644571.127 9 -16845456.20249  20526150.686    20526150.1724   20526155.2134
        -0.000          -0.000
  11764209.907 9   9165125.00146  23017663.300    23017662.5244   23017668.6834
        -0.000          -0.000
  -8671832.685 9  -6735964.26648  21619012.521    21619012.2194   21619017.6964
        -0.000          -0.000
   7131896.543 9   5556504.17748  22081794.708    22081794.1324   22081799.4644
        -0.000          -0.000
  -7066262.197 9  -5495756.34449  20911122.676    20911122.1214   20911127.2664
        -0.000          -0.000
  -7495386.002 9  -5688030.95146  23663257.141    23663256.8284   23663261.7294
        -0.000          -0.000
 -10840325.465 9  -8246387.46147  22693786.791    22693786.1594   22693791.8314
        -0.000          -0.000
 -12185643.617 9  -9024736.82747  22989944.491    22989943.8924   22989949.3864
        -0.000          -0.000
 -12018103.355 9  -9352954.84647  22594144.430    22594144.3804   22594150.4294
        -0.000          -0.000
 98  5  3  3 53 30.0000000  0  9  1 17  3 23 21  9  8 31 29         -0.000000004
 -21681997.479 9 -16874619.62049  20519028.634    20519028.1524   20519033.1884
        -0.000          -0.000
  11850624.797 9   9232461.24446  23034107.460    23034106.7694   23034112.9804
        -0.000          -0.000
  -8636212.037 9  -6708207.94848  21625790.945    21625790.6274   21625796.1344
        -0.000          -0.000
   7177198.152 9   5591804.04848  22090415.304    22090414.7744   22090420.0764
        -0.000          -0.000
  -7070138.363 9  -5498776.73049  20910385.003    20910384.4824   20910389.6224
        -0.000          -0.000
  -7474215.516 9  -5671534.46746  23667285.669    23667285.3594   23667290.3954
        -0.000          -0.000
 -10890838.678 9  -8285748.37447  22684174.302    22684173.6444   22684179.4204
        -0.000          -0.000
 -12221469.851 9  -9052653.36347  22983126.977    22983126.3734   22983131.8974
        -0.000          -0.000
 -12106584.960 9  -9421901.47547  22577306.892    22577306.8264   22577312.8874
        -0.000          -0.000
 98  5  3  3 54  0.0000000  0  9  1 17  3 23 21  9  8 31 29         -0.000000028
 -21718870.262 9 -16903351.64449  20512011.959    20512011.4604   20512016.5154
        -0.000          -0.000
  11937367.768 9   9300053.12746  23050614.092    23050613.3724   23050619.6994
        -0.000          -0.000
  -8600077.151 9  -6680050.92148  21632667.282    21632666.9164   21632672.4284
        -0.000          -0.000
   7222595.233 9   5627178.39448  22099054.145    22099053.5834   22099058.8694
        -0.000          -0.000
  -7073833.673 9  -5501656.18549  20909681.834    20909681.2994   20909686.4414
        -0.000          -0.000
  -7452475.616 9  -5654594.29146  23671422.631    23671422.3754   23671427.3264
        -0.000          -0.000
 -10940921.497 9  -8324773.91747  22674643.724    22674643.1514   22674648.9824
        -0.000          -0.000
 -12256738.985 9  -9080135.80147  22976415.399    22976414.8394   22976420.3934
        -0.000          -0.000
 -12194784.989 9  -9490628.70947  22560522.867    22560522.8654   22560528.9324
        -0.000          -0.000
 98  5  3  3 54 30.0000000  0  9  1 17  3 23 21  9  8 31 29         -0.000000038
 -21755161.152 9 -16931630.24949  20505106.039    20505105.5414   20505110.6004
        -0.000          -0.000
  12024445.741 9   9367906.05646  23067184.489    23067183.7914   23067190.1614
        -0.000          -0.000
  -8563394.050 9  -6651466.72948  21639647.868    21639647.5044   21639652.9754
        -0.000          -0.000
   7268100.156 9   5662636.79648  22107713.480    22107712.9294   22107718.1654
        -0.000          -0.000
  -7077324.457 9  -5504376.26849  20909017.562    20909017.0194   20909022.1734
        -0.000          -0.000
  -7430126.933 9  -5637179.72046  23675675.405    23675675.0814   23675680.0744
        -0.000          -0.000
 -10990541.036 9  -8363438.46847  22665201.452    22665200.8184   22665206.6354
        -0.000          -0.000
 -12291431.346 9  -9107168.81747  22969813.661    22969813.1094   22969818.6734
        -0.000          -0.000
 -12282672.632 9  -9559112.51647  22543798.328    22543798.3134   22543804.3604
        -0.000          -0.000
 98  5  3  3 55  0.0000000  0  9  1 17  3 23 21  9  8 31 29         -0.000000034
 -21790889.846 9 -16959470.77549  20498307.077    20498306.5784   20498311.6414
        -0.000          -0.000
  12111834.986 9   9436001.53546  23083814.121    23083813.3994   23083819.7154
        -0.000          -0.000
  -8526168.318 9  -6622459.71148  21646731.685    21646731.3604   21646736.8444
        -0.000          -0.000
   7313709.821 9   5698176.75848  22116392.815    22116392.2304   22116397.3904
        -0.000          -0.000
  -7080635.874 9  -5506956.58349  20908387.418    20908386.8754   20908392.0154
        -0.000          -0.000
  -7407175.765 9  -5619295.69046  23680042.822    23680042.5474   23680047.4434
        -0.000          -0.000
 -11039706.875 9  -8401749.48047  22655845.462    22655844.8854   22655850.7054
        -0.000          -0.000
 -12325557.284 9  -9133760.45547  22963319.783    22963319.1954   22963324.7924
        -0.000          -0.000
 -12370254.179 9  -9627357.81647  22527132.085    22527132.0514   22527138.0814
        -0.000          -0.000
 98  5  3  3 55 30.0000000  0  9  1 17  3 23 21  9  8 31 29         -0.000000013
 -21826092.621 9 -16986901.49949  20491608.165    20491607.6954   20491612.7554
        -0.000          -0.000
  12199496.216 9   9504308.94746  23100495.568    23100494.8004   23100501.2284
        -0.000          -0.000
  -8488410.705 9  -6593038.23048  21653916.771    21653916.4154   21653921.8944
        -0.000          -0.000
   7359399.986 9   5733779.47148  22125087.394    22125086.8214   22125091.9374
        -0.000          -0.000
  -7083787.879 9  -5509412.68449  20907787.595    20907787.0404   20907792.1554
        -0.000          -0.000
  -7383642.365 9  -5600957.98046  23684521.068    23684520.7674   23684525.8234
        -0.000          -0.000
 -11088416.968 9  -8439705.35647  22646576.267    22646575.6524   22646581.4024
        -0.000          -0.000
 -12359119.896 9  -9159913.13247  22956933.043    22956932.4564   22956938.0724
        -0.000          -0.000
 -12457532.178 9  -9695366.58647  22510523.604    22510523.5694   22510529.5754
        -0.000          -0.000
 98  5  3  3 56  0.0000000  0  9  1 17  3 23 21  9  8 31 29          0.000000018
 -21860820.855 9 -17013962.42749  20484999.602    20484999.1204   20485004.1734
        -0.000          -0.000
  12287380.587 9   9572790.23646  23117219.450    23117218.7124   23117225.1074
        -0.000          -0.000
  -8450145.384 9  -6563221.14948  21661198.425    21661198.0554   21661203.5644
        -0.000          -0.000
   7405146.282 9   5769425.89048  22133792.678    22133792.1254   22133797.2074
        -0.000          -0.000
  -7086801.351 9  -5511760.83949  20907214.146    20907213.6174   20907218.7184
        -0.000          -0.000
  -7359549.561 9  -5582184.34746  23689105.732    23689105.3744   23689110.5494
        -0.000          -0.000
 -11136687.578 9  -8477318.79747  22637390.726    22637390.0814   22637395.7284
        -0.000          -0.000
 -12392130.455 9  -9185635.66447  22950651.236    22950650.7064   22950656.3204
        -0.000          -0.000
 -12544529.493 9  -9763156.63547  22493968.436    22493968.4304   22493974.4544
        -0.000          -0.000
 98  5  3  3 56 30.0000000  0  9  1 17  3 23 21  9  8 31 29          0.000000045
 -21895117.345 9 -17040686.93249  20478473.187    20478472.6884   20478477.7534
        -0.000          -0.000
  12375451.716 9   9641417.03546  23133978.817    23133978.1204   23133984.6044
        -0.000          -0.000
  -8411381.241 9  -6533015.34048  21668575.004    21668574.6184   21668580.2144
        -0.000          -0.000
   7450928.037 9   5805099.99848  22142504.637    22142504.1034   22142509.1404
        -0.000          -0.000
  -7089698.692 9  -5514018.50149  20906662.824    20906662.2794   20906667.3614
        -0.000          -0.000
  -7334916.315 9  -5562989.60346  23693793.161    23693792.8984   23693797.9914
        -0.000          -0.000
 -11184552.694 9  -8514616.25947  22628282.307    22628281.6374   22628287.2224
        -0.000          -0.000
 -12424617.503 9  -9210950.25247  22944469.112    22944468.6154   22944474.2094
        -0.000          -0.000
 -12631273.037 9  -9830748.94247  22477461.642    22477461.6374   22477467.6814
        -0.000          -0.000
 98  5  3  3 57  0.0000000  0  9  1 17  3 23 21  9  8 31 29          0.000000074
 -21928954.756 9 -17067053.72549  20472034.092    20472033.6064   20472038.6734
        -0.000          -0.000
  12463741.474 9   9710214.21146  23150779.940    23150779.1894   23150785.6354
        -0.000          -0.000
  -8372080.548 9  -6502391.43548  21676053.669    21676053.3004   21676058.8904
        -0.000          -0.000
   7496783.467 9   5840831.50748  22151230.676    22151230.1324   22151235.1764
        -0.000          -0.000
  -7092443.442 9  -5516157.25549  20906140.530    20906139.9514   20906145.0334
        -0.000          -0.000
  -7309739.133 9  -5543371.00146  23698584.265    23698583.9714   23698589.0884
        -0.000          -0.000
 -11231977.675 9  -8551570.76147  22619257.518    22619256.9244   22619262.5644
        -0.000          -0.000
 -12456568.143 9  -9235846.84447  22938389.040    22938388.5644   22938394.2334
        -0.000          -0.000
 -12717730.250 9  -9898118.13347  22461009.335    22461009.3074   22461015.3754
        -0.000          -0.000
 98  5  3  3 57 30.0000000  0  9  1 17  3 23 21  9  8 31 29          0.000000091
 -21962354.126 9 -17093079.17949  20465678.392    20465677.9064   20465682.9924
        -0.000          -0.000
  12552247.020 9   9779179.53146  23167622.015    23167621.2994   23167627.7184
        -0.000          -0.000
  -8332253.573 9  -6471357.43648  21683632.533    21683632.1844   21683637.7764
        -0.000          -0.000
   7542678.910 9   5876594.15848  22159964.336    22159963.7564   22159968.7554
        -0.000          -0.000
  -7095052.465 9  -5518190.25749  20905644.020    20905643.4444   20905648.5164
        -0.000          -0.000
  -7284054.372 9  -5523356.90746  23703471.923    23703471.7074   23703476.7474
        -0.000          -0.000
 -11278983.308 9  -8588198.49747  22610312.602    22610311.9574   22610317.7064
        -0.000          -0.000
 -12488003.351 9  -9260341.82047  22932407.178    22932406.6454   22932412.2924
        -0.000          -0.000
 -12803914.966 9  -9965274.98447  22444608.833    22444608.8414   22444614.8984
        -0.000          -0.000
 98  5  3  3 58  0.0000000  0  9  1 17  3 23 21  9  8 31 29          0.000000088
 -21995316.560 9 -17118764.16649  20459405.829    20459405.3384   20459410.4214
        -0.000          -0.000
  12640976.288 9   9848319.17746  23184506.603    23184505.8704   23184512.3334
        -0.000          -0.000
  -8291901.268 9  -6439914.11048  21691311.369    21691311.0184   21691316.5674
        -0.000          -0.000
   7588603.238 9   5912379.34348  22168703.468    22168702.8864   22168707.9074
        -0.000          -0.000
  -7097538.952 9  -5520127.77249  20905170.838    20905170.2724   20905175.3194
        -0.000          -0.000
  -7257873.353 9  -5502956.08646  23708454.120    23708453.9294   23708458.9094
        -0.000          -0.000
 -11325579.231 9  -8624506.97947  22601445.669    22601445.0454   22601450.8184
        -0.000          -0.000
 -12518940.387 9  -9284448.59547  22926520.113    22926519.5404   22926525.0814
        -0.000          -0.000
 -12889841.506 9 -10032230.66747  22428257.485    22428257.5204   22428263.5744
        -0.000          -0.000
 98  5  3  3 58 30.0000000  0  9  1 17  3 23 21  9  8 31 29          0.000000072
 -22027797.288 9 -17144073.80449  20453224.937    20453224.4374   20453229.5124
        -0.000          -0.000
  12729974.700 9   9917668.54346  23201442.572    23201441.7574   23201448.2384
        -0.000          -0.000
  -8251016.465 9  -6408055.82748  21699091.537    21699091.1624   21699096.6624
        -0.000          -0.000
   7634588.350 9   5948211.87348  22177454.137    22177453.5384   22177458.5604
        -0.000          -0.000
  -7099883.179 9  -5521954.43949  20904724.708    20904724.1414   20904729.2124
        -0.000          -0.000
  -7231176.610 9  -5482153.44046  23713534.298    23713534.0524   23713539.1594
        -0.000          -0.000
 -11371741.777 9  -8660477.77247  22592661.246    22592660.6164   22592666.3334
        -0.000          -0.000
 -12549364.089 9  -9308155.39247  22920730.770    22920730.1894   22920735.6594
        -0.000          -0.000
 -12975482.225 9 -10098963.61947  22411960.636    22411960.6034   22411966.6594
        -0.000          -0.000
 98  5  3  3 59  0.0000000  0  9  1 17  3 23 21  9  8 31 29          0.000000047
 -22059761.776 9 -17168981.18149  20447142.263    20447141.7584   20447146.8224
        -0.000          -0.000
  12819272.209 9   9987250.96446  23218435.288    23218434.5124   23218441.0314
        -0.000          -0.000
  -8209614.705 9  -6375794.72448  21706970.115    21706969.6984   21706975.1724
        -0.000          -0.000
   7680652.445 9   5984105.94448  22186219.829    22186219.2104   22186224.2604
        -0.000          -0.000
  -7102084.432 9  -5523669.69349  20904305.796    20904305.2514   20904310.3194
        -0.000          -0.000
  -7203966.218 9  -5460950.54246  23718712.286    23718712.0274   23718717.0724
        -0.000          -0.000
 -11417456.493 9  -8696099.60547  22583962.020    22583961.4084   22583967.0504
        -0.000          -0.000
 -12579259.763 9  -9331450.71847  22915041.818    22915041.2274   22915046.6634
        -0.000          -0.000
 -13060811.598 9 -10165453.95047  22395723.051    22395722.9344   22395728.9854
        -0.000          -0.000
 98  5  3  3 59 30.0000000  0  9  1 17  3 23 21  9  8 31 29          0.000000035
 -22091180.997 9 -17193463.67449  20441163.367    20441162.8774   20441167.9384
        -0.000          -0.000
  12908894.252 9  10057086.29546  23235489.794    23235489.0464   23235495.4984
        -0.000          -0.000
  -8167693.095 9  -6343128.57248  21714947.525    21714947.1354   21714952.5994
        -0.000          -0.000
   7726813.141 9   6020075.29948  22195003.902    22195003.3094   22195008.3804
        -0.000          -0.000
  -7104132.558 9  -5525265.63249  20903916.061    20903915.5014   20903920.5434
        -0.000          -0.000
  -7176205.725 9  -5439318.96946  23723994.971    23723994.7104   23723999.7804
        -0.000          -0.000
 -11462705.222 9  -8731358.31847  22575351.510    22575350.8804   22575356.3614
        -0.000          -0.000
 -12608590.579 9  -9354305.89547  22909460.373    22909459.7714   22909465.1904
        -0.000          -0.000
 -13145813.083 9 -10231688.80547  22379547.791    22379547.6924   22379553.6664
        -0.000          -0.000
 98  5  3  4  0  0.0000000  0  9  1 17  3 23 21  9  8 31 29          0.000000010
 -22122069.486 9 -17217532.61349  20435285.477    20435284.9674   20435290.0534
        -0.000          -0.000
  12998806.267 9  10127147.54646  23252599.510    23252598.7704   23252605.3804
        -0.000          -0.000
  -8125305.523 9  -6310099.34648  21723013.582    21723013.2414   21723018.6794
        -0.000          -0.000
   7773052.729 9   6056106.14448  22203802.960    22203802.3884   22203807.4924
        -0.000          -0.000
  -7106044.645 9  -5526755.56549  20903552.182    20903551.6524   20903556.7004
        -0.000          -0.000
  -7147916.118 9  -5417275.09446  23729378.377    23729378.1134   23729383.1554
        -0.000          -0.000
 -11507512.991 9  -8766273.43347  22566824.825    22566824.1734   22566829.6824
        -0.000          -0.000
 -12637380.777 9  -9376739.81847  22903981.790    22903981.2044   22903986.6324
        -0.000          -0.000
 -13230521.976 9 -10297695.67847  22363428.261    22363428.1214   22363434.0144
        -0.000          -0.000
 98  5  3  4  0 30.0000000  0  9  1 17  3 23 21  9  8 31 29         -0.000000020
 -22152389.952 9 -17241158.93549  20429515.689    20429515.1914   20429520.2694
        -0.000          -0.000
  13089032.926 9  10197454.00046  23269769.264    23269768.4854   23269774.8614
        -0.000          -0.000
  -8082438.570 9  -6276696.56748  21731170.918    21731170.6044   21731176.0104
        -0.000          -0.000
   7819409.501 9   6092228.31148  22212624.352    22212623.7804   22212628.9254
        -0.000          -0.000
  -7107785.292 9  -5528111.90449  20903220.914    20903220.3724   20903225.4634
        -0.000          -0.000
  -7119072.113 9  -5394799.24846  23734867.213    23734866.9244   23734872.0314
        -0.000          -0.000
 -11551851.465 9  -8800822.85547  22558387.345    22558386.6844   22558392.2954
        -0.000          -0.000
 -12665599.663 9  -9398728.55547  22898611.976    22898611.3514   22898616.7474
        -0.000          -0.000
 -13314909.882 9 -10363452.41747  22347369.807    22347369.6584   22347375.4694
        -0.000          -0.000
 98  5  3  4  1  0.0000000  0  9  1 17  3 23 21  9  8 31 29         -0.000000037
 -22182127.815 9 -17264331.28449  20423856.760    20423856.2594   20423861.3264
        -0.000          -0.000
  13179578.035 9  10268008.56446  23286999.434    23286998.7264   23287005.2014
        -0.000          -0.000
  -8039057.953 9  -6242893.54748  21739426.019    21739425.7184   21739431.1204
        -0.000          -0.000
   7865886.992 9   6128444.49748  22221468.668    22221468.1384   22221473.3114
        -0.000          -0.000
  -7109333.054 9  -5529317.94249  20902926.388    20902925.8664   20902930.9414
        -0.000          -0.000
  -7089650.836 9  -5371873.54846  23740465.839    23740465.5084   23740470.6714
        -0.000          -0.000
 -11595687.218 9  -8834980.56247  22550045.607    22550044.9994   22550050.6254
        -0.000          -0.000
 -12693217.962 9  -9420249.30347  22893356.366    22893355.7704   22893361.1554
        -0.000          -0.000
 -13398965.395 9 -10428950.14747  22331374.543    22331374.3424   22331380.1354
        -0.000          -0.000
 98  5  3  4  1 30.0000000  0  9  1 17  3 23 21  9  8 31 29         -0.000000046
 -22211319.006 9 -17287077.65749  20418301.844    20418301.3244   20418306.3974
        -0.000          -0.000
  13270408.202 9  10338785.29646  23304283.912    23304283.1114   23304289.5764
        -0.000          -0.000
  -7995170.866 9  -6208695.84648  21747777.513    21747777.1974   21747782.6334
        -0.000          -0.000
   7912455.882 9   6164731.91347  22230330.432    22230329.8834   22230335.0784
        -0.000          -0.000
  -7110696.465 9  -5530380.33049  20902666.924    20902666.4054   20902671.4704
        -0.000          -0.000
  -7059667.121 9  -5348509.60146  23746171.484    23746171.2574   23746176.3084
        -0.000          -0.000
 -11639023.187 9  -8868748.82447  22541799.134    22541798.4484   22541803.9434
        -0.000          -0.000
 -12720238.941 9  -9441304.61247  22888214.414    22888213.8994   22888219.2344
        -0.000          -0.000
 -13482722.066 9 -10494215.01447  22315436.041    22315435.9154   22315441.6624
        -0.000          -0.000
 98  5  3  4  2  0.0000000  0  9  1 17  3 23 21  9  8 31 29         -0.000000040
 -22239975.874 9 -17309407.67449  20412848.598    20412848.0994   20412853.1544
        -0.000          -0.000
  13361515.944 9  10409778.30146  23321620.990    23321620.2584   23321626.7914
        -0.000          -0.000
  -7950776.083 9  -6174102.54748  21756225.586    21756225.2684   21756230.7294
        -0.000          -0.000
   7959121.362 9   6201094.59547  22239210.613    22239210.0554   22239215.2094
        -0.000          -0.000
  -7111867.998 9  -5531293.20449  20902443.929    20902443.4304   20902448.5304
        -0.000          -0.000
  -7029121.240 9  -5324707.59546  23751984.150    23751983.8544   23751988.9424
        -0.000          -0.000
 -11681851.895 9  -8902121.81147  22533649.064    22533648.4404   22533653.8284
        -0.000          -0.000
 -12746652.720 9  -9461886.77647  22883188.123    22883187.5394   22883192.8874
        -0.000          -0.000
 -13566172.430 9 -10559241.19847  22299555.902    22299555.7794   22299561.5264
        -0.000          -0.000
 98  5  3  4  2 30.0000000  0  9  1 17  3 23 21  9  8 31 29         -0.000000027
 -22268132.309 9 -17331347.73849  20407490.590    20407490.0994   20407495.1154
        -0.000          -0.000
  13452873.996 9  10480966.35346  23339005.833    23339005.0144   23339011.7714
        -0.000          -0.000
  -7905876.998 9  -6139116.30848  21764769.590    21764769.2144   21764774.7394
        -0.000          -0.000
   8005858.873 9   6237513.44647  22248104.482    22248103.8794   22248109.0704
        -0.000          -0.000
  -7112881.210 9  -5532082.71149  20902251.164    20902250.6534   20902255.7744
        -0.000          -0.000
  -6998037.270 9  -5300486.31746  23757899.113    23757898.7304   23757903.8784
        -0.000          -0.000
 -11724195.080 9  -8935116.46947  22525591.415    22525590.7984   22525596.1464
        -0.000          -0.000
 -12772488.725 9  -9482018.72947  22878271.736    22878271.1224   22878276.3854
        -0.000          -0.000
 -13649320.314 9 -10624031.69647  22283733.244    22283733.1734   22283738.9524
        -0.000          -0.000
 98  5  3  4  3  0.0000000  0  9  1 17  3 23 21  9  8 31 29         -0.000000007
 -22295803.394 9 -17352909.61049  20402224.998    20402224.4944   20402229.4944
        -0.000          -0.000
  13544470.897 9  10552340.52846  23356436.094    23356435.3964   23356442.0694
        -0.000          -0.000
  -7860479.573 9  -6103741.73048  21773408.428    21773408.0834   21773413.6524
        -0.000          -0.000
   8052651.491 9   6273975.23747  22257008.780    22257008.1944   22257013.4224
        -0.000          -0.000
  -7113745.798 9  -5532756.41249  20902086.619    20902086.1074   20902091.2354
        -0.000          -0.000
  -6966422.383 9  -5275851.34646  23763915.127    23763914.8244   23763920.0174
        -0.000          -0.000
 -11766057.892 9  -8967736.81047  22517625.289    22517624.6734   22517630.0794
        -0.000          -0.000
 -12797759.088 9  -9501709.92847  22873462.874    22873462.3124   22873467.5114
        -0.000          -0.000
 -13732166.958 9 -10688587.48147  22267968.034    22267967.9564   22267973.7174
        -0.000          -0.000
 98  5  3  4  3 30.0000000  0  9  1 17  3 23 21  9  8 31 29          0.000000002
 -22323018.212 9 -17374115.94649  20397046.209    20397045.7094   20397050.6804
        -0.000          -0.000
  13636289.461 9  10623887.40446  23373908.583    23373907.8504   23373914.6434
        -0.000          -0.000
  -7814619.852 9  -6068006.90748  21782135.233    21782134.8824   21782140.5064
        -0.000          -0.000
   8099485.565 9   6310469.30347  22265920.995    22265920.4544   22265925.6484
        -0.000          -0.000
  -7114486.875 9  -5533333.86449  20901945.597    20901945.1044   20901950.2174
        -0.000          -0.000
  -6934303.338 9  -5250823.52246  23770027.118    23770026.7234   23770032.0034
        -0.000          -0.000
 -11807477.232 9  -9000011.59047  22509743.495    22509742.8594   22509748.2734
        -0.000          -0.000
 -12822495.578 9  -9520985.11547  22868755.723    22868755.1404   22868760.2644
        -0.000          -0.000
 -13814728.716 9 -10752921.25047  22252257.017    22252256.9234   22252262.6804
        -0.000          -0.000
 98  5  3  4  4  0.0000000  0  9  1 17  3 23 21  9  8 31 29          0.000000004
 -22349750.956 9 -17394946.64649  20391959.127    20391958.6214   20391963.5844
        -0.000          -0.000
  13728352.036 9  10695624.42946  23391427.435    23391426.8124   23391433.4514
        -0.000          -0.000
  -7768290.223 9  -6031905.97448  21790951.473    21790951.1484   21790956.7914
        -0.000          -0.000
   8146385.321 9   6347014.54647  22274845.790    22274845.1964   22274850.3794
        -0.000          -0.000
  -7115089.560 9  -5533803.48649  20901830.907    20901830.3944   20901835.5034
        -0.000          -0.000
  -6901660.160 9  -5225387.24146  23776238.972    23776238.6824   23776243.7864
        -0.000          -0.000
 -11848461.054 9  -9031947.00847  22501944.535    22501943.8884   22501949.4024
        -0.000          -0.000
 -12846699.641 9  -9539845.42047  22864149.869    22864149.3094   22864154.3664
        -0.000          -0.000
 -13896977.593 9 -10817011.22847  22236605.553    22236605.4584   22236611.1934
        -0.000          -0.000
 98  5  3  4  4 30.0000000  0  9  1 17  3 23 21  9  8 31 29          0.000000004
 -22375973.823 9 -17415380.03649  20386969.027    20386968.5354   20386973.5174
        -0.000          -0.000
  13820688.273 9  10767574.69346  23408998.555    23408997.8484   23409004.5624
        -0.000          -0.000
  -7721470.367 9  -5995423.05148  21799861.033    21799860.7104   21799866.3334
        -0.000          -0.000
   8193377.416 9   6383631.78547  22283788.062    22283787.5054   22283792.7224
        -0.000          -0.000
  -7115535.144 9  -5534150.68949  20901746.121    20901745.6034   20901750.6824
        -0.000          -0.000
  -6868482.147 9  -5199534.22446  23782552.473    23782552.2124   23782557.1184
        -0.000          -0.000
 -11888987.351 9  -9063525.91347  22494232.603    22494232.0074   22494237.5484
        -0.000          -0.000
 -12870360.070 9  -9558282.11447  22859647.359    22859646.8064   22859651.8814
        -0.000          -0.000
 -13978896.284 9 -10880843.90547  22221016.885    22221016.8004   22221022.5464
        -0.000          -0.000
 98  5  3  4  5  0.0000000  0  9  1 17  3 23 21  9  8 31 29         -0.000000004
 -22401698.155 9 -17435424.97149  20382073.826    20382073.3544   20382078.3434
        -0.000          -0.000
  13913283.765 9  10839726.98646  23426618.921    23426618.2404   23426624.8254
        -0.000          -0.000
  -7674184.779 9  -5958577.22248  21808859.263    21808858.9114   21808864.5604
        -0.000          -0.000
   8240456.840 9   6420317.00147  22292746.962    22292746.4234   22292751.6054
        -0.000          -0.000
  -7115821.527 9  -5534373.84349  20901691.654    20901691.1504   20901696.1954
        -0.000          -0.000
  -6834781.002 9  -5173273.55946  23788965.610    23788965.3434   23788969.9424
        -0.000          -0.000
 -11929054.108 9  -9094746.72547  22486608.097    22486607.4464   22486613.0974
        -0.000          -0.000
 -12893466.492 9  -9576287.12547  22855250.352    22855249.7704   22855254.9144
        -0.000          -0.000
 -14060509.198 9 -10944438.30747  22205486.476    22205486.3424   22205492.0454
        -0.000          -0.000
 98  5  3  4  5 30.0000000  0  9  1 17  3 23 21  9  8 31 29         -0.000000003
 -22426913.073 9 -17455072.98449  20377275.601    20377275.1164   20377280.0784
        -0.000          -0.000
  14006149.907 9  10912090.16846  23444290.883    23444290.1864   23444296.6674
        -0.000          -0.000
  -7626429.663 9  -5921365.48648  21817946.765    21817946.4404   21817952.1404
        -0.000          -0.000
   8287639.389 9   6457082.64647  22301725.538    22301724.9674   22301730.1914
        -0.000          -0.000
  -7115929.139 9  -5534457.68649  20901671.179    20901670.6744   20901675.6924
        -0.000          -0.000
  -6800535.726 9  -5146588.88146  23795482.283    23795482.0504   23795486.4504
        -0.000          -0.000
 -11968639.052 9  -9125592.11647  22479075.234    22479074.6514   22479080.2364
        -0.000          -0.000
 -12915989.805 9  -9593837.74747  22850964.215    22850963.6974   22850968.9114
        -0.000          -0.000
 -14141794.549 9 -11007777.46647  22190018.347    22190018.2204   22190023.8604
        -0.000          -0.000
 98  5  3  4  6  0.0000000  0  9  1 17  3 23 21  9  8 31 29         -0.000000007
 -22451641.568 9 -17474341.97049  20372569.915    20372569.4144   20372574.3694
        -0.000          -0.000
  14099259.083 9  10984642.71646  23462008.979    23462008.2304   23462014.9414
        -0.000          -0.000
  -7578228.447 9  -5883806.09848  21827119.135    21827118.8304   21827124.5704
        -0.000          -0.000
   8334893.182 9   6493903.76947  22310717.637    22310717.0924   22310722.3294
        -0.000          -0.000
  -7115877.262 9  -5534417.25749  20901681.065    20901680.5384   20901685.5594
        -0.000          -0.000
  -6765766.738 9  -5119496.13846  23802098.733    23802098.4004   23802102.7824
        -0.000          -0.000
 -12007745.897 9  -9156064.96247  22471633.443    22471632.8324   22471638.3884
        -0.000          -0.000
 -12937961.412 9  -9610958.48447  22846783.120    22846782.6124   22846787.7964
        -0.000          -0.000
 -14222760.423 9 -11070867.66247  22174611.020    22174610.8464   22174616.5144
        -0.000          -0.000
 98  5  3  4  6 30.0000000  0  9  1 17  3 23 21  9  8 31 29         -0.000000019
 -22475895.843 9 -17493241.43049  20367954.467    20367953.9594   20367958.9454
        -0.000          -0.000
  14192591.766 9  11057369.45146  23479769.626    23479768.8944   23479775.5744
        -0.000          -0.000
  -7529582.465 9  -5845900.14248  21836376.129    21836375.8524   21836381.6794
        -0.000          -0.000
   8382191.882 9   6530759.89147  22319718.231    22319717.6914   22319722.9574
        -0.000          -0.000
  -7115674.276 9  -5534259.07949  20901719.718    20901719.1714   20901724.1954
        -0.000          -0.000
  -6730480.870 9  -5092000.63646  23808813.542    23808813.2124   23808817.5334
        -0.000          -0.000
 -12046356.451 9  -9186151.08147  22464286.034    22464285.4294   22464291.0374
        -0.000          -0.000
 -12959386.570 9  -9627653.40947  22842706.020    22842705.5744   22842710.7434
        -0.000          -0.000
 -14303408.365 9 -11133710.12347  22159264.089    22159263.9614   22159269.6164
        -0.000          -0.000
 98  5  3  4  7  0.0000000  0  9  1 17  3 23 21  9  8 31 29         -0.000000020
 -22499642.760 9 -17511745.54949  20363435.569    20363435.0974   20363440.0854
        -0.000          -0.000
  14286173.846 9  11130290.49846  23497577.827    23497577.0564   23497583.7144
        -0.000          -0.000
  -7480466.832 9  -5807628.30448  21845722.528    21845722.2614   21845728.1194
        -0.000          -0.000
   8429537.779 9   6567652.77647  22328727.890    22328727.3244   22328732.6074
        -0.000          -0.000
  -7115293.497 9  -5533962.36849  20901792.189    20901791.6714   20901796.6844
        -0.000          -0.000
  -6694642.172 9  -5064074.36346  23815633.292    23815632.9614   23815637.5244
        -0.000          -0.000
 -12084449.704 9  -9215834.11447  22457037.117    22457036.4884   22457042.0204
        -0.000          -0.000
 -12980238.251 9  -9643901.48047  22838738.100    22838737.6214   22838742.8004
        -0.000          -0.000
 -14383704.045 9 -11196278.10647  22143984.208    22143984.1194   22143989.7544
        -0.000          -0.000
 98  5  3  4  7 30.0000000  0  9  1 17  3 23 21  9  8 31 29         -0.000000022
 -22522886.002 9 -17529857.21049  20359012.544    20359012.0594   20359017.0554
        -0.000          -0.000
  14380000.650 9  11203402.25046  23515432.549    23515431.7254   23515438.4974
        -0.000          -0.000
  -7430887.259 9  -5768994.89548  21855157.260    21855156.9904   21855162.8514
        -0.000          -0.000
   8476905.567 9   6604562.71647  22337741.704    22337741.1344   22337746.4334
        -0.000          -0.000
  -7114761.555 9  -5533547.85649  20901893.415    20901892.8914   20901897.8884
        -0.000          -0.000
  -6658266.443 9  -5035729.63746  23822555.151    23822554.9094   23822559.9264
        -0.000          -0.000
 -12122058.249 9  -9245139.43947  22449880.342    22449879.7024   22449885.1814
        -0.000          -0.000
 -13000551.662 9  -9659730.10047  22834872.698    22834872.1374   22834877.2854
        -0.000          -0.000
 -14463652.641 9 -11258575.64947  22128770.404    22128770.3214   22128775.9654
        -0.000          -0.000
 98  5  3  4  8  0.0000000  0  9  1 17  3 23 21  9  8 31 29         -0.000000024
 -22545602.565 9 -17547558.41849  20354689.749    20354689.2724   20354694.2514
        -0.000          -0.000
  14474094.147 9  11276721.81646  23533337.915    23533337.0704   23533343.9384
        -0.000          -0.000
  -7380810.217 9  -5729973.85048  21864686.706    21864686.3934   21864692.2524
        -0.000          -0.000
   8524310.345 9   6641501.49847  22346762.489    22346761.9294   22346767.2424
        -0.000          -0.000
  -7114073.326 9  -5533011.57049  20902024.389    20902023.8304   20902028.8374
        -0.000          -0.000
  -6621351.368 9  -5006964.63246  23829579.453    23829579.2164   23829584.8474
        -0.000          -0.000
 -12159179.584 9  -9274065.12347  22442816.231    22442815.6224   22442821.1474
        -0.000          -0.000
 -13020318.918 9  -9675133.14747  22831111.136    22831110.5314   22831115.7244
        -0.000          -0.000
 -14543259.397 9 -11320606.79747  22113621.648    22113621.5594   22113627.2224
        -0.000          -0.000
 98  5  3  4  8 30.0000000  0  9  1 17  3 23 21  9  8 31 29         -0.000000019
 -22567790.752 9 -17564847.87449  20350467.454    20350466.9854   20350471.9834
        -0.000          -0.000
  14568463.292 9  11350256.15646  23551295.660    23551294.9174   23551301.9454
        -0.000          -0.000
  -7330233.982 9  -5690563.82948  21874311.073    21874310.7804   21874316.6294
        -0.000          -0.000
   8571769.974 9   6678483.05347  22355793.735    22355793.1574   22355798.5104
        -0.000          -0.000
  -7113226.736 9  -5532351.88249  20902185.476    20902184.9094   20902189.9454
        -0.000          -0.000
  -6583904.649 9  -4977785.36746  23836705.206    23836705.0134   23836710.8054
        -0.000          -0.000
 -12195815.503 9  -9302612.56847  22435844.490    22435843.9784   22435849.5644
        -0.000          -0.000
 -13039517.226 9  -9690092.86647  22827457.765    22827457.1804   22827462.4574
        -0.000          -0.000
 -14622533.939 9 -11382379.08047  22098536.143    22098536.0624   22098541.7324
        -0.000          -0.000
 98  5  3  4  9  0.0000000  0  9  1 17  3 23 21  9  8 31 29         -0.000000008
 -22589453.812 9 -17581728.14049  20346345.131    20346344.6494   20346349.6324
        -0.000          -0.000
  14663119.436 9  11424014.14746  23569308.222    23569307.3784   23569314.3164
        -0.000          -0.000
  -7279164.160 9  -5650769.21148  21884029.405    21884029.1224   21884034.9564
        -0.000          -0.000
   8619307.094 9   6715524.97647  22364839.760    22364839.1744   22364844.5644
        -0.000          -0.000
  -7112226.921 9  -5531572.80249  20902375.721    20902375.1574   20902380.2244
        -0.000          -0.000
  -6545941.689 9  -4948203.85346  23843929.429    23843929.2514   23843934.9044
        -0.000          -0.000
 -12231971.953 9  -9330786.40047  22428964.187    22428963.6424   22428969.1894
        -0.000          -0.000
 -13058143.327 9  -9704606.71947  22823913.360    22823912.8144   22823918.0334
        -0.000          -0.000
 -14701492.628 9 -11443905.25047  22083510.759    22083510.6644   22083516.2984
        -0.000          -0.000
 98  5  3  4  9 30.0000000  0  9  1 17  3 23 21  9  8 31 29          0.000000004
 -22610606.470 9 -17598210.69049  20342319.942    20342319.4554   20342324.4244
        -0.000          -0.000
  14758051.495 9  11497987.12446  23587373.152    23587372.3324   23587379.2924
        -0.000          -0.000
  -7227609.666 9  -5610596.93848  21893839.998    21893839.6504   21893845.4454
        -0.000          -0.000
   8666938.279 9   6752640.15047  22373903.652    22373903.1094   22373908.4424
        -0.000          -0.000
  -7111078.691 9  -5530678.06149  20902594.225    20902593.6464   20902598.7164
        -0.000          -0.000
  -6507468.310 9  -4918224.54746  23851250.942    23851250.7924   23851256.0584
        -0.000          -0.000
 -12267643.008 9  -9358581.98547  22422176.178    22422175.5714   22422181.2374
        -0.000          -0.000
 -13076208.794 9  -9718683.70547  22820475.592    22820475.0844   22820480.2444
        -0.000          -0.000
 -14780138.858 9 -11505187.93947  22068544.827    22068544.7554   22068550.3354
        -0.000          -0.000
 98  5  3  4 10  0.0000000  0  9  1 17  3 23 21  9  8 31 29          0.000000018
 -22631274.705 9 -17614315.76249  20338386.875    20338386.3884   20338391.3464
        -0.000          -0.000
  14853239.871 9  11572159.83246  23605487.017    23605486.1524   23605493.0264
        -0.000          -0.000
  -7175599.328 9  -5570069.42948  21903737.316    21903736.9384   21903742.7324
        -0.000          -0.000
   8714651.832 9   6789819.57747  22382983.284    22382982.7134   22382988.0744
        -0.000          -0.000
  -7109792.438 9  -5529675.77949  20902838.974    20902838.4064   20902843.4874
        -0.000          -0.000
  -6468486.847 9  -4887849.32946  23858669.097    23858668.9174   23858673.7854
        -0.000          -0.000
 -12302818.405 9  -9385991.36147  22415482.445    22415481.8354   22415487.5554
        -0.000          -0.000
 -13093717.895 9  -9732327.15047  22817143.741    22817143.2404   22817148.3144
        -0.000          -0.000
 -14858480.484 9 -11566233.27647  22053636.817    22053636.7754   22053642.3324
        -0.000          -0.000
 98  5  3  4 10 30.0000000  0  9  1 17  3 23 21  9  8 31 29          0.000000034
 -22651465.567 9 -17630048.84149  20334544.701    20334544.1984   20334549.1394
        -0.000          -0.000
  14948673.311 9  11646523.51046  23623647.520    23623646.7594   23623653.4534
        -0.000          -0.000
  -7123151.406 9  -5529200.96748  21913717.822    21913717.4494   21913723.2844
        -0.000          -0.000
   8762451.409 9   6827066.01047  22392079.249    22392078.6674   22392083.9744
        -0.000          -0.000
  -7108367.327 9  -5528565.29949  20903110.127    20903109.5884   20903114.6594
        -0.000          -0.000
  -6428990.320 9  -4857072.79146  23866185.181    23866185.0444   23866189.4724
        -0.000          -0.000
 -12337496.002 9  -9413012.81847  22408883.403    22408882.8244   22408888.7164
        -0.000          -0.000
 -13110673.986 9  -9745539.69047  22813917.106    22813916.5944   22813921.6434
        -0.000          -0.000
 -14936500.377 9 -11627027.90147  22038790.115    22038790.0634   22038795.5744
        -0.000          -0.000
 98  5  3  4 11  0.0000000  0  9  1 17  3 23 21  9  8 31 29          0.000000045
 -22671180.014 9 -17645410.69049  20330793.116    20330792.6254   20330797.5764
        -0.000          -0.000
  15044326.443 9  11721058.35746  23641849.747    23641848.9694   23641855.7784
        -0.000          -0.000
  -7070275.163 9  -5487998.71547  21923779.847    21923779.4634   21923785.3644
        -0.000          -0.000
   8810322.096 9   6864367.79947  22401188.777    22401188.2004   22401193.4694
        -0.000          -0.000
  -7106819.117 9  -5527358.89349  20903404.733    20903404.1844   20903409.2574
        -0.000          -0.000
  -6388973.038 9  -4825890.43446  23873800.160    23873800.0534   23873804.2774
        -0.000          -0.000
 -12371680.404 9  -9439649.96747  22402378.264    22402377.7164   22402383.6754
        -0.000          -0.000
 -13127092.646 9  -9758333.43947  22810792.830    22810792.3074   22810797.3574
        -0.000          -0.000
 -15014213.514 9 -11687583.52747  22024001.706    22024001.6814   22024007.1304
        -0.000          -0.000
 98  5  3  4 11 30.0000000  0  9  1 17  3 23 21  9  8 31 29          0.000000062
 -22690400.271 9 -17660387.48849  20327135.598    20327135.0974   20327140.0314
        -0.000          -0.000
  15140202.467 9  11795766.89746  23660094.312    23660093.6974   23660100.4294
        -0.000          -0.000
  -7016966.039 9  -5446459.22147  21933924.244    21933923.8804   21933929.7964
        -0.000          -0.000
   8858265.958 9   6901726.68047  22410312.165    22410311.6444   22410316.9484
        -0.000          -0.000
  -7105130.025 9  -5526042.71449  20903726.164    20903725.6024   20903730.6974
        -0.000          -0.000
  -6348401.907 9  -4794276.56745  23881520.117    23881520.0874   23881524.6654
        -0.000          -0.000
 -12405352.275 9  -9465887.77547  22395970.811    22395970.2424   22395976.1724
        -0.000          -0.000
 -13142955.137 9  -9770693.81247  22807774.386    22807773.7974   22807778.8504
        -0.000          -0.000
 -15091595.229 9 -11747880.90647  22009276.379    22009276.3254   22009281.7714
        -0.000          -0.000
 98  5  3  4 12  0.0000000  0  9  1 17  3 23 21  9  8 31 29          0.000000074
 -22709144.317 9 -17674993.21849  20323568.709    20323568.1974   20323573.1274
        -0.000          -0.000
  15236277.713 9  11870630.68346  23678376.933    23678376.2214   23678383.1504
        -0.000          -0.000
  -6963239.745 9  -5404594.62347  21944148.054    21944147.6634   21944153.6184
        -0.000          -0.000
   8906264.185 9   6939127.91447  22419445.965    22419445.3814   22419450.6604
        -0.000          -0.000
  -7103311.238 9  -5524625.46349  20904072.272    20904071.7224   20904076.7864
        -0.000          -0.000
  -6307308.883 9  -4762256.04746  23889339.805    23889339.7344   23889344.7744
        -0.000          -0.000
 -12438526.561 9  -9491737.82347  22389658.017    22389657.4734   22389663.3924
        -0.000          -0.000
 -13158264.209 9  -9782622.95947  22804861.053    22804860.5534   22804865.5734
        -0.000          -0.000
 -15168669.488 9 -11807938.70948  21994609.631    21994609.5594   21994614.9984
        -0.000          -0.000
